<?xml version="1.0" encoding="UTF-8" standalone="no" ?>
<gpx xmlns="http://www.topografix.com/GPX/1/1" creator="www.cicloide.com" version="1.1" xmlns:xsi="http://www.w3.org/2001/XMLSchema-instance" xsi:schemaLocation="http://www.topografix.com/GPX/1/1 http://www.topografix.com/GPX/1/1/gpx.xsd">
  <trk>
    <name>www.cicloide.com 16451</name>
    <desc>www.cicloide.com 16451</desc>
    <trkseg>
      <trkpt lat="41.544819000" lon="1.890948000">
        <ele>20.80</ele>
        <time>2013-12-23T10:24:47Z</time>
      </trkpt>
      <trkpt lat="41.544830000" lon="1.890949000">
        <ele>20.80</ele>
        <time>2013-12-23T10:24:51Z</time>
      </trkpt>
      <trkpt lat="41.544834000" lon="1.890951000">
        <ele>20.80</ele>
        <time>2013-12-23T10:24:52Z</time>
      </trkpt>
      <trkpt lat="41.544880000" lon="1.890996000">
        <ele>20.80</ele>
        <time>2013-12-23T10:25:17Z</time>
      </trkpt>
      <trkpt lat="41.544872000" lon="1.891013000">
        <ele>20.80</ele>
        <time>2013-12-23T10:25:24Z</time>
      </trkpt>
      <trkpt lat="41.544838000" lon="1.890992000">
        <ele>20.80</ele>
        <time>2013-12-23T10:25:52Z</time>
      </trkpt>
      <trkpt lat="41.544769000" lon="1.890964000">
        <ele>20.80</ele>
        <time>2013-12-23T10:26:09Z</time>
      </trkpt>
      <trkpt lat="41.544762000" lon="1.890965000">
        <ele>20.80</ele>
        <time>2013-12-23T10:26:35Z</time>
      </trkpt>
      <trkpt lat="41.544765000" lon="1.890969000">
        <ele>20.80</ele>
        <time>2013-12-23T10:26:58Z</time>
      </trkpt>
      <trkpt lat="41.544765000" lon="1.890969000">
        <ele>20.80</ele>
        <time>2013-12-23T10:27:27Z</time>
      </trkpt>
      <trkpt lat="41.544769000" lon="1.890970000">
        <ele>20.80</ele>
        <time>2013-12-23T10:27:55Z</time>
      </trkpt>
      <trkpt lat="41.544765000" lon="1.890965000">
        <ele>20.80</ele>
        <time>2013-12-23T10:28:23Z</time>
      </trkpt>
      <trkpt lat="41.544765000" lon="1.890970000">
        <ele>20.80</ele>
        <time>2013-12-23T10:28:47Z</time>
      </trkpt>
      <trkpt lat="41.544765000" lon="1.890970000">
        <ele>20.80</ele>
        <time>2013-12-23T10:29:00Z</time>
      </trkpt>
      <trkpt lat="41.544765000" lon="1.890970000">
        <ele>20.80</ele>
        <time>2013-12-23T10:29:00Z</time>
      </trkpt>
      <trkpt lat="41.544758000" lon="1.890974000">
        <ele>20.80</ele>
        <time>2013-12-23T10:29:03Z</time>
      </trkpt>
      <trkpt lat="41.544712000" lon="1.890842000">
        <ele>20.30</ele>
        <time>2013-12-23T10:29:08Z</time>
      </trkpt>
      <trkpt lat="41.544697000" lon="1.890785000">
        <ele>20.30</ele>
        <time>2013-12-23T10:29:10Z</time>
      </trkpt>
      <trkpt lat="41.544792000" lon="1.890456000">
        <ele>20.30</ele>
        <time>2013-12-23T10:29:19Z</time>
      </trkpt>
      <trkpt lat="41.545025000" lon="1.890204000">
        <ele>20.30</ele>
        <time>2013-12-23T10:29:29Z</time>
      </trkpt>
      <trkpt lat="41.545124000" lon="1.889901000">
        <ele>20.30</ele>
        <time>2013-12-23T10:29:36Z</time>
      </trkpt>
      <trkpt lat="41.545082000" lon="1.889290000">
        <ele>20.80</ele>
        <time>2013-12-23T10:29:50Z</time>
      </trkpt>
      <trkpt lat="41.544983000" lon="1.888659000">
        <ele>23.20</ele>
        <time>2013-12-23T10:30:04Z</time>
      </trkpt>
      <trkpt lat="41.544983000" lon="1.888659000">
        <ele>23.20</ele>
        <time>2013-12-23T10:30:09Z</time>
      </trkpt>
      <trkpt lat="41.545002000" lon="1.888311000">
        <ele>23.70</ele>
        <time>2013-12-23T10:30:18Z</time>
      </trkpt>
      <trkpt lat="41.545040000" lon="1.888084000">
        <ele>25.10</ele>
        <time>2013-12-23T10:30:23Z</time>
      </trkpt>
      <trkpt lat="41.545109000" lon="1.887735000">
        <ele>26.60</ele>
        <time>2013-12-23T10:30:32Z</time>
      </trkpt>
      <trkpt lat="41.545284000" lon="1.887701000">
        <ele>28.50</ele>
        <time>2013-12-23T10:30:41Z</time>
      </trkpt>
      <trkpt lat="41.545643000" lon="1.887793000">
        <ele>31.90</ele>
        <time>2013-12-23T10:30:53Z</time>
      </trkpt>
      <trkpt lat="41.545708000" lon="1.887828000">
        <ele>32.80</ele>
        <time>2013-12-23T10:30:56Z</time>
      </trkpt>
      <trkpt lat="41.545734000" lon="1.887859000">
        <ele>34.30</ele>
        <time>2013-12-23T10:31:07Z</time>
      </trkpt>
      <trkpt lat="41.545856000" lon="1.887869000">
        <ele>36.20</ele>
        <time>2013-12-23T10:31:12Z</time>
      </trkpt>
      <trkpt lat="41.546200000" lon="1.887979000">
        <ele>36.20</ele>
        <time>2013-12-23T10:31:26Z</time>
      </trkpt>
      <trkpt lat="41.546318000" lon="1.888059000">
        <ele>37.60</ele>
        <time>2013-12-23T10:31:31Z</time>
      </trkpt>
      <trkpt lat="41.546333000" lon="1.888098000">
        <ele>40.00</ele>
        <time>2013-12-23T10:31:47Z</time>
      </trkpt>
      <trkpt lat="41.546329000" lon="1.888097000">
        <ele>40.00</ele>
        <time>2013-12-23T10:32:18Z</time>
      </trkpt>
      <trkpt lat="41.546329000" lon="1.888097000">
        <ele>41.50</ele>
        <time>2013-12-23T10:32:48Z</time>
      </trkpt>
      <trkpt lat="41.546333000" lon="1.888098000">
        <ele>42.00</ele>
        <time>2013-12-23T10:32:58Z</time>
      </trkpt>
      <trkpt lat="41.546459000" lon="1.888070000">
        <ele>41.50</ele>
        <time>2013-12-23T10:33:04Z</time>
      </trkpt>
      <trkpt lat="41.546700000" lon="1.888105000">
        <ele>44.80</ele>
        <time>2013-12-23T10:33:14Z</time>
      </trkpt>
      <trkpt lat="41.546795000" lon="1.888107000">
        <ele>46.80</ele>
        <time>2013-12-23T10:33:18Z</time>
      </trkpt>
      <trkpt lat="41.547035000" lon="1.888137000">
        <ele>49.70</ele>
        <time>2013-12-23T10:33:28Z</time>
      </trkpt>
      <trkpt lat="41.547215000" lon="1.888167000">
        <ele>52.00</ele>
        <time>2013-12-23T10:33:35Z</time>
      </trkpt>
      <trkpt lat="41.547470000" lon="1.888194000">
        <ele>54.90</ele>
        <time>2013-12-23T10:33:45Z</time>
      </trkpt>
      <trkpt lat="41.547512000" lon="1.888198000">
        <ele>55.90</ele>
        <time>2013-12-23T10:33:47Z</time>
      </trkpt>
      <trkpt lat="41.547710000" lon="1.888208000">
        <ele>59.30</ele>
        <time>2013-12-23T10:33:58Z</time>
      </trkpt>
      <trkpt lat="41.547745000" lon="1.888202000">
        <ele>59.70</ele>
        <time>2013-12-23T10:33:59Z</time>
      </trkpt>
      <trkpt lat="41.548023000" lon="1.888131000">
        <ele>61.20</ele>
        <time>2013-12-23T10:34:13Z</time>
      </trkpt>
      <trkpt lat="41.548271000" lon="1.888038000">
        <ele>65.50</ele>
        <time>2013-12-23T10:34:25Z</time>
      </trkpt>
      <trkpt lat="41.548290000" lon="1.888031000">
        <ele>65.50</ele>
        <time>2013-12-23T10:34:27Z</time>
      </trkpt>
      <trkpt lat="41.548481000" lon="1.887975000">
        <ele>67.40</ele>
        <time>2013-12-23T10:34:36Z</time>
      </trkpt>
      <trkpt lat="41.548771000" lon="1.887942000">
        <ele>68.90</ele>
        <time>2013-12-23T10:34:48Z</time>
      </trkpt>
      <trkpt lat="41.549145000" lon="1.887915000">
        <ele>71.80</ele>
        <time>2013-12-23T10:35:04Z</time>
      </trkpt>
      <trkpt lat="41.549511000" lon="1.887883000">
        <ele>74.60</ele>
        <time>2013-12-23T10:35:21Z</time>
      </trkpt>
      <trkpt lat="41.549812000" lon="1.887882000">
        <ele>76.10</ele>
        <time>2013-12-23T10:35:33Z</time>
      </trkpt>
      <trkpt lat="41.550003000" lon="1.887890000">
        <ele>78.00</ele>
        <time>2013-12-23T10:35:40Z</time>
      </trkpt>
      <trkpt lat="41.550125000" lon="1.887907000">
        <ele>79.00</ele>
        <time>2013-12-23T10:35:46Z</time>
      </trkpt>
      <trkpt lat="41.550171000" lon="1.887927000">
        <ele>80.40</ele>
        <time>2013-12-23T10:35:47Z</time>
      </trkpt>
      <trkpt lat="41.550533000" lon="1.888051000">
        <ele>81.40</ele>
        <time>2013-12-23T10:36:01Z</time>
      </trkpt>
      <trkpt lat="41.550827000" lon="1.888194000">
        <ele>84.20</ele>
        <time>2013-12-23T10:36:13Z</time>
      </trkpt>
      <trkpt lat="41.551159000" lon="1.888350000">
        <ele>86.20</ele>
        <time>2013-12-23T10:36:26Z</time>
      </trkpt>
      <trkpt lat="41.551483000" lon="1.888511000">
        <ele>88.10</ele>
        <time>2013-12-23T10:36:40Z</time>
      </trkpt>
      <trkpt lat="41.551529000" lon="1.888547000">
        <ele>88.60</ele>
        <time>2013-12-23T10:36:41Z</time>
      </trkpt>
      <trkpt lat="41.551571000" lon="1.888675000">
        <ele>89.10</ele>
        <time>2013-12-23T10:36:45Z</time>
      </trkpt>
      <trkpt lat="41.551758000" lon="1.888988000">
        <ele>90.50</ele>
        <time>2013-12-23T10:36:57Z</time>
      </trkpt>
      <trkpt lat="41.552143000" lon="1.889198000">
        <ele>93.90</ele>
        <time>2013-12-23T10:37:13Z</time>
      </trkpt>
      <trkpt lat="41.552555000" lon="1.889417000">
        <ele>97.20</ele>
        <time>2013-12-23T10:37:28Z</time>
      </trkpt>
      <trkpt lat="41.552830000" lon="1.889560000">
        <ele>98.70</ele>
        <time>2013-12-23T10:37:39Z</time>
      </trkpt>
      <trkpt lat="41.552868000" lon="1.889601000">
        <ele>99.60</ele>
        <time>2013-12-23T10:37:42Z</time>
      </trkpt>
      <trkpt lat="41.552872000" lon="1.889742000">
        <ele>100.60</ele>
        <time>2013-12-23T10:37:46Z</time>
      </trkpt>
      <trkpt lat="41.552879000" lon="1.889812000">
        <ele>100.60</ele>
        <time>2013-12-23T10:37:48Z</time>
      </trkpt>
      <trkpt lat="41.553043000" lon="1.889918000">
        <ele>102.00</ele>
        <time>2013-12-23T10:37:54Z</time>
      </trkpt>
      <trkpt lat="41.553471000" lon="1.890089000">
        <ele>104.40</ele>
        <time>2013-12-23T10:38:10Z</time>
      </trkpt>
      <trkpt lat="41.553791000" lon="1.890222000">
        <ele>106.80</ele>
        <time>2013-12-23T10:38:22Z</time>
      </trkpt>
      <trkpt lat="41.553879000" lon="1.890172000">
        <ele>107.80</ele>
        <time>2013-12-23T10:38:26Z</time>
      </trkpt>
      <trkpt lat="41.553967000" lon="1.890079000">
        <ele>107.80</ele>
        <time>2013-12-23T10:38:31Z</time>
      </trkpt>
      <trkpt lat="41.553925000" lon="1.890036000">
        <ele>107.80</ele>
        <time>2013-12-23T10:38:35Z</time>
      </trkpt>
      <trkpt lat="41.553875000" lon="1.890071000">
        <ele>108.30</ele>
        <time>2013-12-23T10:38:36Z</time>
      </trkpt>
      <trkpt lat="41.553871000" lon="1.890541000">
        <ele>107.80</ele>
        <time>2013-12-23T10:38:48Z</time>
      </trkpt>
      <trkpt lat="41.554077000" lon="1.890821000">
        <ele>108.80</ele>
        <time>2013-12-23T10:38:59Z</time>
      </trkpt>
      <trkpt lat="41.554520000" lon="1.890812000">
        <ele>111.70</ele>
        <time>2013-12-23T10:39:16Z</time>
      </trkpt>
      <trkpt lat="41.554829000" lon="1.890779000">
        <ele>115.00</ele>
        <time>2013-12-23T10:39:27Z</time>
      </trkpt>
      <trkpt lat="41.554855000" lon="1.890774000">
        <ele>115.00</ele>
        <time>2013-12-23T10:39:29Z</time>
      </trkpt>
      <trkpt lat="41.555172000" lon="1.890868000">
        <ele>117.90</ele>
        <time>2013-12-23T10:39:41Z</time>
      </trkpt>
      <trkpt lat="41.555561000" lon="1.890886000">
        <ele>120.80</ele>
        <time>2013-12-23T10:39:56Z</time>
      </trkpt>
      <trkpt lat="41.555935000" lon="1.890849000">
        <ele>124.60</ele>
        <time>2013-12-23T10:40:10Z</time>
      </trkpt>
      <trkpt lat="41.555962000" lon="1.890842000">
        <ele>121.30</ele>
        <time>2013-12-23T10:40:12Z</time>
      </trkpt>
      <trkpt lat="41.556061000" lon="1.890821000">
        <ele>124.60</ele>
        <time>2013-12-23T10:40:16Z</time>
      </trkpt>
      <trkpt lat="41.556435000" lon="1.890794000">
        <ele>128.00</ele>
        <time>2013-12-23T10:40:31Z</time>
      </trkpt>
      <trkpt lat="41.556671000" lon="1.890809000">
        <ele>129.90</ele>
        <time>2013-12-23T10:40:40Z</time>
      </trkpt>
      <trkpt lat="41.556671000" lon="1.891316000">
        <ele>130.40</ele>
        <time>2013-12-23T10:40:54Z</time>
      </trkpt>
      <trkpt lat="41.556812000" lon="1.891659000">
        <ele>131.80</ele>
        <time>2013-12-23T10:41:06Z</time>
      </trkpt>
      <trkpt lat="41.556950000" lon="1.891651000">
        <ele>136.60</ele>
        <time>2013-12-23T10:41:13Z</time>
      </trkpt>
      <trkpt lat="41.557213000" lon="1.891713000">
        <ele>136.60</ele>
        <time>2013-12-23T10:41:25Z</time>
      </trkpt>
      <trkpt lat="41.557499000" lon="1.891739000">
        <ele>139.50</ele>
        <time>2013-12-23T10:41:37Z</time>
      </trkpt>
      <trkpt lat="41.557674000" lon="1.891785000">
        <ele>141.90</ele>
        <time>2013-12-23T10:41:46Z</time>
      </trkpt>
      <trkpt lat="41.557812000" lon="1.891814000">
        <ele>143.40</ele>
        <time>2013-12-23T10:41:53Z</time>
      </trkpt>
      <trkpt lat="41.557865000" lon="1.891926000">
        <ele>144.80</ele>
        <time>2013-12-23T10:41:58Z</time>
      </trkpt>
      <trkpt lat="41.557934000" lon="1.892117000">
        <ele>146.70</ele>
        <time>2013-12-23T10:42:07Z</time>
      </trkpt>
      <trkpt lat="41.558090000" lon="1.892454000">
        <ele>149.60</ele>
        <time>2013-12-23T10:42:21Z</time>
      </trkpt>
      <trkpt lat="41.558189000" lon="1.892642000">
        <ele>152.50</ele>
        <time>2013-12-23T10:42:30Z</time>
      </trkpt>
      <trkpt lat="41.558365000" lon="1.892848000">
        <ele>155.40</ele>
        <time>2013-12-23T10:42:44Z</time>
      </trkpt>
      <trkpt lat="41.558491000" lon="1.892923000">
        <ele>158.30</ele>
        <time>2013-12-23T10:42:52Z</time>
      </trkpt>
      <trkpt lat="41.558708000" lon="1.892958000">
        <ele>161.20</ele>
        <time>2013-12-23T10:43:05Z</time>
      </trkpt>
      <trkpt lat="41.558861000" lon="1.892949000">
        <ele>163.10</ele>
        <time>2013-12-23T10:43:13Z</time>
      </trkpt>
      <trkpt lat="41.559124000" lon="1.892998000">
        <ele>165.00</ele>
        <time>2013-12-23T10:43:27Z</time>
      </trkpt>
      <trkpt lat="41.559315000" lon="1.893139000">
        <ele>168.90</ele>
        <time>2013-12-23T10:43:38Z</time>
      </trkpt>
      <trkpt lat="41.559540000" lon="1.893300000">
        <ele>172.20</ele>
        <time>2013-12-23T10:43:50Z</time>
      </trkpt>
      <trkpt lat="41.559708000" lon="1.893301000">
        <ele>175.10</ele>
        <time>2013-12-23T10:44:00Z</time>
      </trkpt>
      <trkpt lat="41.559864000" lon="1.893325000">
        <ele>178.50</ele>
        <time>2013-12-23T10:44:09Z</time>
      </trkpt>
      <trkpt lat="41.559895000" lon="1.893339000">
        <ele>179.40</ele>
        <time>2013-12-23T10:44:11Z</time>
      </trkpt>
      <trkpt lat="41.559925000" lon="1.893424000">
        <ele>180.90</ele>
        <time>2013-12-23T10:44:16Z</time>
      </trkpt>
      <trkpt lat="41.559990000" lon="1.893539000">
        <ele>181.80</ele>
        <time>2013-12-23T10:44:21Z</time>
      </trkpt>
      <trkpt lat="41.560120000" lon="1.893950000">
        <ele>184.70</ele>
        <time>2013-12-23T10:44:35Z</time>
      </trkpt>
      <trkpt lat="41.560383000" lon="1.894036000">
        <ele>185.20</ele>
        <time>2013-12-23T10:44:44Z</time>
      </trkpt>
      <trkpt lat="41.560440000" lon="1.894053000">
        <ele>185.20</ele>
        <time>2013-12-23T10:44:47Z</time>
      </trkpt>
      <trkpt lat="41.560501000" lon="1.893957000">
        <ele>185.70</ele>
        <time>2013-12-23T10:44:51Z</time>
      </trkpt>
      <trkpt lat="41.560551000" lon="1.893683000">
        <ele>188.10</ele>
        <time>2013-12-23T10:45:01Z</time>
      </trkpt>
      <trkpt lat="41.560703000" lon="1.893485000">
        <ele>191.40</ele>
        <time>2013-12-23T10:45:10Z</time>
      </trkpt>
      <trkpt lat="41.560829000" lon="1.893387000">
        <ele>193.80</ele>
        <time>2013-12-23T10:45:19Z</time>
      </trkpt>
      <trkpt lat="41.561016000" lon="1.893400000">
        <ele>197.70</ele>
        <time>2013-12-23T10:45:29Z</time>
      </trkpt>
      <trkpt lat="41.561150000" lon="1.893559000">
        <ele>200.60</ele>
        <time>2013-12-23T10:45:40Z</time>
      </trkpt>
      <trkpt lat="41.561157000" lon="1.893574000">
        <ele>200.60</ele>
        <time>2013-12-23T10:45:41Z</time>
      </trkpt>
      <trkpt lat="41.561172000" lon="1.893637000">
        <ele>202.00</ele>
        <time>2013-12-23T10:45:43Z</time>
      </trkpt>
      <trkpt lat="41.561172000" lon="1.893656000">
        <ele>202.00</ele>
        <time>2013-12-23T10:45:45Z</time>
      </trkpt>
      <trkpt lat="41.561253000" lon="1.893826000">
        <ele>204.90</ele>
        <time>2013-12-23T10:45:54Z</time>
      </trkpt>
      <trkpt lat="41.561295000" lon="1.893883000">
        <ele>206.30</ele>
        <time>2013-12-23T10:45:57Z</time>
      </trkpt>
      <trkpt lat="41.561378000" lon="1.893947000">
        <ele>208.30</ele>
        <time>2013-12-23T10:46:04Z</time>
      </trkpt>
      <trkpt lat="41.561466000" lon="1.893804000">
        <ele>210.20</ele>
        <time>2013-12-23T10:46:14Z</time>
      </trkpt>
      <trkpt lat="41.561558000" lon="1.893683000">
        <ele>213.60</ele>
        <time>2013-12-23T10:46:23Z</time>
      </trkpt>
      <trkpt lat="41.561600000" lon="1.893624000">
        <ele>215.00</ele>
        <time>2013-12-23T10:46:28Z</time>
      </trkpt>
      <trkpt lat="41.561726000" lon="1.893539000">
        <ele>218.80</ele>
        <time>2013-12-23T10:46:37Z</time>
      </trkpt>
      <trkpt lat="41.561756000" lon="1.893536000">
        <ele>218.80</ele>
        <time>2013-12-23T10:46:39Z</time>
      </trkpt>
      <trkpt lat="41.561981000" lon="1.893540000">
        <ele>222.70</ele>
        <time>2013-12-23T10:46:53Z</time>
      </trkpt>
      <trkpt lat="41.562092000" lon="1.893557000">
        <ele>224.10</ele>
        <time>2013-12-23T10:47:00Z</time>
      </trkpt>
      <trkpt lat="41.562302000" lon="1.893583000">
        <ele>226.10</ele>
        <time>2013-12-23T10:47:12Z</time>
      </trkpt>
      <trkpt lat="41.562534000" lon="1.893703000">
        <ele>228.00</ele>
        <time>2013-12-23T10:47:26Z</time>
      </trkpt>
      <trkpt lat="41.562618000" lon="1.893801000">
        <ele>229.40</ele>
        <time>2013-12-23T10:47:31Z</time>
      </trkpt>
      <trkpt lat="41.562878000" lon="1.894049000">
        <ele>231.80</ele>
        <time>2013-12-23T10:47:48Z</time>
      </trkpt>
      <trkpt lat="41.562897000" lon="1.894063000">
        <ele>231.80</ele>
        <time>2013-12-23T10:47:50Z</time>
      </trkpt>
      <trkpt lat="41.562946000" lon="1.894115000">
        <ele>232.80</ele>
        <time>2013-12-23T10:47:54Z</time>
      </trkpt>
      <trkpt lat="41.563129000" lon="1.894039000">
        <ele>234.20</ele>
        <time>2013-12-23T10:48:04Z</time>
      </trkpt>
      <trkpt lat="41.563225000" lon="1.893751000">
        <ele>236.10</ele>
        <time>2013-12-23T10:48:18Z</time>
      </trkpt>
      <trkpt lat="41.563354000" lon="1.893641000">
        <ele>237.10</ele>
        <time>2013-12-23T10:48:27Z</time>
      </trkpt>
      <trkpt lat="41.563541000" lon="1.893909000">
        <ele>237.60</ele>
        <time>2013-12-23T10:48:41Z</time>
      </trkpt>
      <trkpt lat="41.563671000" lon="1.894317000">
        <ele>238.50</ele>
        <time>2013-12-23T10:48:55Z</time>
      </trkpt>
      <trkpt lat="41.563725000" lon="1.894472000">
        <ele>239.00</ele>
        <time>2013-12-23T10:49:00Z</time>
      </trkpt>
      <trkpt lat="41.563889000" lon="1.894355000">
        <ele>239.50</ele>
        <time>2013-12-23T10:49:09Z</time>
      </trkpt>
      <trkpt lat="41.564064000" lon="1.894111000">
        <ele>242.90</ele>
        <time>2013-12-23T10:49:21Z</time>
      </trkpt>
      <trkpt lat="41.564190000" lon="1.893971000">
        <ele>245.80</ele>
        <time>2013-12-23T10:49:31Z</time>
      </trkpt>
      <trkpt lat="41.564301000" lon="1.893962000">
        <ele>247.20</ele>
        <time>2013-12-23T10:49:38Z</time>
      </trkpt>
      <trkpt lat="41.564354000" lon="1.893967000">
        <ele>248.60</ele>
        <time>2013-12-23T10:49:40Z</time>
      </trkpt>
      <trkpt lat="41.564411000" lon="1.893993000">
        <ele>250.60</ele>
        <time>2013-12-23T10:49:45Z</time>
      </trkpt>
      <trkpt lat="41.564449000" lon="1.894025000">
        <ele>251.00</ele>
        <time>2013-12-23T10:49:47Z</time>
      </trkpt>
      <trkpt lat="41.564495000" lon="1.894028000">
        <ele>252.50</ele>
        <time>2013-12-23T10:49:50Z</time>
      </trkpt>
      <trkpt lat="41.564522000" lon="1.894023000">
        <ele>253.40</ele>
        <time>2013-12-23T10:49:54Z</time>
      </trkpt>
      <trkpt lat="41.564686000" lon="1.893891000">
        <ele>255.90</ele>
        <time>2013-12-23T10:50:06Z</time>
      </trkpt>
      <trkpt lat="41.564697000" lon="1.893876000">
        <ele>255.90</ele>
        <time>2013-12-23T10:50:08Z</time>
      </trkpt>
      <trkpt lat="41.564724000" lon="1.893860000">
        <ele>256.30</ele>
        <time>2013-12-23T10:50:10Z</time>
      </trkpt>
      <trkpt lat="41.564781000" lon="1.893863000">
        <ele>256.80</ele>
        <time>2013-12-23T10:50:13Z</time>
      </trkpt>
      <trkpt lat="41.564873000" lon="1.893899000">
        <ele>257.80</ele>
        <time>2013-12-23T10:50:20Z</time>
      </trkpt>
      <trkpt lat="41.565140000" lon="1.893967000">
        <ele>259.70</ele>
        <time>2013-12-23T10:50:36Z</time>
      </trkpt>
      <trkpt lat="41.565235000" lon="1.894074000">
        <ele>261.10</ele>
        <time>2013-12-23T10:50:43Z</time>
      </trkpt>
      <trkpt lat="41.565315000" lon="1.894157000">
        <ele>261.60</ele>
        <time>2013-12-23T10:50:50Z</time>
      </trkpt>
      <trkpt lat="41.565384000" lon="1.894136000">
        <ele>263.50</ele>
        <time>2013-12-23T10:50:53Z</time>
      </trkpt>
      <trkpt lat="41.565441000" lon="1.894010000">
        <ele>264.50</ele>
        <time>2013-12-23T10:51:00Z</time>
      </trkpt>
      <trkpt lat="41.565491000" lon="1.893635000">
        <ele>266.90</ele>
        <time>2013-12-23T10:51:14Z</time>
      </trkpt>
      <trkpt lat="41.565498000" lon="1.893245000">
        <ele>268.40</ele>
        <time>2013-12-23T10:51:28Z</time>
      </trkpt>
      <trkpt lat="41.565414000" lon="1.892794000">
        <ele>269.80</ele>
        <time>2013-12-23T10:51:44Z</time>
      </trkpt>
      <trkpt lat="41.565502000" lon="1.892468000">
        <ele>270.30</ele>
        <time>2013-12-23T10:51:56Z</time>
      </trkpt>
      <trkpt lat="41.565800000" lon="1.892530000">
        <ele>269.30</ele>
        <time>2013-12-23T10:52:08Z</time>
      </trkpt>
      <trkpt lat="41.566208000" lon="1.892645000">
        <ele>270.80</ele>
        <time>2013-12-23T10:52:22Z</time>
      </trkpt>
      <trkpt lat="41.566563000" lon="1.892650000">
        <ele>272.20</ele>
        <time>2013-12-23T10:52:36Z</time>
      </trkpt>
      <trkpt lat="41.566933000" lon="1.892688000">
        <ele>273.60</ele>
        <time>2013-12-23T10:52:50Z</time>
      </trkpt>
      <trkpt lat="41.567368000" lon="1.892609000">
        <ele>273.10</ele>
        <time>2013-12-23T10:53:04Z</time>
      </trkpt>
      <trkpt lat="41.567772000" lon="1.892687000">
        <ele>273.60</ele>
        <time>2013-12-23T10:53:18Z</time>
      </trkpt>
      <trkpt lat="41.568134000" lon="1.892821000">
        <ele>274.60</ele>
        <time>2013-12-23T10:53:30Z</time>
      </trkpt>
      <trkpt lat="41.568386000" lon="1.893063000">
        <ele>277.00</ele>
        <time>2013-12-23T10:53:42Z</time>
      </trkpt>
      <trkpt lat="41.568501000" lon="1.893513000">
        <ele>278.40</ele>
        <time>2013-12-23T10:53:56Z</time>
      </trkpt>
      <trkpt lat="41.568565000" lon="1.893704000">
        <ele>279.90</ele>
        <time>2013-12-23T10:54:01Z</time>
      </trkpt>
      <trkpt lat="41.568726000" lon="1.893681000">
        <ele>280.80</ele>
        <time>2013-12-23T10:54:08Z</time>
      </trkpt>
      <trkpt lat="41.568935000" lon="1.893325000">
        <ele>283.20</ele>
        <time>2013-12-23T10:54:22Z</time>
      </trkpt>
      <trkpt lat="41.569000000" lon="1.893228000">
        <ele>284.20</ele>
        <time>2013-12-23T10:54:26Z</time>
      </trkpt>
      <trkpt lat="41.569077000" lon="1.893168000">
        <ele>284.70</ele>
        <time>2013-12-23T10:54:29Z</time>
      </trkpt>
      <trkpt lat="41.569382000" lon="1.892966000">
        <ele>285.60</ele>
        <time>2013-12-23T10:54:43Z</time>
      </trkpt>
      <trkpt lat="41.569790000" lon="1.892971000">
        <ele>286.10</ele>
        <time>2013-12-23T10:54:59Z</time>
      </trkpt>
      <trkpt lat="41.570107000" lon="1.893214000">
        <ele>288.00</ele>
        <time>2013-12-23T10:55:13Z</time>
      </trkpt>
      <trkpt lat="41.570393000" lon="1.893378000">
        <ele>290.50</ele>
        <time>2013-12-23T10:55:27Z</time>
      </trkpt>
      <trkpt lat="41.570694000" lon="1.893510000">
        <ele>292.40</ele>
        <time>2013-12-23T10:55:41Z</time>
      </trkpt>
      <trkpt lat="41.570995000" lon="1.893624000">
        <ele>293.80</ele>
        <time>2013-12-23T10:55:53Z</time>
      </trkpt>
      <trkpt lat="41.571312000" lon="1.893661000">
        <ele>295.30</ele>
        <time>2013-12-23T10:56:07Z</time>
      </trkpt>
      <trkpt lat="41.571503000" lon="1.893750000">
        <ele>297.20</ele>
        <time>2013-12-23T10:56:17Z</time>
      </trkpt>
      <trkpt lat="41.571781000" lon="1.893955000">
        <ele>298.60</ele>
        <time>2013-12-23T10:56:31Z</time>
      </trkpt>
      <trkpt lat="41.572002000" lon="1.894286000">
        <ele>301.50</ele>
        <time>2013-12-23T10:56:45Z</time>
      </trkpt>
      <trkpt lat="41.572163000" lon="1.894726000">
        <ele>303.40</ele>
        <time>2013-12-23T10:56:59Z</time>
      </trkpt>
      <trkpt lat="41.572197000" lon="1.894898000">
        <ele>303.40</ele>
        <time>2013-12-23T10:57:04Z</time>
      </trkpt>
      <trkpt lat="41.572350000" lon="1.895101000">
        <ele>301.00</ele>
        <time>2013-12-23T10:57:13Z</time>
      </trkpt>
      <trkpt lat="41.572384000" lon="1.895026000">
        <ele>301.50</ele>
        <time>2013-12-23T10:57:15Z</time>
      </trkpt>
      <trkpt lat="41.572495000" lon="1.894815000">
        <ele>301.50</ele>
        <time>2013-12-23T10:57:20Z</time>
      </trkpt>
      <trkpt lat="41.572800000" lon="1.894617000">
        <ele>300.10</ele>
        <time>2013-12-23T10:57:27Z</time>
      </trkpt>
      <trkpt lat="41.572781000" lon="1.894477000">
        <ele>301.00</ele>
        <time>2013-12-23T10:57:30Z</time>
      </trkpt>
      <trkpt lat="41.572754000" lon="1.894408000">
        <ele>302.00</ele>
        <time>2013-12-23T10:57:32Z</time>
      </trkpt>
      <trkpt lat="41.572647000" lon="1.894127000">
        <ele>304.90</ele>
        <time>2013-12-23T10:57:42Z</time>
      </trkpt>
      <trkpt lat="41.572540000" lon="1.893778000">
        <ele>308.20</ele>
        <time>2013-12-23T10:57:56Z</time>
      </trkpt>
      <trkpt lat="41.572533000" lon="1.893355000">
        <ele>309.70</ele>
        <time>2013-12-23T10:58:10Z</time>
      </trkpt>
      <trkpt lat="41.572594000" lon="1.892923000">
        <ele>311.60</ele>
        <time>2013-12-23T10:58:24Z</time>
      </trkpt>
      <trkpt lat="41.572651000" lon="1.892546000">
        <ele>314.50</ele>
        <time>2013-12-23T10:58:36Z</time>
      </trkpt>
      <trkpt lat="41.572845000" lon="1.892222000">
        <ele>317.90</ele>
        <time>2013-12-23T10:58:50Z</time>
      </trkpt>
      <trkpt lat="41.573017000" lon="1.891911000">
        <ele>319.30</ele>
        <time>2013-12-23T10:59:04Z</time>
      </trkpt>
      <trkpt lat="41.573032000" lon="1.891834000">
        <ele>319.80</ele>
        <time>2013-12-23T10:59:06Z</time>
      </trkpt>
      <trkpt lat="41.573013000" lon="1.891755000">
        <ele>321.20</ele>
        <time>2013-12-23T10:59:11Z</time>
      </trkpt>
      <trkpt lat="41.572979000" lon="1.891690000">
        <ele>323.10</ele>
        <time>2013-12-23T10:59:15Z</time>
      </trkpt>
      <trkpt lat="41.572948000" lon="1.891655000">
        <ele>323.60</ele>
        <time>2013-12-23T10:59:18Z</time>
      </trkpt>
      <trkpt lat="41.572918000" lon="1.891637000">
        <ele>324.60</ele>
        <time>2013-12-23T10:59:20Z</time>
      </trkpt>
      <trkpt lat="41.572796000" lon="1.891585000">
        <ele>327.50</ele>
        <time>2013-12-23T10:59:29Z</time>
      </trkpt>
      <trkpt lat="41.572701000" lon="1.891561000">
        <ele>328.90</ele>
        <time>2013-12-23T10:59:36Z</time>
      </trkpt>
      <trkpt lat="41.572586000" lon="1.891530000">
        <ele>331.30</ele>
        <time>2013-12-23T10:59:43Z</time>
      </trkpt>
      <trkpt lat="41.572418000" lon="1.891516000">
        <ele>334.20</ele>
        <time>2013-12-23T10:59:55Z</time>
      </trkpt>
      <trkpt lat="41.572266000" lon="1.891455000">
        <ele>337.10</ele>
        <time>2013-12-23T11:00:05Z</time>
      </trkpt>
      <trkpt lat="41.572121000" lon="1.891305000">
        <ele>340.00</ele>
        <time>2013-12-23T11:00:16Z</time>
      </trkpt>
      <trkpt lat="41.572109000" lon="1.891209000">
        <ele>340.90</ele>
        <time>2013-12-23T11:00:21Z</time>
      </trkpt>
      <trkpt lat="41.572067000" lon="1.890904000">
        <ele>344.30</ele>
        <time>2013-12-23T11:00:33Z</time>
      </trkpt>
      <trkpt lat="41.571972000" lon="1.890710000">
        <ele>346.70</ele>
        <time>2013-12-23T11:00:44Z</time>
      </trkpt>
      <trkpt lat="41.571999000" lon="1.890653000">
        <ele>347.60</ele>
        <time>2013-12-23T11:00:47Z</time>
      </trkpt>
      <trkpt lat="41.572083000" lon="1.890724000">
        <ele>348.60</ele>
        <time>2013-12-23T11:00:56Z</time>
      </trkpt>
      <trkpt lat="41.572182000" lon="1.890833000">
        <ele>350.50</ele>
        <time>2013-12-23T11:01:03Z</time>
      </trkpt>
      <trkpt lat="41.572216000" lon="1.890879000">
        <ele>350.50</ele>
        <time>2013-12-23T11:01:06Z</time>
      </trkpt>
      <trkpt lat="41.572304000" lon="1.891083000">
        <ele>352.00</ele>
        <time>2013-12-23T11:01:15Z</time>
      </trkpt>
      <trkpt lat="41.572552000" lon="1.891143000">
        <ele>354.40</ele>
        <time>2013-12-23T11:01:29Z</time>
      </trkpt>
      <trkpt lat="41.572910000" lon="1.891147000">
        <ele>353.90</ele>
        <time>2013-12-23T11:01:43Z</time>
      </trkpt>
      <trkpt lat="41.573235000" lon="1.891091000">
        <ele>355.30</ele>
        <time>2013-12-23T11:01:57Z</time>
      </trkpt>
      <trkpt lat="41.573338000" lon="1.891118000">
        <ele>357.30</ele>
        <time>2013-12-23T11:02:02Z</time>
      </trkpt>
      <trkpt lat="41.573418000" lon="1.891094000">
        <ele>357.30</ele>
        <time>2013-12-23T11:02:07Z</time>
      </trkpt>
      <trkpt lat="41.573593000" lon="1.891034000">
        <ele>359.70</ele>
        <time>2013-12-23T11:02:16Z</time>
      </trkpt>
      <trkpt lat="41.573639000" lon="1.890984000">
        <ele>361.60</ele>
        <time>2013-12-23T11:02:19Z</time>
      </trkpt>
      <trkpt lat="41.573666000" lon="1.890928000">
        <ele>362.50</ele>
        <time>2013-12-23T11:02:23Z</time>
      </trkpt>
      <trkpt lat="41.573727000" lon="1.890770000">
        <ele>365.40</ele>
        <time>2013-12-23T11:02:30Z</time>
      </trkpt>
      <trkpt lat="41.573795000" lon="1.890729000">
        <ele>367.40</ele>
        <time>2013-12-23T11:02:37Z</time>
      </trkpt>
      <trkpt lat="41.573868000" lon="1.890724000">
        <ele>367.40</ele>
        <time>2013-12-23T11:02:44Z</time>
      </trkpt>
      <trkpt lat="41.573868000" lon="1.891015000">
        <ele>368.30</ele>
        <time>2013-12-23T11:02:56Z</time>
      </trkpt>
      <trkpt lat="41.573875000" lon="1.891052000">
        <ele>368.80</ele>
        <time>2013-12-23T11:02:58Z</time>
      </trkpt>
      <trkpt lat="41.573868000" lon="1.891049000">
        <ele>368.80</ele>
        <time>2013-12-23T11:03:06Z</time>
      </trkpt>
      <trkpt lat="41.573826000" lon="1.890757000">
        <ele>366.90</ele>
        <time>2013-12-23T11:03:15Z</time>
      </trkpt>
      <trkpt lat="41.573753000" lon="1.890638000">
        <ele>366.90</ele>
        <time>2013-12-23T11:03:26Z</time>
      </trkpt>
      <trkpt lat="41.573757000" lon="1.890628000">
        <ele>366.90</ele>
        <time>2013-12-23T11:03:53Z</time>
      </trkpt>
      <trkpt lat="41.573757000" lon="1.890628000">
        <ele>366.90</ele>
        <time>2013-12-23T11:04:25Z</time>
      </trkpt>
      <trkpt lat="41.573753000" lon="1.890627000">
        <ele>367.40</ele>
        <time>2013-12-23T11:05:05Z</time>
      </trkpt>
      <trkpt lat="41.573753000" lon="1.890631000">
        <ele>368.30</ele>
        <time>2013-12-23T11:05:45Z</time>
      </trkpt>
      <trkpt lat="41.573757000" lon="1.890624000">
        <ele>368.80</ele>
        <time>2013-12-23T11:06:25Z</time>
      </trkpt>
      <trkpt lat="41.573757000" lon="1.890627000">
        <ele>369.80</ele>
        <time>2013-12-23T11:07:09Z</time>
      </trkpt>
      <trkpt lat="41.573761000" lon="1.890629000">
        <ele>368.80</ele>
        <time>2013-12-23T11:07:56Z</time>
      </trkpt>
      <trkpt lat="41.573742000" lon="1.890647000">
        <ele>368.80</ele>
        <time>2013-12-23T11:08:03Z</time>
      </trkpt>
      <trkpt lat="41.573788000" lon="1.890731000">
        <ele>369.80</ele>
        <time>2013-12-23T11:08:08Z</time>
      </trkpt>
      <trkpt lat="41.573883000" lon="1.891020000">
        <ele>371.70</ele>
        <time>2013-12-23T11:08:20Z</time>
      </trkpt>
      <trkpt lat="41.573864000" lon="1.891335000">
        <ele>373.10</ele>
        <time>2013-12-23T11:08:32Z</time>
      </trkpt>
      <trkpt lat="41.573845000" lon="1.891717000">
        <ele>374.10</ele>
        <time>2013-12-23T11:08:43Z</time>
      </trkpt>
      <trkpt lat="41.573860000" lon="1.892050000">
        <ele>376.50</ele>
        <time>2013-12-23T11:08:55Z</time>
      </trkpt>
      <trkpt lat="41.573875000" lon="1.892379000">
        <ele>378.40</ele>
        <time>2013-12-23T11:09:07Z</time>
      </trkpt>
      <trkpt lat="41.573730000" lon="1.892668000">
        <ele>378.40</ele>
        <time>2013-12-23T11:09:18Z</time>
      </trkpt>
      <trkpt lat="41.573555000" lon="1.893041000">
        <ele>380.30</ele>
        <time>2013-12-23T11:09:33Z</time>
      </trkpt>
      <trkpt lat="41.573460000" lon="1.893322000">
        <ele>379.90</ele>
        <time>2013-12-23T11:09:44Z</time>
      </trkpt>
      <trkpt lat="41.573624000" lon="1.893725000">
        <ele>379.40</ele>
        <time>2013-12-23T11:09:56Z</time>
      </trkpt>
      <trkpt lat="41.573811000" lon="1.894180000">
        <ele>377.50</ele>
        <time>2013-12-23T11:10:06Z</time>
      </trkpt>
      <trkpt lat="41.573975000" lon="1.894636000">
        <ele>374.10</ele>
        <time>2013-12-23T11:10:12Z</time>
      </trkpt>
      <trkpt lat="41.574059000" lon="1.894866000">
        <ele>374.10</ele>
        <time>2013-12-23T11:10:15Z</time>
      </trkpt>
      <trkpt lat="41.574181000" lon="1.895075000">
        <ele>376.00</ele>
        <time>2013-12-23T11:10:20Z</time>
      </trkpt>
      <trkpt lat="41.574245000" lon="1.895214000">
        <ele>376.50</ele>
        <time>2013-12-23T11:10:24Z</time>
      </trkpt>
      <trkpt lat="41.574402000" lon="1.895722000">
        <ele>378.40</ele>
        <time>2013-12-23T11:10:38Z</time>
      </trkpt>
      <trkpt lat="41.574451000" lon="1.895933000">
        <ele>380.30</ele>
        <time>2013-12-23T11:10:46Z</time>
      </trkpt>
      <trkpt lat="41.574631000" lon="1.896077000">
        <ele>383.20</ele>
        <time>2013-12-23T11:10:57Z</time>
      </trkpt>
      <trkpt lat="41.574669000" lon="1.896126000">
        <ele>384.70</ele>
        <time>2013-12-23T11:11:00Z</time>
      </trkpt>
      <trkpt lat="41.574703000" lon="1.896198000">
        <ele>385.60</ele>
        <time>2013-12-23T11:11:04Z</time>
      </trkpt>
      <trkpt lat="41.574829000" lon="1.896319000">
        <ele>387.10</ele>
        <time>2013-12-23T11:11:14Z</time>
      </trkpt>
      <trkpt lat="41.574883000" lon="1.896359000">
        <ele>389.00</ele>
        <time>2013-12-23T11:11:18Z</time>
      </trkpt>
      <trkpt lat="41.574970000" lon="1.896381000">
        <ele>390.40</ele>
        <time>2013-12-23T11:11:25Z</time>
      </trkpt>
      <trkpt lat="41.575001000" lon="1.896381000">
        <ele>391.40</ele>
        <time>2013-12-23T11:11:26Z</time>
      </trkpt>
      <trkpt lat="41.575195000" lon="1.896378000">
        <ele>394.30</ele>
        <time>2013-12-23T11:11:40Z</time>
      </trkpt>
      <trkpt lat="41.575241000" lon="1.896369000">
        <ele>395.20</ele>
        <time>2013-12-23T11:11:44Z</time>
      </trkpt>
      <trkpt lat="41.575291000" lon="1.896379000">
        <ele>395.70</ele>
        <time>2013-12-23T11:11:47Z</time>
      </trkpt>
      <trkpt lat="41.575333000" lon="1.896392000">
        <ele>396.70</ele>
        <time>2013-12-23T11:11:51Z</time>
      </trkpt>
      <trkpt lat="41.575535000" lon="1.896382000">
        <ele>398.60</ele>
        <time>2013-12-23T11:12:03Z</time>
      </trkpt>
      <trkpt lat="41.575756000" lon="1.896378000">
        <ele>400.50</ele>
        <time>2013-12-23T11:12:17Z</time>
      </trkpt>
      <trkpt lat="41.575848000" lon="1.896384000">
        <ele>401.00</ele>
        <time>2013-12-23T11:12:22Z</time>
      </trkpt>
      <trkpt lat="41.576004000" lon="1.896478000">
        <ele>403.90</ele>
        <time>2013-12-23T11:12:31Z</time>
      </trkpt>
      <trkpt lat="41.576115000" lon="1.896497000">
        <ele>405.30</ele>
        <time>2013-12-23T11:12:38Z</time>
      </trkpt>
      <trkpt lat="41.576344000" lon="1.896517000">
        <ele>407.70</ele>
        <time>2013-12-23T11:12:52Z</time>
      </trkpt>
      <trkpt lat="41.576496000" lon="1.896523000">
        <ele>407.70</ele>
        <time>2013-12-23T11:13:02Z</time>
      </trkpt>
      <trkpt lat="41.576687000" lon="1.896612000">
        <ele>410.10</ele>
        <time>2013-12-23T11:13:13Z</time>
      </trkpt>
      <trkpt lat="41.576801000" lon="1.896740000">
        <ele>410.60</ele>
        <time>2013-12-23T11:13:21Z</time>
      </trkpt>
      <trkpt lat="41.576992000" lon="1.897177000">
        <ele>414.00</ele>
        <time>2013-12-23T11:13:41Z</time>
      </trkpt>
      <trkpt lat="41.577152000" lon="1.897428000">
        <ele>416.40</ele>
        <time>2013-12-23T11:13:53Z</time>
      </trkpt>
      <trkpt lat="41.577148000" lon="1.897843000">
        <ele>418.80</ele>
        <time>2013-12-23T11:14:08Z</time>
      </trkpt>
      <trkpt lat="41.577110000" lon="1.898317000">
        <ele>422.60</ele>
        <time>2013-12-23T11:14:26Z</time>
      </trkpt>
      <trkpt lat="41.577087000" lon="1.898531000">
        <ele>426.00</ele>
        <time>2013-12-23T11:14:35Z</time>
      </trkpt>
      <trkpt lat="41.577030000" lon="1.898681000">
        <ele>426.00</ele>
        <time>2013-12-23T11:14:41Z</time>
      </trkpt>
      <trkpt lat="41.577080000" lon="1.898851000">
        <ele>427.40</ele>
        <time>2013-12-23T11:14:50Z</time>
      </trkpt>
      <trkpt lat="41.577202000" lon="1.898845000">
        <ele>427.90</ele>
        <time>2013-12-23T11:14:57Z</time>
      </trkpt>
      <trkpt lat="41.577354000" lon="1.898749000">
        <ele>428.40</ele>
        <time>2013-12-23T11:15:06Z</time>
      </trkpt>
      <trkpt lat="41.577450000" lon="1.898934000">
        <ele>431.30</ele>
        <time>2013-12-23T11:15:18Z</time>
      </trkpt>
      <trkpt lat="41.577442000" lon="1.898940000">
        <ele>427.90</ele>
        <time>2013-12-23T11:15:20Z</time>
      </trkpt>
      <trkpt lat="41.577442000" lon="1.898940000">
        <ele>431.30</ele>
        <time>2013-12-23T11:15:22Z</time>
      </trkpt>
      <trkpt lat="41.577473000" lon="1.899014000">
        <ele>433.20</ele>
        <time>2013-12-23T11:15:32Z</time>
      </trkpt>
      <trkpt lat="41.577515000" lon="1.899068000">
        <ele>434.20</ele>
        <time>2013-12-23T11:15:46Z</time>
      </trkpt>
      <trkpt lat="41.577518000" lon="1.899081000">
        <ele>434.20</ele>
        <time>2013-12-23T11:15:55Z</time>
      </trkpt>
      <trkpt lat="41.577587000" lon="1.899114000">
        <ele>432.20</ele>
        <time>2013-12-23T11:16:02Z</time>
      </trkpt>
      <trkpt lat="41.577663000" lon="1.899082000">
        <ele>430.80</ele>
        <time>2013-12-23T11:16:07Z</time>
      </trkpt>
      <trkpt lat="41.577785000" lon="1.899070000">
        <ele>429.90</ele>
        <time>2013-12-23T11:16:10Z</time>
      </trkpt>
      <trkpt lat="41.577866000" lon="1.899115000">
        <ele>429.90</ele>
        <time>2013-12-23T11:16:16Z</time>
      </trkpt>
      <trkpt lat="41.578068000" lon="1.899170000">
        <ele>430.80</ele>
        <time>2013-12-23T11:16:28Z</time>
      </trkpt>
      <trkpt lat="41.578106000" lon="1.899195000">
        <ele>430.30</ele>
        <time>2013-12-23T11:16:29Z</time>
      </trkpt>
      <trkpt lat="41.578140000" lon="1.899316000">
        <ele>429.90</ele>
        <time>2013-12-23T11:16:33Z</time>
      </trkpt>
      <trkpt lat="41.578114000" lon="1.899465000">
        <ele>430.80</ele>
        <time>2013-12-23T11:16:40Z</time>
      </trkpt>
      <trkpt lat="41.578114000" lon="1.899508000">
        <ele>430.80</ele>
        <time>2013-12-23T11:16:42Z</time>
      </trkpt>
      <trkpt lat="41.578159000" lon="1.899651000">
        <ele>432.70</ele>
        <time>2013-12-23T11:16:49Z</time>
      </trkpt>
      <trkpt lat="41.578175000" lon="1.899740000">
        <ele>433.70</ele>
        <time>2013-12-23T11:16:54Z</time>
      </trkpt>
      <trkpt lat="41.578186000" lon="1.899814000">
        <ele>434.20</ele>
        <time>2013-12-23T11:16:57Z</time>
      </trkpt>
      <trkpt lat="41.578194000" lon="1.899888000">
        <ele>436.10</ele>
        <time>2013-12-23T11:17:08Z</time>
      </trkpt>
      <trkpt lat="41.578197000" lon="1.899972000">
        <ele>437.10</ele>
        <time>2013-12-23T11:17:20Z</time>
      </trkpt>
      <trkpt lat="41.578201000" lon="1.899979000">
        <ele>436.60</ele>
        <time>2013-12-23T11:17:22Z</time>
      </trkpt>
      <trkpt lat="41.578266000" lon="1.899991000">
        <ele>438.00</ele>
        <time>2013-12-23T11:17:34Z</time>
      </trkpt>
      <trkpt lat="41.578270000" lon="1.899984000">
        <ele>438.50</ele>
        <time>2013-12-23T11:17:36Z</time>
      </trkpt>
      <trkpt lat="41.578304000" lon="1.899973000">
        <ele>440.40</ele>
        <time>2013-12-23T11:17:50Z</time>
      </trkpt>
      <trkpt lat="41.578327000" lon="1.899974000">
        <ele>440.90</ele>
        <time>2013-12-23T11:17:58Z</time>
      </trkpt>
      <trkpt lat="41.578438000" lon="1.899971000">
        <ele>443.30</ele>
        <time>2013-12-23T11:18:12Z</time>
      </trkpt>
      <trkpt lat="41.578453000" lon="1.899962000">
        <ele>443.80</ele>
        <time>2013-12-23T11:18:14Z</time>
      </trkpt>
      <trkpt lat="41.578491000" lon="1.899965000">
        <ele>445.20</ele>
        <time>2013-12-23T11:18:21Z</time>
      </trkpt>
      <trkpt lat="41.578564000" lon="1.899926000">
        <ele>445.20</ele>
        <time>2013-12-23T11:18:35Z</time>
      </trkpt>
      <trkpt lat="41.578568000" lon="1.899930000">
        <ele>445.20</ele>
        <time>2013-12-23T11:18:37Z</time>
      </trkpt>
      <trkpt lat="41.578609000" lon="1.899970000">
        <ele>443.80</ele>
        <time>2013-12-23T11:18:49Z</time>
      </trkpt>
      <trkpt lat="41.578617000" lon="1.900002000">
        <ele>441.90</ele>
        <time>2013-12-23T11:19:01Z</time>
      </trkpt>
      <trkpt lat="41.578617000" lon="1.900002000">
        <ele>441.90</ele>
        <time>2013-12-23T11:19:10Z</time>
      </trkpt>
      <trkpt lat="41.578613000" lon="1.900125000">
        <ele>440.90</ele>
        <time>2013-12-23T11:19:13Z</time>
      </trkpt>
      <trkpt lat="41.578621000" lon="1.900307000">
        <ele>439.00</ele>
        <time>2013-12-23T11:19:17Z</time>
      </trkpt>
      <trkpt lat="41.578663000" lon="1.900554000">
        <ele>439.50</ele>
        <time>2013-12-23T11:19:27Z</time>
      </trkpt>
      <trkpt lat="41.578712000" lon="1.900755000">
        <ele>439.90</ele>
        <time>2013-12-23T11:19:32Z</time>
      </trkpt>
      <trkpt lat="41.578751000" lon="1.900847000">
        <ele>439.50</ele>
        <time>2013-12-23T11:19:36Z</time>
      </trkpt>
      <trkpt lat="41.578747000" lon="1.901070000">
        <ele>442.30</ele>
        <time>2013-12-23T11:19:43Z</time>
      </trkpt>
      <trkpt lat="41.578808000" lon="1.901349000">
        <ele>438.50</ele>
        <time>2013-12-23T11:19:55Z</time>
      </trkpt>
      <trkpt lat="41.578835000" lon="1.901581000">
        <ele>435.10</ele>
        <time>2013-12-23T11:20:00Z</time>
      </trkpt>
      <trkpt lat="41.578880000" lon="1.901799000">
        <ele>431.30</ele>
        <time>2013-12-23T11:20:04Z</time>
      </trkpt>
      <trkpt lat="41.578911000" lon="1.901911000">
        <ele>428.90</ele>
        <time>2013-12-23T11:20:07Z</time>
      </trkpt>
      <trkpt lat="41.578979000" lon="1.902166000">
        <ele>424.60</ele>
        <time>2013-12-23T11:20:11Z</time>
      </trkpt>
      <trkpt lat="41.578995000" lon="1.902305000">
        <ele>420.70</ele>
        <time>2013-12-23T11:20:12Z</time>
      </trkpt>
      <trkpt lat="41.579025000" lon="1.902437000">
        <ele>419.30</ele>
        <time>2013-12-23T11:20:14Z</time>
      </trkpt>
      <trkpt lat="41.579037000" lon="1.902563000">
        <ele>416.40</ele>
        <time>2013-12-23T11:20:16Z</time>
      </trkpt>
      <trkpt lat="41.579014000" lon="1.902850000">
        <ele>412.10</ele>
        <time>2013-12-23T11:20:21Z</time>
      </trkpt>
      <trkpt lat="41.579006000" lon="1.903008000">
        <ele>408.70</ele>
        <time>2013-12-23T11:20:23Z</time>
      </trkpt>
      <trkpt lat="41.579002000" lon="1.903149000">
        <ele>407.70</ele>
        <time>2013-12-23T11:20:25Z</time>
      </trkpt>
      <trkpt lat="41.579056000" lon="1.903476000">
        <ele>402.90</ele>
        <time>2013-12-23T11:20:28Z</time>
      </trkpt>
      <trkpt lat="41.579082000" lon="1.903626000">
        <ele>401.00</ele>
        <time>2013-12-23T11:20:30Z</time>
      </trkpt>
      <trkpt lat="41.579094000" lon="1.903830000">
        <ele>397.60</ele>
        <time>2013-12-23T11:20:33Z</time>
      </trkpt>
      <trkpt lat="41.579170000" lon="1.904092000">
        <ele>394.30</ele>
        <time>2013-12-23T11:20:39Z</time>
      </trkpt>
      <trkpt lat="41.579334000" lon="1.904452000">
        <ele>388.50</ele>
        <time>2013-12-23T11:20:44Z</time>
      </trkpt>
      <trkpt lat="41.579399000" lon="1.904605000">
        <ele>387.50</ele>
        <time>2013-12-23T11:20:47Z</time>
      </trkpt>
      <trkpt lat="41.579548000" lon="1.904771000">
        <ele>383.70</ele>
        <time>2013-12-23T11:20:51Z</time>
      </trkpt>
      <trkpt lat="41.579712000" lon="1.904947000">
        <ele>379.90</ele>
        <time>2013-12-23T11:20:56Z</time>
      </trkpt>
      <trkpt lat="41.579800000" lon="1.905035000">
        <ele>376.50</ele>
        <time>2013-12-23T11:21:00Z</time>
      </trkpt>
      <trkpt lat="41.579830000" lon="1.905062000">
        <ele>376.00</ele>
        <time>2013-12-23T11:21:01Z</time>
      </trkpt>
      <trkpt lat="41.579941000" lon="1.905255000">
        <ele>372.60</ele>
        <time>2013-12-23T11:21:05Z</time>
      </trkpt>
      <trkpt lat="41.579979000" lon="1.905434000">
        <ele>371.20</ele>
        <time>2013-12-23T11:21:08Z</time>
      </trkpt>
      <trkpt lat="41.579994000" lon="1.905550000">
        <ele>371.20</ele>
        <time>2013-12-23T11:21:10Z</time>
      </trkpt>
      <trkpt lat="41.580032000" lon="1.905689000">
        <ele>370.20</ele>
        <time>2013-12-23T11:21:13Z</time>
      </trkpt>
      <trkpt lat="41.580128000" lon="1.905948000">
        <ele>368.30</ele>
        <time>2013-12-23T11:21:19Z</time>
      </trkpt>
      <trkpt lat="41.580196000" lon="1.906048000">
        <ele>367.80</ele>
        <time>2013-12-23T11:21:20Z</time>
      </trkpt>
      <trkpt lat="41.580372000" lon="1.906167000">
        <ele>365.90</ele>
        <time>2013-12-23T11:21:24Z</time>
      </trkpt>
      <trkpt lat="41.580505000" lon="1.906212000">
        <ele>363.00</ele>
        <time>2013-12-23T11:21:29Z</time>
      </trkpt>
      <trkpt lat="41.580570000" lon="1.906251000">
        <ele>361.10</ele>
        <time>2013-12-23T11:21:31Z</time>
      </trkpt>
      <trkpt lat="41.580734000" lon="1.906399000">
        <ele>356.80</ele>
        <time>2013-12-23T11:21:34Z</time>
      </trkpt>
      <trkpt lat="41.580872000" lon="1.906736000">
        <ele>353.90</ele>
        <time>2013-12-23T11:21:40Z</time>
      </trkpt>
      <trkpt lat="41.580894000" lon="1.906792000">
        <ele>352.90</ele>
        <time>2013-12-23T11:21:41Z</time>
      </trkpt>
      <trkpt lat="41.580990000" lon="1.907107000">
        <ele>348.60</ele>
        <time>2013-12-23T11:21:45Z</time>
      </trkpt>
      <trkpt lat="41.581215000" lon="1.907436000">
        <ele>346.70</ele>
        <time>2013-12-23T11:21:50Z</time>
      </trkpt>
      <trkpt lat="41.581272000" lon="1.907494000">
        <ele>346.20</ele>
        <time>2013-12-23T11:21:50Z</time>
      </trkpt>
      <trkpt lat="41.581379000" lon="1.907626000">
        <ele>344.80</ele>
        <time>2013-12-23T11:21:52Z</time>
      </trkpt>
      <trkpt lat="41.581497000" lon="1.907748000">
        <ele>343.80</ele>
        <time>2013-12-23T11:21:55Z</time>
      </trkpt>
      <trkpt lat="41.581665000" lon="1.907934000">
        <ele>342.40</ele>
        <time>2013-12-23T11:21:57Z</time>
      </trkpt>
      <trkpt lat="41.581837000" lon="1.908156000">
        <ele>339.50</ele>
        <time>2013-12-23T11:22:00Z</time>
      </trkpt>
      <trkpt lat="41.582188000" lon="1.908526000">
        <ele>335.60</ele>
        <time>2013-12-23T11:22:06Z</time>
      </trkpt>
      <trkpt lat="41.582409000" lon="1.908957000">
        <ele>332.30</ele>
        <time>2013-12-23T11:22:11Z</time>
      </trkpt>
      <trkpt lat="41.582432000" lon="1.909057000">
        <ele>332.30</ele>
        <time>2013-12-23T11:22:11Z</time>
      </trkpt>
      <trkpt lat="41.582485000" lon="1.909253000">
        <ele>331.30</ele>
        <time>2013-12-23T11:22:13Z</time>
      </trkpt>
      <trkpt lat="41.582539000" lon="1.909620000">
        <ele>330.40</ele>
        <time>2013-12-23T11:22:18Z</time>
      </trkpt>
      <trkpt lat="41.582573000" lon="1.909797000">
        <ele>329.40</ele>
        <time>2013-12-23T11:22:20Z</time>
      </trkpt>
      <trkpt lat="41.582634000" lon="1.909972000">
        <ele>328.00</ele>
        <time>2013-12-23T11:22:21Z</time>
      </trkpt>
      <trkpt lat="41.582680000" lon="1.910144000">
        <ele>328.40</ele>
        <time>2013-12-23T11:22:23Z</time>
      </trkpt>
      <trkpt lat="41.582630000" lon="1.910440000">
        <ele>328.00</ele>
        <time>2013-12-23T11:22:28Z</time>
      </trkpt>
      <trkpt lat="41.582565000" lon="1.910799000">
        <ele>327.00</ele>
        <time>2013-12-23T11:22:32Z</time>
      </trkpt>
      <trkpt lat="41.582592000" lon="1.910951000">
        <ele>326.00</ele>
        <time>2013-12-23T11:22:35Z</time>
      </trkpt>
      <trkpt lat="41.582695000" lon="1.911379000">
        <ele>323.60</ele>
        <time>2013-12-23T11:22:39Z</time>
      </trkpt>
      <trkpt lat="41.582718000" lon="1.911462000">
        <ele>323.10</ele>
        <time>2013-12-23T11:22:41Z</time>
      </trkpt>
      <trkpt lat="41.582870000" lon="1.911824000">
        <ele>322.20</ele>
        <time>2013-12-23T11:22:46Z</time>
      </trkpt>
      <trkpt lat="41.582981000" lon="1.912192000">
        <ele>319.80</ele>
        <time>2013-12-23T11:22:51Z</time>
      </trkpt>
      <trkpt lat="41.583008000" lon="1.912259000">
        <ele>319.80</ele>
        <time>2013-12-23T11:22:51Z</time>
      </trkpt>
      <trkpt lat="41.583126000" lon="1.912438000">
        <ele>318.30</ele>
        <time>2013-12-23T11:22:54Z</time>
      </trkpt>
      <trkpt lat="41.583321000" lon="1.912732000">
        <ele>316.40</ele>
        <time>2013-12-23T11:23:00Z</time>
      </trkpt>
      <trkpt lat="41.583538000" lon="1.913228000">
        <ele>315.50</ele>
        <time>2013-12-23T11:23:07Z</time>
      </trkpt>
      <trkpt lat="41.583549000" lon="1.913375000">
        <ele>315.50</ele>
        <time>2013-12-23T11:23:10Z</time>
      </trkpt>
      <trkpt lat="41.583664000" lon="1.913405000">
        <ele>313.50</ele>
        <time>2013-12-23T11:23:15Z</time>
      </trkpt>
      <trkpt lat="41.583809000" lon="1.913357000">
        <ele>313.00</ele>
        <time>2013-12-23T11:23:19Z</time>
      </trkpt>
      <trkpt lat="41.584042000" lon="1.913285000">
        <ele>314.00</ele>
        <time>2013-12-23T11:23:28Z</time>
      </trkpt>
      <trkpt lat="41.584152000" lon="1.913225000">
        <ele>314.50</ele>
        <time>2013-12-23T11:23:33Z</time>
      </trkpt>
      <trkpt lat="41.584408000" lon="1.913227000">
        <ele>317.40</ele>
        <time>2013-12-23T11:23:47Z</time>
      </trkpt>
      <trkpt lat="41.584446000" lon="1.913237000">
        <ele>317.90</ele>
        <time>2013-12-23T11:23:48Z</time>
      </trkpt>
      <trkpt lat="41.584503000" lon="1.913284000">
        <ele>318.80</ele>
        <time>2013-12-23T11:23:52Z</time>
      </trkpt>
      <trkpt lat="41.584621000" lon="1.913312000">
        <ele>321.20</ele>
        <time>2013-12-23T11:24:02Z</time>
      </trkpt>
      <trkpt lat="41.584652000" lon="1.913279000">
        <ele>321.70</ele>
        <time>2013-12-23T11:24:16Z</time>
      </trkpt>
      <trkpt lat="41.584652000" lon="1.913279000">
        <ele>322.20</ele>
        <time>2013-12-23T11:24:48Z</time>
      </trkpt>
      <trkpt lat="41.584667000" lon="1.913271000">
        <ele>322.70</ele>
        <time>2013-12-23T11:24:51Z</time>
      </trkpt>
      <trkpt lat="41.584820000" lon="1.913455000">
        <ele>323.10</ele>
        <time>2013-12-23T11:25:02Z</time>
      </trkpt>
      <trkpt lat="41.584843000" lon="1.913486000">
        <ele>323.60</ele>
        <time>2013-12-23T11:25:05Z</time>
      </trkpt>
      <trkpt lat="41.584885000" lon="1.913586000">
        <ele>324.60</ele>
        <time>2013-12-23T11:25:10Z</time>
      </trkpt>
      <trkpt lat="41.585022000" lon="1.913657000">
        <ele>327.50</ele>
        <time>2013-12-23T11:25:21Z</time>
      </trkpt>
      <trkpt lat="41.585079000" lon="1.913592000">
        <ele>329.40</ele>
        <time>2013-12-23T11:25:31Z</time>
      </trkpt>
      <trkpt lat="41.585094000" lon="1.913564000">
        <ele>329.90</ele>
        <time>2013-12-23T11:25:38Z</time>
      </trkpt>
      <trkpt lat="41.585133000" lon="1.913551000">
        <ele>330.40</ele>
        <time>2013-12-23T11:25:42Z</time>
      </trkpt>
      <trkpt lat="41.585175000" lon="1.913589000">
        <ele>330.80</ele>
        <time>2013-12-23T11:25:47Z</time>
      </trkpt>
      <trkpt lat="41.585327000" lon="1.913597000">
        <ele>334.20</ele>
        <time>2013-12-23T11:25:56Z</time>
      </trkpt>
      <trkpt lat="41.585346000" lon="1.913602000">
        <ele>334.20</ele>
        <time>2013-12-23T11:25:57Z</time>
      </trkpt>
      <trkpt lat="41.585346000" lon="1.913696000">
        <ele>334.70</ele>
        <time>2013-12-23T11:26:03Z</time>
      </trkpt>
      <trkpt lat="41.585342000" lon="1.913814000">
        <ele>334.70</ele>
        <time>2013-12-23T11:26:08Z</time>
      </trkpt>
      <trkpt lat="41.585365000" lon="1.913892000">
        <ele>335.60</ele>
        <time>2013-12-23T11:26:18Z</time>
      </trkpt>
      <trkpt lat="41.585365000" lon="1.913892000">
        <ele>335.60</ele>
        <time>2013-12-23T11:26:20Z</time>
      </trkpt>
      <trkpt lat="41.585365000" lon="1.913873000">
        <ele>335.60</ele>
        <time>2013-12-23T11:26:22Z</time>
      </trkpt>
      <trkpt lat="41.585342000" lon="1.913803000">
        <ele>335.20</ele>
        <time>2013-12-23T11:26:25Z</time>
      </trkpt>
      <trkpt lat="41.585415000" lon="1.913560000">
        <ele>335.60</ele>
        <time>2013-12-23T11:26:36Z</time>
      </trkpt>
      <trkpt lat="41.585491000" lon="1.913523000">
        <ele>336.60</ele>
        <time>2013-12-23T11:26:41Z</time>
      </trkpt>
      <trkpt lat="41.585529000" lon="1.913483000">
        <ele>337.10</ele>
        <time>2013-12-23T11:26:43Z</time>
      </trkpt>
      <trkpt lat="41.585571000" lon="1.913429000">
        <ele>338.50</ele>
        <time>2013-12-23T11:26:48Z</time>
      </trkpt>
      <trkpt lat="41.585670000" lon="1.913213000">
        <ele>339.00</ele>
        <time>2013-12-23T11:26:58Z</time>
      </trkpt>
      <trkpt lat="41.585747000" lon="1.913097000">
        <ele>340.00</ele>
        <time>2013-12-23T11:27:05Z</time>
      </trkpt>
      <trkpt lat="41.585983000" lon="1.913028000">
        <ele>342.90</ele>
        <time>2013-12-23T11:27:21Z</time>
      </trkpt>
      <trkpt lat="41.586193000" lon="1.913079000">
        <ele>340.40</ele>
        <time>2013-12-23T11:27:28Z</time>
      </trkpt>
      <trkpt lat="41.586426000" lon="1.912987000">
        <ele>339.50</ele>
        <time>2013-12-23T11:27:33Z</time>
      </trkpt>
      <trkpt lat="41.586514000" lon="1.912933000">
        <ele>339.50</ele>
        <time>2013-12-23T11:27:35Z</time>
      </trkpt>
      <trkpt lat="41.586864000" lon="1.912908000">
        <ele>335.20</ele>
        <time>2013-12-23T11:27:40Z</time>
      </trkpt>
      <trkpt lat="41.587353000" lon="1.913130000">
        <ele>331.80</ele>
        <time>2013-12-23T11:27:47Z</time>
      </trkpt>
      <trkpt lat="41.587551000" lon="1.913213000">
        <ele>328.90</ele>
        <time>2013-12-23T11:27:51Z</time>
      </trkpt>
      <trkpt lat="41.587715000" lon="1.913035000">
        <ele>327.00</ele>
        <time>2013-12-23T11:27:56Z</time>
      </trkpt>
      <trkpt lat="41.587658000" lon="1.912863000">
        <ele>328.00</ele>
        <time>2013-12-23T11:28:03Z</time>
      </trkpt>
      <trkpt lat="41.587673000" lon="1.912794000">
        <ele>328.40</ele>
        <time>2013-12-23T11:28:06Z</time>
      </trkpt>
      <trkpt lat="41.587749000" lon="1.912922000">
        <ele>329.90</ele>
        <time>2013-12-23T11:28:17Z</time>
      </trkpt>
      <trkpt lat="41.587975000" lon="1.913303000">
        <ele>329.90</ele>
        <time>2013-12-23T11:28:31Z</time>
      </trkpt>
      <trkpt lat="41.588493000" lon="1.913621000">
        <ele>329.40</ele>
        <time>2013-12-23T11:28:46Z</time>
      </trkpt>
      <trkpt lat="41.589073000" lon="1.913833000">
        <ele>329.40</ele>
        <time>2013-12-23T11:29:00Z</time>
      </trkpt>
      <trkpt lat="41.589283000" lon="1.913809000">
        <ele>330.40</ele>
        <time>2013-12-23T11:29:04Z</time>
      </trkpt>
      <trkpt lat="41.589527000" lon="1.913741000">
        <ele>330.80</ele>
        <time>2013-12-23T11:29:11Z</time>
      </trkpt>
      <trkpt lat="41.589607000" lon="1.913722000">
        <ele>331.80</ele>
        <time>2013-12-23T11:29:12Z</time>
      </trkpt>
      <trkpt lat="41.589943000" lon="1.913454000">
        <ele>334.70</ele>
        <time>2013-12-23T11:29:23Z</time>
      </trkpt>
      <trkpt lat="41.590332000" lon="1.913108000">
        <ele>337.10</ele>
        <time>2013-12-23T11:29:35Z</time>
      </trkpt>
      <trkpt lat="41.590954000" lon="1.912828000">
        <ele>337.10</ele>
        <time>2013-12-23T11:29:53Z</time>
      </trkpt>
      <trkpt lat="41.591145000" lon="1.912792000">
        <ele>332.30</ele>
        <time>2013-12-23T11:29:56Z</time>
      </trkpt>
      <trkpt lat="41.591194000" lon="1.912788000">
        <ele>336.60</ele>
        <time>2013-12-23T11:29:58Z</time>
      </trkpt>
      <trkpt lat="41.591248000" lon="1.912786000">
        <ele>336.10</ele>
        <time>2013-12-23T11:29:58Z</time>
      </trkpt>
      <trkpt lat="41.591789000" lon="1.912921000">
        <ele>333.20</ele>
        <time>2013-12-23T11:30:08Z</time>
      </trkpt>
      <trkpt lat="41.591957000" lon="1.913141000">
        <ele>330.80</ele>
        <time>2013-12-23T11:30:12Z</time>
      </trkpt>
      <trkpt lat="41.592129000" lon="1.913476000">
        <ele>334.70</ele>
        <time>2013-12-23T11:30:20Z</time>
      </trkpt>
      <trkpt lat="41.592327000" lon="1.913520000">
        <ele>334.70</ele>
        <time>2013-12-23T11:30:26Z</time>
      </trkpt>
      <trkpt lat="41.592560000" lon="1.913248000">
        <ele>335.60</ele>
        <time>2013-12-23T11:30:34Z</time>
      </trkpt>
      <trkpt lat="41.592556000" lon="1.912972000">
        <ele>335.60</ele>
        <time>2013-12-23T11:30:38Z</time>
      </trkpt>
      <trkpt lat="41.592499000" lon="1.912769000">
        <ele>336.10</ele>
        <time>2013-12-23T11:30:43Z</time>
      </trkpt>
      <trkpt lat="41.592541000" lon="1.912512000">
        <ele>337.10</ele>
        <time>2013-12-23T11:30:48Z</time>
      </trkpt>
      <trkpt lat="41.592880000" lon="1.912341000">
        <ele>339.00</ele>
        <time>2013-12-23T11:30:59Z</time>
      </trkpt>
      <trkpt lat="41.592915000" lon="1.912363000">
        <ele>339.00</ele>
        <time>2013-12-23T11:30:59Z</time>
      </trkpt>
      <trkpt lat="41.593449000" lon="1.912865000">
        <ele>341.90</ele>
        <time>2013-12-23T11:31:16Z</time>
      </trkpt>
      <trkpt lat="41.593758000" lon="1.913143000">
        <ele>344.80</ele>
        <time>2013-12-23T11:31:27Z</time>
      </trkpt>
      <trkpt lat="41.594078000" lon="1.913109000">
        <ele>344.30</ele>
        <time>2013-12-23T11:31:37Z</time>
      </trkpt>
      <trkpt lat="41.594273000" lon="1.912748000">
        <ele>347.20</ele>
        <time>2013-12-23T11:31:48Z</time>
      </trkpt>
      <trkpt lat="41.594387000" lon="1.912546000">
        <ele>350.10</ele>
        <time>2013-12-23T11:31:56Z</time>
      </trkpt>
      <trkpt lat="41.594444000" lon="1.912487000">
        <ele>351.50</ele>
        <time>2013-12-23T11:31:58Z</time>
      </trkpt>
      <trkpt lat="41.594658000" lon="1.912587000">
        <ele>353.90</ele>
        <time>2013-12-23T11:32:08Z</time>
      </trkpt>
      <trkpt lat="41.594780000" lon="1.912618000">
        <ele>355.30</ele>
        <time>2013-12-23T11:32:14Z</time>
      </trkpt>
      <trkpt lat="41.594883000" lon="1.912621000">
        <ele>356.30</ele>
        <time>2013-12-23T11:32:19Z</time>
      </trkpt>
      <trkpt lat="41.595245000" lon="1.912470000">
        <ele>356.80</ele>
        <time>2013-12-23T11:32:33Z</time>
      </trkpt>
      <trkpt lat="41.595581000" lon="1.912515000">
        <ele>358.20</ele>
        <time>2013-12-23T11:32:45Z</time>
      </trkpt>
      <trkpt lat="41.595711000" lon="1.912530000">
        <ele>356.80</ele>
        <time>2013-12-23T11:32:55Z</time>
      </trkpt>
      <trkpt lat="41.595711000" lon="1.912530000">
        <ele>362.50</ele>
        <time>2013-12-23T11:33:01Z</time>
      </trkpt>
      <trkpt lat="41.595711000" lon="1.912530000">
        <ele>358.70</ele>
        <time>2013-12-23T11:33:04Z</time>
      </trkpt>
      <trkpt lat="41.595718000" lon="1.912521000">
        <ele>358.70</ele>
        <time>2013-12-23T11:33:09Z</time>
      </trkpt>
      <trkpt lat="41.595840000" lon="1.912303000">
        <ele>356.80</ele>
        <time>2013-12-23T11:33:16Z</time>
      </trkpt>
      <trkpt lat="41.595982000" lon="1.912182000">
        <ele>355.80</ele>
        <time>2013-12-23T11:33:20Z</time>
      </trkpt>
      <trkpt lat="41.596104000" lon="1.912049000">
        <ele>354.40</ele>
        <time>2013-12-23T11:33:23Z</time>
      </trkpt>
      <trkpt lat="41.596226000" lon="1.911829000">
        <ele>354.40</ele>
        <time>2013-12-23T11:33:27Z</time>
      </trkpt>
      <trkpt lat="41.596485000" lon="1.911796000">
        <ele>354.40</ele>
        <time>2013-12-23T11:33:34Z</time>
      </trkpt>
      <trkpt lat="41.596523000" lon="1.911798000">
        <ele>354.40</ele>
        <time>2013-12-23T11:33:36Z</time>
      </trkpt>
      <trkpt lat="41.596714000" lon="1.911806000">
        <ele>352.90</ele>
        <time>2013-12-23T11:33:39Z</time>
      </trkpt>
      <trkpt lat="41.596882000" lon="1.911858000">
        <ele>350.50</ele>
        <time>2013-12-23T11:33:44Z</time>
      </trkpt>
      <trkpt lat="41.597103000" lon="1.911795000">
        <ele>346.20</ele>
        <time>2013-12-23T11:33:48Z</time>
      </trkpt>
      <trkpt lat="41.597149000" lon="1.911750000">
        <ele>344.80</ele>
        <time>2013-12-23T11:33:51Z</time>
      </trkpt>
      <trkpt lat="41.597225000" lon="1.911714000">
        <ele>344.30</ele>
        <time>2013-12-23T11:33:55Z</time>
      </trkpt>
      <trkpt lat="41.597279000" lon="1.911696000">
        <ele>345.20</ele>
        <time>2013-12-23T11:33:58Z</time>
      </trkpt>
      <trkpt lat="41.597385000" lon="1.911683000">
        <ele>347.20</ele>
        <time>2013-12-23T11:34:09Z</time>
      </trkpt>
      <trkpt lat="41.597393000" lon="1.911681000">
        <ele>346.70</ele>
        <time>2013-12-23T11:34:17Z</time>
      </trkpt>
      <trkpt lat="41.597538000" lon="1.911475000">
        <ele>346.20</ele>
        <time>2013-12-23T11:34:26Z</time>
      </trkpt>
      <trkpt lat="41.597683000" lon="1.911387000">
        <ele>344.80</ele>
        <time>2013-12-23T11:34:31Z</time>
      </trkpt>
      <trkpt lat="41.597839000" lon="1.911286000">
        <ele>343.80</ele>
        <time>2013-12-23T11:34:35Z</time>
      </trkpt>
      <trkpt lat="41.598045000" lon="1.910930000">
        <ele>342.90</ele>
        <time>2013-12-23T11:34:45Z</time>
      </trkpt>
      <trkpt lat="41.598087000" lon="1.910863000">
        <ele>342.40</ele>
        <time>2013-12-23T11:34:47Z</time>
      </trkpt>
      <trkpt lat="41.598160000" lon="1.910803000">
        <ele>340.90</ele>
        <time>2013-12-23T11:34:50Z</time>
      </trkpt>
      <trkpt lat="41.598255000" lon="1.910778000">
        <ele>340.00</ele>
        <time>2013-12-23T11:34:54Z</time>
      </trkpt>
      <trkpt lat="41.598328000" lon="1.910750000">
        <ele>339.00</ele>
        <time>2013-12-23T11:34:56Z</time>
      </trkpt>
      <trkpt lat="41.598427000" lon="1.910697000">
        <ele>339.00</ele>
        <time>2013-12-23T11:34:59Z</time>
      </trkpt>
      <trkpt lat="41.598545000" lon="1.910696000">
        <ele>337.60</ele>
        <time>2013-12-23T11:35:06Z</time>
      </trkpt>
      <trkpt lat="41.598606000" lon="1.910689000">
        <ele>336.60</ele>
        <time>2013-12-23T11:35:08Z</time>
      </trkpt>
      <trkpt lat="41.598728000" lon="1.910618000">
        <ele>336.10</ele>
        <time>2013-12-23T11:35:13Z</time>
      </trkpt>
      <trkpt lat="41.598930000" lon="1.910623000">
        <ele>334.70</ele>
        <time>2013-12-23T11:35:18Z</time>
      </trkpt>
      <trkpt lat="41.599079000" lon="1.910663000">
        <ele>335.20</ele>
        <time>2013-12-23T11:35:22Z</time>
      </trkpt>
      <trkpt lat="41.599529000" lon="1.910748000">
        <ele>334.20</ele>
        <time>2013-12-23T11:35:32Z</time>
      </trkpt>
      <trkpt lat="41.599594000" lon="1.910522000">
        <ele>334.20</ele>
        <time>2013-12-23T11:35:39Z</time>
      </trkpt>
      <trkpt lat="41.599606000" lon="1.910444000">
        <ele>334.20</ele>
        <time>2013-12-23T11:35:41Z</time>
      </trkpt>
      <trkpt lat="41.599609000" lon="1.910372000">
        <ele>334.70</ele>
        <time>2013-12-23T11:35:43Z</time>
      </trkpt>
      <trkpt lat="41.599583000" lon="1.910279000">
        <ele>335.20</ele>
        <time>2013-12-23T11:35:46Z</time>
      </trkpt>
      <trkpt lat="41.599506000" lon="1.910160000">
        <ele>335.60</ele>
        <time>2013-12-23T11:35:53Z</time>
      </trkpt>
      <trkpt lat="41.599384000" lon="1.910027000">
        <ele>336.60</ele>
        <time>2013-12-23T11:36:00Z</time>
      </trkpt>
      <trkpt lat="41.599335000" lon="1.909942000">
        <ele>338.00</ele>
        <time>2013-12-23T11:36:05Z</time>
      </trkpt>
      <trkpt lat="41.599300000" lon="1.909884000">
        <ele>337.60</ele>
        <time>2013-12-23T11:36:09Z</time>
      </trkpt>
      <trkpt lat="41.599285000" lon="1.909852000">
        <ele>337.60</ele>
        <time>2013-12-23T11:36:12Z</time>
      </trkpt>
      <trkpt lat="41.599236000" lon="1.909583000">
        <ele>339.00</ele>
        <time>2013-12-23T11:36:23Z</time>
      </trkpt>
      <trkpt lat="41.599220000" lon="1.909471000">
        <ele>339.50</ele>
        <time>2013-12-23T11:36:28Z</time>
      </trkpt>
      <trkpt lat="41.599270000" lon="1.909351000">
        <ele>339.50</ele>
        <time>2013-12-23T11:36:31Z</time>
      </trkpt>
      <trkpt lat="41.599361000" lon="1.909214000">
        <ele>339.50</ele>
        <time>2013-12-23T11:36:37Z</time>
      </trkpt>
      <trkpt lat="41.599438000" lon="1.909070000">
        <ele>339.00</ele>
        <time>2013-12-23T11:36:40Z</time>
      </trkpt>
      <trkpt lat="41.599480000" lon="1.909012000">
        <ele>339.00</ele>
        <time>2013-12-23T11:36:42Z</time>
      </trkpt>
      <trkpt lat="41.599525000" lon="1.908880000">
        <ele>338.50</ele>
        <time>2013-12-23T11:36:45Z</time>
      </trkpt>
      <trkpt lat="41.599548000" lon="1.908764000">
        <ele>339.00</ele>
        <time>2013-12-23T11:36:47Z</time>
      </trkpt>
      <trkpt lat="41.599640000" lon="1.908283000">
        <ele>339.50</ele>
        <time>2013-12-23T11:36:59Z</time>
      </trkpt>
      <trkpt lat="41.599777000" lon="1.908108000">
        <ele>338.00</ele>
        <time>2013-12-23T11:37:06Z</time>
      </trkpt>
      <trkpt lat="41.599758000" lon="1.907870000">
        <ele>337.10</ele>
        <time>2013-12-23T11:37:15Z</time>
      </trkpt>
      <trkpt lat="41.599724000" lon="1.907759000">
        <ele>337.60</ele>
        <time>2013-12-23T11:37:20Z</time>
      </trkpt>
      <trkpt lat="41.599667000" lon="1.907396000">
        <ele>336.60</ele>
        <time>2013-12-23T11:37:31Z</time>
      </trkpt>
      <trkpt lat="41.599655000" lon="1.907214000">
        <ele>335.60</ele>
        <time>2013-12-23T11:37:34Z</time>
      </trkpt>
      <trkpt lat="41.599625000" lon="1.907128000">
        <ele>336.10</ele>
        <time>2013-12-23T11:37:36Z</time>
      </trkpt>
      <trkpt lat="41.599567000" lon="1.906765000">
        <ele>335.20</ele>
        <time>2013-12-23T11:37:46Z</time>
      </trkpt>
      <trkpt lat="41.599377000" lon="1.906569000">
        <ele>334.20</ele>
        <time>2013-12-23T11:37:55Z</time>
      </trkpt>
      <trkpt lat="41.599133000" lon="1.906308000">
        <ele>334.20</ele>
        <time>2013-12-23T11:38:04Z</time>
      </trkpt>
      <trkpt lat="41.598831000" lon="1.905946000">
        <ele>332.80</ele>
        <time>2013-12-23T11:38:14Z</time>
      </trkpt>
      <trkpt lat="41.598766000" lon="1.905739000">
        <ele>333.20</ele>
        <time>2013-12-23T11:38:19Z</time>
      </trkpt>
      <trkpt lat="41.598602000" lon="1.905572000">
        <ele>331.30</ele>
        <time>2013-12-23T11:38:28Z</time>
      </trkpt>
      <trkpt lat="41.598507000" lon="1.905577000">
        <ele>331.30</ele>
        <time>2013-12-23T11:38:30Z</time>
      </trkpt>
      <trkpt lat="41.598473000" lon="1.905569000">
        <ele>330.80</ele>
        <time>2013-12-23T11:38:42Z</time>
      </trkpt>
      <trkpt lat="41.598469000" lon="1.905578000">
        <ele>331.30</ele>
        <time>2013-12-23T11:38:44Z</time>
      </trkpt>
      <trkpt lat="41.598427000" lon="1.905602000">
        <ele>331.30</ele>
        <time>2013-12-23T11:38:47Z</time>
      </trkpt>
      <trkpt lat="41.598293000" lon="1.905414000">
        <ele>329.40</ele>
        <time>2013-12-23T11:38:53Z</time>
      </trkpt>
      <trkpt lat="41.598003000" lon="1.905457000">
        <ele>327.50</ele>
        <time>2013-12-23T11:39:01Z</time>
      </trkpt>
      <trkpt lat="41.597740000" lon="1.905768000">
        <ele>327.00</ele>
        <time>2013-12-23T11:39:10Z</time>
      </trkpt>
      <trkpt lat="41.597569000" lon="1.905740000">
        <ele>326.00</ele>
        <time>2013-12-23T11:39:13Z</time>
      </trkpt>
      <trkpt lat="41.597500000" lon="1.905682000">
        <ele>326.00</ele>
        <time>2013-12-23T11:39:15Z</time>
      </trkpt>
      <trkpt lat="41.597351000" lon="1.905597000">
        <ele>325.50</ele>
        <time>2013-12-23T11:39:19Z</time>
      </trkpt>
      <trkpt lat="41.597244000" lon="1.905573000">
        <ele>325.50</ele>
        <time>2013-12-23T11:39:22Z</time>
      </trkpt>
      <trkpt lat="41.596943000" lon="1.905585000">
        <ele>323.10</ele>
        <time>2013-12-23T11:39:31Z</time>
      </trkpt>
      <trkpt lat="41.596878000" lon="1.905561000">
        <ele>322.70</ele>
        <time>2013-12-23T11:39:33Z</time>
      </trkpt>
      <trkpt lat="41.596828000" lon="1.905504000">
        <ele>322.20</ele>
        <time>2013-12-23T11:39:34Z</time>
      </trkpt>
      <trkpt lat="41.596802000" lon="1.905387000">
        <ele>321.20</ele>
        <time>2013-12-23T11:39:38Z</time>
      </trkpt>
      <trkpt lat="41.596767000" lon="1.905295000">
        <ele>320.70</ele>
        <time>2013-12-23T11:39:41Z</time>
      </trkpt>
      <trkpt lat="41.596806000" lon="1.905158000">
        <ele>319.30</ele>
        <time>2013-12-23T11:39:45Z</time>
      </trkpt>
      <trkpt lat="41.596806000" lon="1.904795000">
        <ele>316.90</ele>
        <time>2013-12-23T11:39:57Z</time>
      </trkpt>
      <trkpt lat="41.596790000" lon="1.904711000">
        <ele>316.90</ele>
        <time>2013-12-23T11:39:59Z</time>
      </trkpt>
      <trkpt lat="41.596722000" lon="1.904565000">
        <ele>316.90</ele>
        <time>2013-12-23T11:40:04Z</time>
      </trkpt>
      <trkpt lat="41.596695000" lon="1.904378000">
        <ele>316.40</ele>
        <time>2013-12-23T11:40:07Z</time>
      </trkpt>
      <trkpt lat="41.596596000" lon="1.904060000">
        <ele>314.50</ele>
        <time>2013-12-23T11:40:14Z</time>
      </trkpt>
      <trkpt lat="41.596550000" lon="1.903910000">
        <ele>314.50</ele>
        <time>2013-12-23T11:40:18Z</time>
      </trkpt>
      <trkpt lat="41.596523000" lon="1.903795000">
        <ele>314.00</ele>
        <time>2013-12-23T11:40:20Z</time>
      </trkpt>
      <trkpt lat="41.596390000" lon="1.903337000">
        <ele>313.00</ele>
        <time>2013-12-23T11:40:30Z</time>
      </trkpt>
      <trkpt lat="41.596367000" lon="1.903286000">
        <ele>312.10</ele>
        <time>2013-12-23T11:40:30Z</time>
      </trkpt>
      <trkpt lat="41.596130000" lon="1.903004000">
        <ele>311.60</ele>
        <time>2013-12-23T11:40:37Z</time>
      </trkpt>
      <trkpt lat="41.595993000" lon="1.902752000">
        <ele>309.20</ele>
        <time>2013-12-23T11:40:44Z</time>
      </trkpt>
      <trkpt lat="41.595924000" lon="1.902681000">
        <ele>308.70</ele>
        <time>2013-12-23T11:40:46Z</time>
      </trkpt>
      <trkpt lat="41.595894000" lon="1.902590000">
        <ele>307.30</ele>
        <time>2013-12-23T11:40:49Z</time>
      </trkpt>
      <trkpt lat="41.595940000" lon="1.902292000">
        <ele>304.90</ele>
        <time>2013-12-23T11:40:53Z</time>
      </trkpt>
      <trkpt lat="41.596107000" lon="1.901942000">
        <ele>301.00</ele>
        <time>2013-12-23T11:41:00Z</time>
      </trkpt>
      <trkpt lat="41.596302000" lon="1.901774000">
        <ele>299.60</ele>
        <time>2013-12-23T11:41:03Z</time>
      </trkpt>
      <trkpt lat="41.596382000" lon="1.901688000">
        <ele>299.10</ele>
        <time>2013-12-23T11:41:05Z</time>
      </trkpt>
      <trkpt lat="41.596653000" lon="1.901405000">
        <ele>295.70</ele>
        <time>2013-12-23T11:41:14Z</time>
      </trkpt>
      <trkpt lat="41.596775000" lon="1.901203000">
        <ele>293.80</ele>
        <time>2013-12-23T11:41:24Z</time>
      </trkpt>
      <trkpt lat="41.596798000" lon="1.901168000">
        <ele>293.80</ele>
        <time>2013-12-23T11:41:24Z</time>
      </trkpt>
      <trkpt lat="41.596832000" lon="1.901122000">
        <ele>293.30</ele>
        <time>2013-12-23T11:41:26Z</time>
      </trkpt>
      <trkpt lat="41.596958000" lon="1.900948000">
        <ele>290.90</ele>
        <time>2013-12-23T11:41:35Z</time>
      </trkpt>
      <trkpt lat="41.596973000" lon="1.900840000">
        <ele>290.50</ele>
        <time>2013-12-23T11:41:38Z</time>
      </trkpt>
      <trkpt lat="41.596970000" lon="1.900727000">
        <ele>290.00</ele>
        <time>2013-12-23T11:41:40Z</time>
      </trkpt>
      <trkpt lat="41.597015000" lon="1.900600000">
        <ele>287.60</ele>
        <time>2013-12-23T11:41:45Z</time>
      </trkpt>
      <trkpt lat="41.597057000" lon="1.900643000">
        <ele>287.60</ele>
        <time>2013-12-23T11:41:47Z</time>
      </trkpt>
      <trkpt lat="41.597321000" lon="1.900918000">
        <ele>287.10</ele>
        <time>2013-12-23T11:41:59Z</time>
      </trkpt>
      <trkpt lat="41.597427000" lon="1.900973000">
        <ele>286.60</ele>
        <time>2013-12-23T11:42:01Z</time>
      </trkpt>
      <trkpt lat="41.597664000" lon="1.900817000">
        <ele>287.10</ele>
        <time>2013-12-23T11:42:09Z</time>
      </trkpt>
      <trkpt lat="41.597813000" lon="1.900263000">
        <ele>289.50</ele>
        <time>2013-12-23T11:42:22Z</time>
      </trkpt>
      <trkpt lat="41.598129000" lon="1.900086000">
        <ele>290.00</ele>
        <time>2013-12-23T11:42:30Z</time>
      </trkpt>
      <trkpt lat="41.598217000" lon="1.900100000">
        <ele>290.00</ele>
        <time>2013-12-23T11:42:32Z</time>
      </trkpt>
      <trkpt lat="41.598461000" lon="1.900199000">
        <ele>290.90</ele>
        <time>2013-12-23T11:42:39Z</time>
      </trkpt>
      <trkpt lat="41.598644000" lon="1.900339000">
        <ele>289.50</ele>
        <time>2013-12-23T11:42:42Z</time>
      </trkpt>
      <trkpt lat="41.598751000" lon="1.900499000">
        <ele>289.00</ele>
        <time>2013-12-23T11:42:46Z</time>
      </trkpt>
      <trkpt lat="41.598858000" lon="1.900716000">
        <ele>289.00</ele>
        <time>2013-12-23T11:42:49Z</time>
      </trkpt>
      <trkpt lat="41.599003000" lon="1.900961000">
        <ele>290.50</ele>
        <time>2013-12-23T11:42:55Z</time>
      </trkpt>
      <trkpt lat="41.599087000" lon="1.901091000">
        <ele>290.50</ele>
        <time>2013-12-23T11:42:58Z</time>
      </trkpt>
      <trkpt lat="41.599434000" lon="1.901139000">
        <ele>290.50</ele>
        <time>2013-12-23T11:43:07Z</time>
      </trkpt>
      <trkpt lat="41.599499000" lon="1.900739000">
        <ele>290.50</ele>
        <time>2013-12-23T11:43:14Z</time>
      </trkpt>
      <trkpt lat="41.599388000" lon="1.900468000">
        <ele>290.90</ele>
        <time>2013-12-23T11:43:21Z</time>
      </trkpt>
      <trkpt lat="41.599415000" lon="1.900419000">
        <ele>291.40</ele>
        <time>2013-12-23T11:43:21Z</time>
      </trkpt>
      <trkpt lat="41.599598000" lon="1.900072000">
        <ele>293.80</ele>
        <time>2013-12-23T11:43:28Z</time>
      </trkpt>
      <trkpt lat="41.599636000" lon="1.899957000">
        <ele>294.30</ele>
        <time>2013-12-23T11:43:31Z</time>
      </trkpt>
      <trkpt lat="41.599792000" lon="1.899756000">
        <ele>295.70</ele>
        <time>2013-12-23T11:43:35Z</time>
      </trkpt>
      <trkpt lat="41.599884000" lon="1.899570000">
        <ele>296.20</ele>
        <time>2013-12-23T11:43:40Z</time>
      </trkpt>
      <trkpt lat="41.599998000" lon="1.899416000">
        <ele>297.70</ele>
        <time>2013-12-23T11:43:43Z</time>
      </trkpt>
      <trkpt lat="41.600296000" lon="1.899172000">
        <ele>300.10</ele>
        <time>2013-12-23T11:43:54Z</time>
      </trkpt>
      <trkpt lat="41.600441000" lon="1.899104000">
        <ele>299.60</ele>
        <time>2013-12-23T11:43:59Z</time>
      </trkpt>
      <trkpt lat="41.600601000" lon="1.898946000">
        <ele>299.10</ele>
        <time>2013-12-23T11:44:04Z</time>
      </trkpt>
      <trkpt lat="41.600658000" lon="1.898801000">
        <ele>299.60</ele>
        <time>2013-12-23T11:44:06Z</time>
      </trkpt>
      <trkpt lat="41.600834000" lon="1.898532000">
        <ele>301.50</ele>
        <time>2013-12-23T11:44:15Z</time>
      </trkpt>
      <trkpt lat="41.600918000" lon="1.898460000">
        <ele>300.50</ele>
        <time>2013-12-23T11:44:18Z</time>
      </trkpt>
      <trkpt lat="41.601101000" lon="1.898195000">
        <ele>299.10</ele>
        <time>2013-12-23T11:44:27Z</time>
      </trkpt>
      <trkpt lat="41.601238000" lon="1.898077000">
        <ele>296.70</ele>
        <time>2013-12-23T11:44:30Z</time>
      </trkpt>
      <trkpt lat="41.601513000" lon="1.897893000">
        <ele>294.80</ele>
        <time>2013-12-23T11:44:36Z</time>
      </trkpt>
      <trkpt lat="41.601917000" lon="1.897592000">
        <ele>291.40</ele>
        <time>2013-12-23T11:44:44Z</time>
      </trkpt>
      <trkpt lat="41.602039000" lon="1.897533000">
        <ele>290.50</ele>
        <time>2013-12-23T11:44:46Z</time>
      </trkpt>
      <trkpt lat="41.602135000" lon="1.897483000">
        <ele>290.00</ele>
        <time>2013-12-23T11:44:48Z</time>
      </trkpt>
      <trkpt lat="41.602268000" lon="1.897439000">
        <ele>289.00</ele>
        <time>2013-12-23T11:44:51Z</time>
      </trkpt>
      <trkpt lat="41.602386000" lon="1.897486000">
        <ele>286.10</ele>
        <time>2013-12-23T11:44:57Z</time>
      </trkpt>
      <trkpt lat="41.602409000" lon="1.897486000">
        <ele>286.10</ele>
        <time>2013-12-23T11:44:58Z</time>
      </trkpt>
      <trkpt lat="41.602825000" lon="1.897299000">
        <ele>282.30</ele>
        <time>2013-12-23T11:45:07Z</time>
      </trkpt>
      <trkpt lat="41.603127000" lon="1.896773000">
        <ele>279.90</ele>
        <time>2013-12-23T11:45:14Z</time>
      </trkpt>
      <trkpt lat="41.603123000" lon="1.896446000">
        <ele>279.40</ele>
        <time>2013-12-23T11:45:18Z</time>
      </trkpt>
      <trkpt lat="41.603065000" lon="1.896180000">
        <ele>280.40</ele>
        <time>2013-12-23T11:45:19Z</time>
      </trkpt>
      <trkpt lat="41.602776000" lon="1.895689000">
        <ele>280.80</ele>
        <time>2013-12-23T11:45:26Z</time>
      </trkpt>
      <trkpt lat="41.602489000" lon="1.895487000">
        <ele>279.90</ele>
        <time>2013-12-23T11:45:30Z</time>
      </trkpt>
      <trkpt lat="41.602180000" lon="1.894911000">
        <ele>276.00</ele>
        <time>2013-12-23T11:45:37Z</time>
      </trkpt>
      <trkpt lat="41.602112000" lon="1.894691000">
        <ele>274.60</ele>
        <time>2013-12-23T11:45:38Z</time>
      </trkpt>
      <trkpt lat="41.601856000" lon="1.894396000">
        <ele>271.70</ele>
        <time>2013-12-23T11:45:45Z</time>
      </trkpt>
      <trkpt lat="41.601757000" lon="1.894229000">
        <ele>270.80</ele>
        <time>2013-12-23T11:45:52Z</time>
      </trkpt>
      <trkpt lat="41.601715000" lon="1.894044000">
        <ele>270.30</ele>
        <time>2013-12-23T11:46:01Z</time>
      </trkpt>
      <trkpt lat="41.601593000" lon="1.894029000">
        <ele>268.80</ele>
        <time>2013-12-23T11:46:08Z</time>
      </trkpt>
      <trkpt lat="41.601616000" lon="1.893942000">
        <ele>268.40</ele>
        <time>2013-12-23T11:46:10Z</time>
      </trkpt>
      <trkpt lat="41.601875000" lon="1.893611000">
        <ele>264.00</ele>
        <time>2013-12-23T11:46:15Z</time>
      </trkpt>
      <trkpt lat="41.602001000" lon="1.893453000">
        <ele>262.10</ele>
        <time>2013-12-23T11:46:17Z</time>
      </trkpt>
      <trkpt lat="41.602257000" lon="1.893088000">
        <ele>258.20</ele>
        <time>2013-12-23T11:46:22Z</time>
      </trkpt>
      <trkpt lat="41.602463000" lon="1.892768000">
        <ele>254.90</ele>
        <time>2013-12-23T11:46:24Z</time>
      </trkpt>
      <trkpt lat="41.602528000" lon="1.892665000">
        <ele>254.40</ele>
        <time>2013-12-23T11:46:25Z</time>
      </trkpt>
      <trkpt lat="41.602741000" lon="1.891976000">
        <ele>251.00</ele>
        <time>2013-12-23T11:46:31Z</time>
      </trkpt>
      <trkpt lat="41.602821000" lon="1.891603000">
        <ele>249.10</ele>
        <time>2013-12-23T11:46:34Z</time>
      </trkpt>
      <trkpt lat="41.602859000" lon="1.891424000">
        <ele>248.60</ele>
        <time>2013-12-23T11:46:36Z</time>
      </trkpt>
      <trkpt lat="41.602882000" lon="1.891147000">
        <ele>249.60</ele>
        <time>2013-12-23T11:46:41Z</time>
      </trkpt>
      <trkpt lat="41.602913000" lon="1.890637000">
        <ele>248.20</ele>
        <time>2013-12-23T11:46:48Z</time>
      </trkpt>
      <trkpt lat="41.603012000" lon="1.890210000">
        <ele>247.20</ele>
        <time>2013-12-23T11:46:53Z</time>
      </trkpt>
      <trkpt lat="41.603123000" lon="1.889992000">
        <ele>245.80</ele>
        <time>2013-12-23T11:46:57Z</time>
      </trkpt>
      <trkpt lat="41.603401000" lon="1.889525000">
        <ele>242.40</ele>
        <time>2013-12-23T11:47:02Z</time>
      </trkpt>
      <trkpt lat="41.603489000" lon="1.889377000">
        <ele>243.40</ele>
        <time>2013-12-23T11:47:04Z</time>
      </trkpt>
      <trkpt lat="41.603836000" lon="1.888982000">
        <ele>240.90</ele>
        <time>2013-12-23T11:47:11Z</time>
      </trkpt>
      <trkpt lat="41.604076000" lon="1.888749000">
        <ele>239.00</ele>
        <time>2013-12-23T11:47:16Z</time>
      </trkpt>
      <trkpt lat="41.604160000" lon="1.888638000">
        <ele>238.10</ele>
        <time>2013-12-23T11:47:18Z</time>
      </trkpt>
      <trkpt lat="41.604202000" lon="1.888373000">
        <ele>238.10</ele>
        <time>2013-12-23T11:47:21Z</time>
      </trkpt>
      <trkpt lat="41.604248000" lon="1.888079000">
        <ele>236.60</ele>
        <time>2013-12-23T11:47:25Z</time>
      </trkpt>
      <trkpt lat="41.604286000" lon="1.887774000">
        <ele>236.60</ele>
        <time>2013-12-23T11:47:30Z</time>
      </trkpt>
      <trkpt lat="41.604282000" lon="1.887560000">
        <ele>237.60</ele>
        <time>2013-12-23T11:47:33Z</time>
      </trkpt>
      <trkpt lat="41.604378000" lon="1.886800000">
        <ele>236.10</ele>
        <time>2013-12-23T11:47:42Z</time>
      </trkpt>
      <trkpt lat="41.604389000" lon="1.886578000">
        <ele>236.60</ele>
        <time>2013-12-23T11:47:46Z</time>
      </trkpt>
      <trkpt lat="41.604382000" lon="1.886433000">
        <ele>236.60</ele>
        <time>2013-12-23T11:47:47Z</time>
      </trkpt>
      <trkpt lat="41.604458000" lon="1.885843000">
        <ele>236.10</ele>
        <time>2013-12-23T11:47:56Z</time>
      </trkpt>
      <trkpt lat="41.604446000" lon="1.885602000">
        <ele>235.70</ele>
        <time>2013-12-23T11:47:58Z</time>
      </trkpt>
      <trkpt lat="41.604248000" lon="1.885139000">
        <ele>234.70</ele>
        <time>2013-12-23T11:48:05Z</time>
      </trkpt>
      <trkpt lat="41.604206000" lon="1.884695000">
        <ele>229.90</ele>
        <time>2013-12-23T11:48:10Z</time>
      </trkpt>
      <trkpt lat="41.604412000" lon="1.884344000">
        <ele>227.00</ele>
        <time>2013-12-23T11:48:15Z</time>
      </trkpt>
      <trkpt lat="41.604534000" lon="1.884021000">
        <ele>223.60</ele>
        <time>2013-12-23T11:48:17Z</time>
      </trkpt>
      <trkpt lat="41.604561000" lon="1.883890000">
        <ele>222.20</ele>
        <time>2013-12-23T11:48:19Z</time>
      </trkpt>
      <trkpt lat="41.604645000" lon="1.883486000">
        <ele>220.30</ele>
        <time>2013-12-23T11:48:22Z</time>
      </trkpt>
      <trkpt lat="41.604691000" lon="1.882965000">
        <ele>218.40</ele>
        <time>2013-12-23T11:48:26Z</time>
      </trkpt>
      <trkpt lat="41.604691000" lon="1.882852000">
        <ele>217.90</ele>
        <time>2013-12-23T11:48:26Z</time>
      </trkpt>
      <trkpt lat="41.604618000" lon="1.882442000">
        <ele>213.60</ele>
        <time>2013-12-23T11:48:31Z</time>
      </trkpt>
      <trkpt lat="41.604603000" lon="1.881962000">
        <ele>212.60</ele>
        <time>2013-12-23T11:48:36Z</time>
      </trkpt>
      <trkpt lat="41.604530000" lon="1.881720000">
        <ele>212.10</ele>
        <time>2013-12-23T11:48:38Z</time>
      </trkpt>
      <trkpt lat="41.604263000" lon="1.880755000">
        <ele>213.10</ele>
        <time>2013-12-23T11:48:50Z</time>
      </trkpt>
      <trkpt lat="41.604187000" lon="1.880278000">
        <ele>214.00</ele>
        <time>2013-12-23T11:48:57Z</time>
      </trkpt>
      <trkpt lat="41.604134000" lon="1.879973000">
        <ele>214.00</ele>
        <time>2013-12-23T11:49:00Z</time>
      </trkpt>
      <trkpt lat="41.604149000" lon="1.879682000">
        <ele>215.50</ele>
        <time>2013-12-23T11:49:06Z</time>
      </trkpt>
      <trkpt lat="41.604248000" lon="1.879632000">
        <ele>215.90</ele>
        <time>2013-12-23T11:49:13Z</time>
      </trkpt>
      <trkpt lat="41.604481000" lon="1.879891000">
        <ele>218.80</ele>
        <time>2013-12-23T11:49:25Z</time>
      </trkpt>
      <trkpt lat="41.604824000" lon="1.879959000">
        <ele>221.20</ele>
        <time>2013-12-23T11:49:37Z</time>
      </trkpt>
      <trkpt lat="41.605236000" lon="1.879800000">
        <ele>224.10</ele>
        <time>2013-12-23T11:49:51Z</time>
      </trkpt>
      <trkpt lat="41.605560000" lon="1.879860000">
        <ele>226.50</ele>
        <time>2013-12-23T11:50:03Z</time>
      </trkpt>
      <trkpt lat="41.605892000" lon="1.880123000">
        <ele>228.90</ele>
        <time>2013-12-23T11:50:15Z</time>
      </trkpt>
      <trkpt lat="41.606163000" lon="1.880323000">
        <ele>231.80</ele>
        <time>2013-12-23T11:50:28Z</time>
      </trkpt>
      <trkpt lat="41.606365000" lon="1.880485000">
        <ele>235.20</ele>
        <time>2013-12-23T11:50:38Z</time>
      </trkpt>
      <trkpt lat="41.606400000" lon="1.880495000">
        <ele>236.10</ele>
        <time>2013-12-23T11:50:40Z</time>
      </trkpt>
      <trkpt lat="41.606529000" lon="1.880582000">
        <ele>238.50</ele>
        <time>2013-12-23T11:50:47Z</time>
      </trkpt>
      <trkpt lat="41.606632000" lon="1.880692000">
        <ele>240.50</ele>
        <time>2013-12-23T11:50:54Z</time>
      </trkpt>
      <trkpt lat="41.606674000" lon="1.880866000">
        <ele>242.40</ele>
        <time>2013-12-23T11:51:01Z</time>
      </trkpt>
      <trkpt lat="41.606701000" lon="1.881012000">
        <ele>244.30</ele>
        <time>2013-12-23T11:51:06Z</time>
      </trkpt>
      <trkpt lat="41.606712000" lon="1.881071000">
        <ele>245.80</ele>
        <time>2013-12-23T11:51:09Z</time>
      </trkpt>
      <trkpt lat="41.606750000" lon="1.881349000">
        <ele>248.20</ele>
        <time>2013-12-23T11:51:23Z</time>
      </trkpt>
      <trkpt lat="41.606754000" lon="1.881372000">
        <ele>249.10</ele>
        <time>2013-12-23T11:51:23Z</time>
      </trkpt>
      <trkpt lat="41.606831000" lon="1.881741000">
        <ele>250.10</ele>
        <time>2013-12-23T11:51:37Z</time>
      </trkpt>
      <trkpt lat="41.606934000" lon="1.882051000">
        <ele>248.20</ele>
        <time>2013-12-23T11:51:46Z</time>
      </trkpt>
      <trkpt lat="41.606991000" lon="1.882171000">
        <ele>246.70</ele>
        <time>2013-12-23T11:51:48Z</time>
      </trkpt>
      <trkpt lat="41.607079000" lon="1.882261000">
        <ele>246.70</ele>
        <time>2013-12-23T11:51:49Z</time>
      </trkpt>
      <trkpt lat="41.607399000" lon="1.882599000">
        <ele>244.30</ele>
        <time>2013-12-23T11:51:56Z</time>
      </trkpt>
      <trkpt lat="41.607929000" lon="1.883246000">
        <ele>242.90</ele>
        <time>2013-12-23T11:52:09Z</time>
      </trkpt>
      <trkpt lat="41.607952000" lon="1.883286000">
        <ele>243.40</ele>
        <time>2013-12-23T11:52:10Z</time>
      </trkpt>
      <trkpt lat="41.608040000" lon="1.883846000">
        <ele>246.70</ele>
        <time>2013-12-23T11:52:23Z</time>
      </trkpt>
      <trkpt lat="41.608074000" lon="1.883977000">
        <ele>247.20</ele>
        <time>2013-12-23T11:52:26Z</time>
      </trkpt>
      <trkpt lat="41.608471000" lon="1.884431000">
        <ele>251.00</ele>
        <time>2013-12-23T11:52:42Z</time>
      </trkpt>
      <trkpt lat="41.608715000" lon="1.884658000">
        <ele>253.00</ele>
        <time>2013-12-23T11:52:52Z</time>
      </trkpt>
      <trkpt lat="41.608906000" lon="1.884926000">
        <ele>253.40</ele>
        <time>2013-12-23T11:53:01Z</time>
      </trkpt>
      <trkpt lat="41.609055000" lon="1.885143000">
        <ele>252.00</ele>
        <time>2013-12-23T11:53:06Z</time>
      </trkpt>
      <trkpt lat="41.609173000" lon="1.885333000">
        <ele>251.50</ele>
        <time>2013-12-23T11:53:10Z</time>
      </trkpt>
      <trkpt lat="41.609253000" lon="1.885759000">
        <ele>250.60</ele>
        <time>2013-12-23T11:53:17Z</time>
      </trkpt>
      <trkpt lat="41.609295000" lon="1.885878000">
        <ele>250.60</ele>
        <time>2013-12-23T11:53:18Z</time>
      </trkpt>
      <trkpt lat="41.609386000" lon="1.886031000">
        <ele>250.60</ele>
        <time>2013-12-23T11:53:22Z</time>
      </trkpt>
      <trkpt lat="41.609581000" lon="1.886185000">
        <ele>249.10</ele>
        <time>2013-12-23T11:53:25Z</time>
      </trkpt>
      <trkpt lat="41.609749000" lon="1.886274000">
        <ele>247.70</ele>
        <time>2013-12-23T11:53:29Z</time>
      </trkpt>
      <trkpt lat="41.610214000" lon="1.886035000">
        <ele>243.80</ele>
        <time>2013-12-23T11:53:36Z</time>
      </trkpt>
      <trkpt lat="41.610275000" lon="1.885989000">
        <ele>243.40</ele>
        <time>2013-12-23T11:53:37Z</time>
      </trkpt>
      <trkpt lat="41.610397000" lon="1.885867000">
        <ele>241.90</ele>
        <time>2013-12-23T11:53:39Z</time>
      </trkpt>
      <trkpt lat="41.610790000" lon="1.885854000">
        <ele>238.50</ele>
        <time>2013-12-23T11:53:46Z</time>
      </trkpt>
      <trkpt lat="41.610989000" lon="1.886000000">
        <ele>237.10</ele>
        <time>2013-12-23T11:53:48Z</time>
      </trkpt>
      <trkpt lat="41.611191000" lon="1.886132000">
        <ele>236.10</ele>
        <time>2013-12-23T11:53:51Z</time>
      </trkpt>
      <trkpt lat="41.611439000" lon="1.886328000">
        <ele>235.20</ele>
        <time>2013-12-23T11:53:55Z</time>
      </trkpt>
      <trkpt lat="41.611839000" lon="1.886873000">
        <ele>231.80</ele>
        <time>2013-12-23T11:54:05Z</time>
      </trkpt>
      <trkpt lat="41.611881000" lon="1.886951000">
        <ele>231.30</ele>
        <time>2013-12-23T11:54:05Z</time>
      </trkpt>
      <trkpt lat="41.612240000" lon="1.887020000">
        <ele>226.50</ele>
        <time>2013-12-23T11:54:11Z</time>
      </trkpt>
      <trkpt lat="41.612564000" lon="1.886864000">
        <ele>223.20</ele>
        <time>2013-12-23T11:54:14Z</time>
      </trkpt>
      <trkpt lat="41.612835000" lon="1.887065000">
        <ele>221.20</ele>
        <time>2013-12-23T11:54:19Z</time>
      </trkpt>
      <trkpt lat="41.612862000" lon="1.887475000">
        <ele>218.40</ele>
        <time>2013-12-23T11:54:23Z</time>
      </trkpt>
      <trkpt lat="41.612827000" lon="1.887675000">
        <ele>216.40</ele>
        <time>2013-12-23T11:54:26Z</time>
      </trkpt>
      <trkpt lat="41.612778000" lon="1.887860000">
        <ele>215.50</ele>
        <time>2013-12-23T11:54:28Z</time>
      </trkpt>
      <trkpt lat="41.612980000" lon="1.888342000">
        <ele>211.60</ele>
        <time>2013-12-23T11:54:33Z</time>
      </trkpt>
      <trkpt lat="41.613049000" lon="1.888383000">
        <ele>211.10</ele>
        <time>2013-12-23T11:54:35Z</time>
      </trkpt>
      <trkpt lat="41.613358000" lon="1.888541000">
        <ele>211.60</ele>
        <time>2013-12-23T11:54:40Z</time>
      </trkpt>
      <trkpt lat="41.613762000" lon="1.889080000">
        <ele>210.70</ele>
        <time>2013-12-23T11:54:51Z</time>
      </trkpt>
      <trkpt lat="41.613831000" lon="1.889431000">
        <ele>211.10</ele>
        <time>2013-12-23T11:54:58Z</time>
      </trkpt>
      <trkpt lat="41.613720000" lon="1.889824000">
        <ele>212.60</ele>
        <time>2013-12-23T11:55:06Z</time>
      </trkpt>
      <trkpt lat="41.613773000" lon="1.889950000">
        <ele>212.60</ele>
        <time>2013-12-23T11:55:10Z</time>
      </trkpt>
      <trkpt lat="41.614017000" lon="1.890373000">
        <ele>215.50</ele>
        <time>2013-12-23T11:55:20Z</time>
      </trkpt>
      <trkpt lat="41.614098000" lon="1.890686000">
        <ele>217.90</ele>
        <time>2013-12-23T11:55:29Z</time>
      </trkpt>
      <trkpt lat="41.614288000" lon="1.891066000">
        <ele>221.20</ele>
        <time>2013-12-23T11:55:41Z</time>
      </trkpt>
      <trkpt lat="41.614502000" lon="1.891209000">
        <ele>224.60</ele>
        <time>2013-12-23T11:55:50Z</time>
      </trkpt>
      <trkpt lat="41.614685000" lon="1.891283000">
        <ele>226.10</ele>
        <time>2013-12-23T11:55:57Z</time>
      </trkpt>
      <trkpt lat="41.614769000" lon="1.891394000">
        <ele>226.50</ele>
        <time>2013-12-23T11:56:02Z</time>
      </trkpt>
      <trkpt lat="41.614929000" lon="1.891430000">
        <ele>226.50</ele>
        <time>2013-12-23T11:56:11Z</time>
      </trkpt>
      <trkpt lat="41.615051000" lon="1.891211000">
        <ele>225.10</ele>
        <time>2013-12-23T11:56:16Z</time>
      </trkpt>
      <trkpt lat="41.615353000" lon="1.891086000">
        <ele>223.20</ele>
        <time>2013-12-23T11:56:23Z</time>
      </trkpt>
      <trkpt lat="41.615322000" lon="1.891062000">
        <ele>223.60</ele>
        <time>2013-12-23T11:56:30Z</time>
      </trkpt>
      <trkpt lat="41.615303000" lon="1.891173000">
        <ele>223.60</ele>
        <time>2013-12-23T11:56:35Z</time>
      </trkpt>
      <trkpt lat="41.615364000" lon="1.891254000">
        <ele>224.10</ele>
        <time>2013-12-23T11:56:40Z</time>
      </trkpt>
      <trkpt lat="41.615509000" lon="1.891508000">
        <ele>224.10</ele>
        <time>2013-12-23T11:56:47Z</time>
      </trkpt>
      <trkpt lat="41.615864000" lon="1.891887000">
        <ele>225.60</ele>
        <time>2013-12-23T11:57:01Z</time>
      </trkpt>
      <trkpt lat="41.616131000" lon="1.892377000">
        <ele>228.00</ele>
        <time>2013-12-23T11:57:15Z</time>
      </trkpt>
      <trkpt lat="41.616276000" lon="1.892842000">
        <ele>228.90</ele>
        <time>2013-12-23T11:57:26Z</time>
      </trkpt>
      <trkpt lat="41.616474000" lon="1.893343000">
        <ele>228.90</ele>
        <time>2013-12-23T11:57:36Z</time>
      </trkpt>
      <trkpt lat="41.616524000" lon="1.893434000">
        <ele>228.00</ele>
        <time>2013-12-23T11:57:38Z</time>
      </trkpt>
      <trkpt lat="41.616852000" lon="1.893577000">
        <ele>228.00</ele>
        <time>2013-12-23T11:57:47Z</time>
      </trkpt>
      <trkpt lat="41.616943000" lon="1.893591000">
        <ele>227.50</ele>
        <time>2013-12-23T11:57:48Z</time>
      </trkpt>
      <trkpt lat="41.617039000" lon="1.893586000">
        <ele>227.50</ele>
        <time>2013-12-23T11:57:50Z</time>
      </trkpt>
      <trkpt lat="41.617172000" lon="1.893485000">
        <ele>227.50</ele>
        <time>2013-12-23T11:57:55Z</time>
      </trkpt>
      <trkpt lat="41.617374000" lon="1.893514000">
        <ele>227.50</ele>
        <time>2013-12-23T11:57:59Z</time>
      </trkpt>
      <trkpt lat="41.617531000" lon="1.893606000">
        <ele>227.50</ele>
        <time>2013-12-23T11:58:04Z</time>
      </trkpt>
      <trkpt lat="41.617825000" lon="1.893642000">
        <ele>226.50</ele>
        <time>2013-12-23T11:58:09Z</time>
      </trkpt>
      <trkpt lat="41.617924000" lon="1.893680000">
        <ele>226.50</ele>
        <time>2013-12-23T11:58:11Z</time>
      </trkpt>
      <trkpt lat="41.618271000" lon="1.893557000">
        <ele>224.10</ele>
        <time>2013-12-23T11:58:18Z</time>
      </trkpt>
      <trkpt lat="41.618355000" lon="1.893605000">
        <ele>225.10</ele>
        <time>2013-12-23T11:58:25Z</time>
      </trkpt>
      <trkpt lat="41.618412000" lon="1.893602000">
        <ele>226.10</ele>
        <time>2013-12-23T11:58:28Z</time>
      </trkpt>
      <trkpt lat="41.618565000" lon="1.893553000">
        <ele>228.40</ele>
        <time>2013-12-23T11:58:37Z</time>
      </trkpt>
      <trkpt lat="41.618652000" lon="1.893544000">
        <ele>228.40</ele>
        <time>2013-12-23T11:58:41Z</time>
      </trkpt>
      <trkpt lat="41.618820000" lon="1.893793000">
        <ele>229.40</ele>
        <time>2013-12-23T11:58:51Z</time>
      </trkpt>
      <trkpt lat="41.618832000" lon="1.893840000">
        <ele>228.90</ele>
        <time>2013-12-23T11:58:53Z</time>
      </trkpt>
      <trkpt lat="41.618896000" lon="1.894033000">
        <ele>228.90</ele>
        <time>2013-12-23T11:58:56Z</time>
      </trkpt>
      <trkpt lat="41.619022000" lon="1.894421000">
        <ele>232.80</ele>
        <time>2013-12-23T11:59:10Z</time>
      </trkpt>
      <trkpt lat="41.619125000" lon="1.894792000">
        <ele>234.70</ele>
        <time>2013-12-23T11:59:22Z</time>
      </trkpt>
      <trkpt lat="41.619400000" lon="1.894981000">
        <ele>237.10</ele>
        <time>2013-12-23T11:59:36Z</time>
      </trkpt>
      <trkpt lat="41.619541000" lon="1.895104000">
        <ele>235.20</ele>
        <time>2013-12-23T11:59:40Z</time>
      </trkpt>
      <trkpt lat="41.619694000" lon="1.895172000">
        <ele>234.20</ele>
        <time>2013-12-23T11:59:43Z</time>
      </trkpt>
      <trkpt lat="41.619858000" lon="1.895178000">
        <ele>233.70</ele>
        <time>2013-12-23T11:59:45Z</time>
      </trkpt>
      <trkpt lat="41.620094000" lon="1.895159000">
        <ele>232.30</ele>
        <time>2013-12-23T11:59:50Z</time>
      </trkpt>
      <trkpt lat="41.620422000" lon="1.895126000">
        <ele>229.90</ele>
        <time>2013-12-23T11:59:55Z</time>
      </trkpt>
      <trkpt lat="41.620377000" lon="1.894877000">
        <ele>229.40</ele>
        <time>2013-12-23T12:00:02Z</time>
      </trkpt>
      <trkpt lat="41.619976000" lon="1.894769000">
        <ele>231.80</ele>
        <time>2013-12-23T12:00:16Z</time>
      </trkpt>
      <trkpt lat="41.619793000" lon="1.894383000">
        <ele>234.20</ele>
        <time>2013-12-23T12:00:29Z</time>
      </trkpt>
      <trkpt lat="41.619972000" lon="1.893894000">
        <ele>237.10</ele>
        <time>2013-12-23T12:00:42Z</time>
      </trkpt>
      <trkpt lat="41.620323000" lon="1.893691000">
        <ele>239.00</ele>
        <time>2013-12-23T12:00:55Z</time>
      </trkpt>
      <trkpt lat="41.620514000" lon="1.893584000">
        <ele>239.50</ele>
        <time>2013-12-23T12:01:02Z</time>
      </trkpt>
      <trkpt lat="41.620430000" lon="1.893294000">
        <ele>240.50</ele>
        <time>2013-12-23T12:01:10Z</time>
      </trkpt>
      <trkpt lat="41.619957000" lon="1.893187000">
        <ele>242.90</ele>
        <time>2013-12-23T12:01:26Z</time>
      </trkpt>
      <trkpt lat="41.619751000" lon="1.893073000">
        <ele>245.30</ele>
        <time>2013-12-23T12:01:35Z</time>
      </trkpt>
      <trkpt lat="41.619522000" lon="1.892811000">
        <ele>248.20</ele>
        <time>2013-12-23T12:01:47Z</time>
      </trkpt>
      <trkpt lat="41.619724000" lon="1.892499000">
        <ele>250.10</ele>
        <time>2013-12-23T12:01:59Z</time>
      </trkpt>
      <trkpt lat="41.620022000" lon="1.892547000">
        <ele>253.00</ele>
        <time>2013-12-23T12:02:11Z</time>
      </trkpt>
      <trkpt lat="41.620346000" lon="1.892683000">
        <ele>255.90</ele>
        <time>2013-12-23T12:02:25Z</time>
      </trkpt>
      <trkpt lat="41.620613000" lon="1.892535000">
        <ele>256.30</ele>
        <time>2013-12-23T12:02:36Z</time>
      </trkpt>
      <trkpt lat="41.620914000" lon="1.892185000">
        <ele>258.20</ele>
        <time>2013-12-23T12:02:48Z</time>
      </trkpt>
      <trkpt lat="41.621006000" lon="1.892118000">
        <ele>257.80</ele>
        <time>2013-12-23T12:02:53Z</time>
      </trkpt>
      <trkpt lat="41.621258000" lon="1.892246000">
        <ele>256.80</ele>
        <time>2013-12-23T12:03:00Z</time>
      </trkpt>
      <trkpt lat="41.621449000" lon="1.892431000">
        <ele>256.80</ele>
        <time>2013-12-23T12:03:07Z</time>
      </trkpt>
      <trkpt lat="41.621872000" lon="1.892691000">
        <ele>256.30</ele>
        <time>2013-12-23T12:03:16Z</time>
      </trkpt>
      <trkpt lat="41.622494000" lon="1.893139000">
        <ele>255.40</ele>
        <time>2013-12-23T12:03:31Z</time>
      </trkpt>
      <trkpt lat="41.622574000" lon="1.893185000">
        <ele>255.40</ele>
        <time>2013-12-23T12:03:33Z</time>
      </trkpt>
      <trkpt lat="41.622597000" lon="1.893364000">
        <ele>255.90</ele>
        <time>2013-12-23T12:03:38Z</time>
      </trkpt>
      <trkpt lat="41.622562000" lon="1.893383000">
        <ele>255.40</ele>
        <time>2013-12-23T12:03:40Z</time>
      </trkpt>
      <trkpt lat="41.622540000" lon="1.893374000">
        <ele>256.30</ele>
        <time>2013-12-23T12:03:51Z</time>
      </trkpt>
      <trkpt lat="41.622566000" lon="1.893444000">
        <ele>255.90</ele>
        <time>2013-12-23T12:03:58Z</time>
      </trkpt>
      <trkpt lat="41.622517000" lon="1.893486000">
        <ele>257.30</ele>
        <time>2013-12-23T12:04:03Z</time>
      </trkpt>
      <trkpt lat="41.622475000" lon="1.893514000">
        <ele>258.20</ele>
        <time>2013-12-23T12:04:06Z</time>
      </trkpt>
      <trkpt lat="41.622463000" lon="1.893542000">
        <ele>258.70</ele>
        <time>2013-12-23T12:04:15Z</time>
      </trkpt>
      <trkpt lat="41.622421000" lon="1.893569000">
        <ele>260.20</ele>
        <time>2013-12-23T12:04:27Z</time>
      </trkpt>
      <trkpt lat="41.622421000" lon="1.893569000">
        <ele>259.20</ele>
        <time>2013-12-23T12:04:32Z</time>
      </trkpt>
      <trkpt lat="41.622467000" lon="1.893526000">
        <ele>258.70</ele>
        <time>2013-12-23T12:04:36Z</time>
      </trkpt>
      <trkpt lat="41.622524000" lon="1.893493000">
        <ele>257.30</ele>
        <time>2013-12-23T12:04:48Z</time>
      </trkpt>
      <trkpt lat="41.622524000" lon="1.893493000">
        <ele>257.30</ele>
        <time>2013-12-23T12:04:52Z</time>
      </trkpt>
      <trkpt lat="41.622505000" lon="1.893516000">
        <ele>258.20</ele>
        <time>2013-12-23T12:04:55Z</time>
      </trkpt>
      <trkpt lat="41.622421000" lon="1.893607000">
        <ele>260.60</ele>
        <time>2013-12-23T12:05:02Z</time>
      </trkpt>
      <trkpt lat="41.622398000" lon="1.893679000">
        <ele>262.60</ele>
        <time>2013-12-23T12:05:12Z</time>
      </trkpt>
      <trkpt lat="41.622391000" lon="1.893769000">
        <ele>264.00</ele>
        <time>2013-12-23T12:05:23Z</time>
      </trkpt>
      <trkpt lat="41.622391000" lon="1.893864000">
        <ele>264.50</ele>
        <time>2013-12-23T12:05:35Z</time>
      </trkpt>
      <trkpt lat="41.622498000" lon="1.894005000">
        <ele>265.00</ele>
        <time>2013-12-23T12:05:46Z</time>
      </trkpt>
      <trkpt lat="41.622719000" lon="1.894442000">
        <ele>265.50</ele>
        <time>2013-12-23T12:06:00Z</time>
      </trkpt>
      <trkpt lat="41.622807000" lon="1.894544000">
        <ele>265.50</ele>
        <time>2013-12-23T12:06:03Z</time>
      </trkpt>
      <trkpt lat="41.622906000" lon="1.894640000">
        <ele>265.90</ele>
        <time>2013-12-23T12:06:05Z</time>
      </trkpt>
      <trkpt lat="41.623047000" lon="1.894762000">
        <ele>265.90</ele>
        <time>2013-12-23T12:06:10Z</time>
      </trkpt>
      <trkpt lat="41.623379000" lon="1.895064000">
        <ele>267.40</ele>
        <time>2013-12-23T12:06:19Z</time>
      </trkpt>
      <trkpt lat="41.623699000" lon="1.895533000">
        <ele>270.30</ele>
        <time>2013-12-23T12:06:33Z</time>
      </trkpt>
      <trkpt lat="41.623631000" lon="1.895919000">
        <ele>273.60</ele>
        <time>2013-12-23T12:06:43Z</time>
      </trkpt>
      <trkpt lat="41.623295000" lon="1.896135000">
        <ele>274.60</ele>
        <time>2013-12-23T12:06:54Z</time>
      </trkpt>
      <trkpt lat="41.623230000" lon="1.896289000">
        <ele>275.60</ele>
        <time>2013-12-23T12:06:59Z</time>
      </trkpt>
      <trkpt lat="41.623230000" lon="1.896375000">
        <ele>276.00</ele>
        <time>2013-12-23T12:07:02Z</time>
      </trkpt>
      <trkpt lat="41.623306000" lon="1.896816000">
        <ele>278.40</ele>
        <time>2013-12-23T12:07:16Z</time>
      </trkpt>
      <trkpt lat="41.623615000" lon="1.897156000">
        <ele>280.80</ele>
        <time>2013-12-23T12:07:30Z</time>
      </trkpt>
      <trkpt lat="41.624161000" lon="1.897269000">
        <ele>280.80</ele>
        <time>2013-12-23T12:07:46Z</time>
      </trkpt>
      <trkpt lat="41.624306000" lon="1.897201000">
        <ele>282.80</ele>
        <time>2013-12-23T12:07:53Z</time>
      </trkpt>
      <trkpt lat="41.624340000" lon="1.897194000">
        <ele>283.70</ele>
        <time>2013-12-23T12:07:56Z</time>
      </trkpt>
      <trkpt lat="41.624554000" lon="1.897081000">
        <ele>285.60</ele>
        <time>2013-12-23T12:08:07Z</time>
      </trkpt>
      <trkpt lat="41.624809000" lon="1.897035000">
        <ele>287.10</ele>
        <time>2013-12-23T12:08:21Z</time>
      </trkpt>
      <trkpt lat="41.624889000" lon="1.897007000">
        <ele>287.60</ele>
        <time>2013-12-23T12:08:24Z</time>
      </trkpt>
      <trkpt lat="41.624992000" lon="1.896950000">
        <ele>288.50</ele>
        <time>2013-12-23T12:08:29Z</time>
      </trkpt>
      <trkpt lat="41.624985000" lon="1.896888000">
        <ele>289.50</ele>
        <time>2013-12-23T12:08:35Z</time>
      </trkpt>
      <trkpt lat="41.624737000" lon="1.896831000">
        <ele>291.90</ele>
        <time>2013-12-23T12:08:48Z</time>
      </trkpt>
      <trkpt lat="41.624474000" lon="1.896783000">
        <ele>294.30</ele>
        <time>2013-12-23T12:09:01Z</time>
      </trkpt>
      <trkpt lat="41.624153000" lon="1.896810000">
        <ele>297.20</ele>
        <time>2013-12-23T12:09:16Z</time>
      </trkpt>
      <trkpt lat="41.624020000" lon="1.896785000">
        <ele>298.10</ele>
        <time>2013-12-23T12:09:23Z</time>
      </trkpt>
      <trkpt lat="41.624073000" lon="1.896652000">
        <ele>300.10</ele>
        <time>2013-12-23T12:09:32Z</time>
      </trkpt>
      <trkpt lat="41.624287000" lon="1.896642000">
        <ele>300.10</ele>
        <time>2013-12-23T12:09:41Z</time>
      </trkpt>
      <trkpt lat="41.624310000" lon="1.896633000">
        <ele>300.10</ele>
        <time>2013-12-23T12:09:42Z</time>
      </trkpt>
      <trkpt lat="41.624638000" lon="1.896428000">
        <ele>299.60</ele>
        <time>2013-12-23T12:09:55Z</time>
      </trkpt>
      <trkpt lat="41.624962000" lon="1.896446000">
        <ele>300.50</ele>
        <time>2013-12-23T12:10:05Z</time>
      </trkpt>
      <trkpt lat="41.625294000" lon="1.896265000">
        <ele>300.10</ele>
        <time>2013-12-23T12:10:16Z</time>
      </trkpt>
      <trkpt lat="41.625607000" lon="1.896174000">
        <ele>299.10</ele>
        <time>2013-12-23T12:10:24Z</time>
      </trkpt>
      <trkpt lat="41.625732000" lon="1.896215000">
        <ele>298.10</ele>
        <time>2013-12-23T12:10:26Z</time>
      </trkpt>
      <trkpt lat="41.626095000" lon="1.896214000">
        <ele>298.60</ele>
        <time>2013-12-23T12:10:35Z</time>
      </trkpt>
      <trkpt lat="41.626125000" lon="1.896198000">
        <ele>299.60</ele>
        <time>2013-12-23T12:10:36Z</time>
      </trkpt>
      <trkpt lat="41.626411000" lon="1.896153000">
        <ele>300.50</ele>
        <time>2013-12-23T12:10:47Z</time>
      </trkpt>
      <trkpt lat="41.626831000" lon="1.896275000">
        <ele>299.60</ele>
        <time>2013-12-23T12:11:01Z</time>
      </trkpt>
      <trkpt lat="41.627113000" lon="1.896429000">
        <ele>300.50</ele>
        <time>2013-12-23T12:11:11Z</time>
      </trkpt>
      <trkpt lat="41.627357000" lon="1.896321000">
        <ele>302.00</ele>
        <time>2013-12-23T12:11:22Z</time>
      </trkpt>
      <trkpt lat="41.627617000" lon="1.896197000">
        <ele>304.90</ele>
        <time>2013-12-23T12:11:34Z</time>
      </trkpt>
      <trkpt lat="41.627735000" lon="1.896291000">
        <ele>305.40</ele>
        <time>2013-12-23T12:11:43Z</time>
      </trkpt>
      <trkpt lat="41.627605000" lon="1.896439000">
        <ele>305.40</ele>
        <time>2013-12-23T12:11:50Z</time>
      </trkpt>
      <trkpt lat="41.627239000" lon="1.896958000">
        <ele>307.30</ele>
        <time>2013-12-23T12:12:05Z</time>
      </trkpt>
      <trkpt lat="41.627041000" lon="1.897533000">
        <ele>310.20</ele>
        <time>2013-12-23T12:12:19Z</time>
      </trkpt>
      <trkpt lat="41.627144000" lon="1.898005000">
        <ele>313.50</ele>
        <time>2013-12-23T12:12:30Z</time>
      </trkpt>
      <trkpt lat="41.627205000" lon="1.898278000">
        <ele>315.90</ele>
        <time>2013-12-23T12:12:37Z</time>
      </trkpt>
      <trkpt lat="41.627319000" lon="1.898705000">
        <ele>318.80</ele>
        <time>2013-12-23T12:12:47Z</time>
      </trkpt>
      <trkpt lat="41.627327000" lon="1.898750000">
        <ele>319.30</ele>
        <time>2013-12-23T12:12:47Z</time>
      </trkpt>
      <trkpt lat="41.627422000" lon="1.899142000">
        <ele>322.20</ele>
        <time>2013-12-23T12:12:56Z</time>
      </trkpt>
      <trkpt lat="41.627506000" lon="1.899495000">
        <ele>325.50</ele>
        <time>2013-12-23T12:13:06Z</time>
      </trkpt>
      <trkpt lat="41.627743000" lon="1.899806000">
        <ele>326.00</ele>
        <time>2013-12-23T12:13:20Z</time>
      </trkpt>
      <trkpt lat="41.628185000" lon="1.900007000">
        <ele>328.00</ele>
        <time>2013-12-23T12:13:34Z</time>
      </trkpt>
      <trkpt lat="41.628323000" lon="1.900537000">
        <ele>329.40</ele>
        <time>2013-12-23T12:13:46Z</time>
      </trkpt>
      <trkpt lat="41.628338000" lon="1.900812000">
        <ele>330.80</ele>
        <time>2013-12-23T12:13:55Z</time>
      </trkpt>
      <trkpt lat="41.628391000" lon="1.901119000">
        <ele>329.90</ele>
        <time>2013-12-23T12:14:06Z</time>
      </trkpt>
      <trkpt lat="41.628433000" lon="1.901144000">
        <ele>329.90</ele>
        <time>2013-12-23T12:14:07Z</time>
      </trkpt>
      <trkpt lat="41.628578000" lon="1.901226000">
        <ele>328.90</ele>
        <time>2013-12-23T12:14:09Z</time>
      </trkpt>
      <trkpt lat="41.629288000" lon="1.901654000">
        <ele>327.50</ele>
        <time>2013-12-23T12:14:23Z</time>
      </trkpt>
      <trkpt lat="41.629868000" lon="1.901777000">
        <ele>329.90</ele>
        <time>2013-12-23T12:14:39Z</time>
      </trkpt>
      <trkpt lat="41.630058000" lon="1.902092000">
        <ele>332.80</ele>
        <time>2013-12-23T12:14:49Z</time>
      </trkpt>
      <trkpt lat="41.630173000" lon="1.902442000">
        <ele>334.70</ele>
        <time>2013-12-23T12:15:01Z</time>
      </trkpt>
      <trkpt lat="41.630173000" lon="1.902874000">
        <ele>336.60</ele>
        <time>2013-12-23T12:15:13Z</time>
      </trkpt>
      <trkpt lat="41.630142000" lon="1.903329000">
        <ele>339.50</ele>
        <time>2013-12-23T12:15:26Z</time>
      </trkpt>
      <trkpt lat="41.630344000" lon="1.903571000">
        <ele>341.90</ele>
        <time>2013-12-23T12:15:36Z</time>
      </trkpt>
      <trkpt lat="41.630653000" lon="1.903559000">
        <ele>341.40</ele>
        <time>2013-12-23T12:15:45Z</time>
      </trkpt>
      <trkpt lat="41.630886000" lon="1.903589000">
        <ele>340.00</ele>
        <time>2013-12-23T12:15:50Z</time>
      </trkpt>
      <trkpt lat="41.630978000" lon="1.903644000">
        <ele>340.00</ele>
        <time>2013-12-23T12:15:52Z</time>
      </trkpt>
      <trkpt lat="41.631168000" lon="1.903944000">
        <ele>339.00</ele>
        <time>2013-12-23T12:15:57Z</time>
      </trkpt>
      <trkpt lat="41.631264000" lon="1.904098000">
        <ele>338.50</ele>
        <time>2013-12-23T12:16:00Z</time>
      </trkpt>
      <trkpt lat="41.631516000" lon="1.904302000">
        <ele>338.00</ele>
        <time>2013-12-23T12:16:06Z</time>
      </trkpt>
      <trkpt lat="41.631618000" lon="1.904456000">
        <ele>338.00</ele>
        <time>2013-12-23T12:16:09Z</time>
      </trkpt>
      <trkpt lat="41.631638000" lon="1.904826000">
        <ele>338.50</ele>
        <time>2013-12-23T12:16:16Z</time>
      </trkpt>
      <trkpt lat="41.631428000" lon="1.905215000">
        <ele>340.90</ele>
        <time>2013-12-23T12:16:25Z</time>
      </trkpt>
      <trkpt lat="41.631275000" lon="1.905278000">
        <ele>341.90</ele>
        <time>2013-12-23T12:16:30Z</time>
      </trkpt>
      <trkpt lat="41.630962000" lon="1.905306000">
        <ele>345.20</ele>
        <time>2013-12-23T12:16:42Z</time>
      </trkpt>
      <trkpt lat="41.630714000" lon="1.905538000">
        <ele>348.10</ele>
        <time>2013-12-23T12:16:54Z</time>
      </trkpt>
      <trkpt lat="41.630692000" lon="1.905981000">
        <ele>350.50</ele>
        <time>2013-12-23T12:17:08Z</time>
      </trkpt>
      <trkpt lat="41.630627000" lon="1.906472000">
        <ele>351.50</ele>
        <time>2013-12-23T12:17:22Z</time>
      </trkpt>
      <trkpt lat="41.630772000" lon="1.907068000">
        <ele>352.00</ele>
        <time>2013-12-23T12:17:35Z</time>
      </trkpt>
      <trkpt lat="41.630852000" lon="1.907352000">
        <ele>354.40</ele>
        <time>2013-12-23T12:17:40Z</time>
      </trkpt>
      <trkpt lat="41.631161000" lon="1.907798000">
        <ele>353.90</ele>
        <time>2013-12-23T12:17:54Z</time>
      </trkpt>
      <trkpt lat="41.631527000" lon="1.908387000">
        <ele>354.90</ele>
        <time>2013-12-23T12:18:06Z</time>
      </trkpt>
      <trkpt lat="41.631893000" lon="1.908604000">
        <ele>354.40</ele>
        <time>2013-12-23T12:18:16Z</time>
      </trkpt>
      <trkpt lat="41.632454000" lon="1.909155000">
        <ele>355.30</ele>
        <time>2013-12-23T12:18:30Z</time>
      </trkpt>
      <trkpt lat="41.632782000" lon="1.909470000">
        <ele>355.30</ele>
        <time>2013-12-23T12:18:39Z</time>
      </trkpt>
      <trkpt lat="41.632946000" lon="1.909723000">
        <ele>355.30</ele>
        <time>2013-12-23T12:18:44Z</time>
      </trkpt>
      <trkpt lat="41.633186000" lon="1.910330000">
        <ele>357.30</ele>
        <time>2013-12-23T12:18:55Z</time>
      </trkpt>
      <trkpt lat="41.633312000" lon="1.910421000">
        <ele>358.20</ele>
        <time>2013-12-23T12:18:58Z</time>
      </trkpt>
      <trkpt lat="41.633717000" lon="1.910569000">
        <ele>358.70</ele>
        <time>2013-12-23T12:19:09Z</time>
      </trkpt>
      <trkpt lat="41.633846000" lon="1.910708000">
        <ele>359.20</ele>
        <time>2013-12-23T12:19:12Z</time>
      </trkpt>
      <trkpt lat="41.634281000" lon="1.911455000">
        <ele>359.70</ele>
        <time>2013-12-23T12:19:28Z</time>
      </trkpt>
      <trkpt lat="41.634472000" lon="1.911848000">
        <ele>363.00</ele>
        <time>2013-12-23T12:19:38Z</time>
      </trkpt>
      <trkpt lat="41.634506000" lon="1.911926000">
        <ele>364.50</ele>
        <time>2013-12-23T12:19:40Z</time>
      </trkpt>
      <trkpt lat="41.634636000" lon="1.912137000">
        <ele>367.40</ele>
        <time>2013-12-23T12:19:47Z</time>
      </trkpt>
      <trkpt lat="41.634716000" lon="1.912302000">
        <ele>369.30</ele>
        <time>2013-12-23T12:19:52Z</time>
      </trkpt>
      <trkpt lat="41.634766000" lon="1.912491000">
        <ele>369.30</ele>
        <time>2013-12-23T12:20:04Z</time>
      </trkpt>
      <trkpt lat="41.634766000" lon="1.912491000">
        <ele>369.30</ele>
        <time>2013-12-23T12:20:25Z</time>
      </trkpt>
      <trkpt lat="41.634766000" lon="1.912490000">
        <ele>369.80</ele>
        <time>2013-12-23T12:20:55Z</time>
      </trkpt>
      <trkpt lat="41.634769000" lon="1.912490000">
        <ele>369.30</ele>
        <time>2013-12-23T12:21:30Z</time>
      </trkpt>
      <trkpt lat="41.634769000" lon="1.912490000">
        <ele>369.80</ele>
        <time>2013-12-23T12:22:01Z</time>
      </trkpt>
      <trkpt lat="41.634766000" lon="1.912487000">
        <ele>370.20</ele>
        <time>2013-12-23T12:22:36Z</time>
      </trkpt>
      <trkpt lat="41.634769000" lon="1.912486000">
        <ele>370.20</ele>
        <time>2013-12-23T12:23:11Z</time>
      </trkpt>
      <trkpt lat="41.634769000" lon="1.912485000">
        <ele>369.80</ele>
        <time>2013-12-23T12:23:44Z</time>
      </trkpt>
      <trkpt lat="41.634769000" lon="1.912486000">
        <ele>369.80</ele>
        <time>2013-12-23T12:24:17Z</time>
      </trkpt>
      <trkpt lat="41.634769000" lon="1.912487000">
        <ele>370.20</ele>
        <time>2013-12-23T12:24:45Z</time>
      </trkpt>
      <trkpt lat="41.634769000" lon="1.912487000">
        <ele>369.80</ele>
        <time>2013-12-23T12:25:13Z</time>
      </trkpt>
      <trkpt lat="41.634769000" lon="1.912485000">
        <ele>369.80</ele>
        <time>2013-12-23T12:25:46Z</time>
      </trkpt>
      <trkpt lat="41.634773000" lon="1.912484000">
        <ele>369.30</ele>
        <time>2013-12-23T12:26:17Z</time>
      </trkpt>
      <trkpt lat="41.634769000" lon="1.912486000">
        <ele>369.80</ele>
        <time>2013-12-23T12:26:54Z</time>
      </trkpt>
      <trkpt lat="41.634769000" lon="1.912490000">
        <ele>369.80</ele>
        <time>2013-12-23T12:27:29Z</time>
      </trkpt>
      <trkpt lat="41.634769000" lon="1.912490000">
        <ele>369.80</ele>
        <time>2013-12-23T12:28:07Z</time>
      </trkpt>
      <trkpt lat="41.634769000" lon="1.912490000">
        <ele>369.80</ele>
        <time>2013-12-23T12:28:42Z</time>
      </trkpt>
      <trkpt lat="41.634769000" lon="1.912489000">
        <ele>369.80</ele>
        <time>2013-12-23T12:29:08Z</time>
      </trkpt>
      <trkpt lat="41.634769000" lon="1.912491000">
        <ele>369.80</ele>
        <time>2013-12-23T12:29:44Z</time>
      </trkpt>
      <trkpt lat="41.634769000" lon="1.912490000">
        <ele>369.80</ele>
        <time>2013-12-23T12:30:19Z</time>
      </trkpt>
      <trkpt lat="41.634769000" lon="1.912493000">
        <ele>369.80</ele>
        <time>2013-12-23T12:30:49Z</time>
      </trkpt>
      <trkpt lat="41.634769000" lon="1.912493000">
        <ele>369.30</ele>
        <time>2013-12-23T12:31:22Z</time>
      </trkpt>
      <trkpt lat="41.634773000" lon="1.912492000">
        <ele>369.30</ele>
        <time>2013-12-23T12:31:41Z</time>
      </trkpt>
      <trkpt lat="41.634773000" lon="1.912496000">
        <ele>369.80</ele>
        <time>2013-12-23T12:32:09Z</time>
      </trkpt>
      <trkpt lat="41.634789000" lon="1.912481000">
        <ele>369.30</ele>
        <time>2013-12-23T12:32:23Z</time>
      </trkpt>
      <trkpt lat="41.634789000" lon="1.912481000">
        <ele>369.80</ele>
        <time>2013-12-23T12:32:26Z</time>
      </trkpt>
      <trkpt lat="41.634991000" lon="1.912366000">
        <ele>368.80</ele>
        <time>2013-12-23T12:32:35Z</time>
      </trkpt>
      <trkpt lat="41.635151000" lon="1.912182000">
        <ele>368.80</ele>
        <time>2013-12-23T12:32:40Z</time>
      </trkpt>
      <trkpt lat="41.635262000" lon="1.912106000">
        <ele>368.80</ele>
        <time>2013-12-23T12:32:44Z</time>
      </trkpt>
      <trkpt lat="41.635738000" lon="1.912022000">
        <ele>367.80</ele>
        <time>2013-12-23T12:32:54Z</time>
      </trkpt>
      <trkpt lat="41.636303000" lon="1.911998000">
        <ele>364.00</ele>
        <time>2013-12-23T12:33:03Z</time>
      </trkpt>
      <trkpt lat="41.636646000" lon="1.911999000">
        <ele>361.10</ele>
        <time>2013-12-23T12:33:06Z</time>
      </trkpt>
      <trkpt lat="41.637009000" lon="1.911936000">
        <ele>357.80</ele>
        <time>2013-12-23T12:33:10Z</time>
      </trkpt>
      <trkpt lat="41.637291000" lon="1.911936000">
        <ele>355.80</ele>
        <time>2013-12-23T12:33:13Z</time>
      </trkpt>
      <trkpt lat="41.637383000" lon="1.911954000">
        <ele>354.90</ele>
        <time>2013-12-23T12:33:15Z</time>
      </trkpt>
      <trkpt lat="41.637695000" lon="1.911613000">
        <ele>352.90</ele>
        <time>2013-12-23T12:33:20Z</time>
      </trkpt>
      <trkpt lat="41.637600000" lon="1.911342000">
        <ele>351.50</ele>
        <time>2013-12-23T12:33:24Z</time>
      </trkpt>
      <trkpt lat="41.637203000" lon="1.910890000">
        <ele>348.10</ele>
        <time>2013-12-23T12:33:29Z</time>
      </trkpt>
      <trkpt lat="41.637135000" lon="1.910811000">
        <ele>347.60</ele>
        <time>2013-12-23T12:33:31Z</time>
      </trkpt>
      <trkpt lat="41.636986000" lon="1.910194000">
        <ele>344.30</ele>
        <time>2013-12-23T12:33:36Z</time>
      </trkpt>
      <trkpt lat="41.637001000" lon="1.910093000">
        <ele>344.30</ele>
        <time>2013-12-23T12:33:38Z</time>
      </trkpt>
      <trkpt lat="41.636959000" lon="1.910151000">
        <ele>343.80</ele>
        <time>2013-12-23T12:33:43Z</time>
      </trkpt>
      <trkpt lat="41.636948000" lon="1.910392000">
        <ele>345.20</ele>
        <time>2013-12-23T12:33:50Z</time>
      </trkpt>
      <trkpt lat="41.637039000" lon="1.910534000">
        <ele>345.20</ele>
        <time>2013-12-23T12:33:53Z</time>
      </trkpt>
      <trkpt lat="41.637421000" lon="1.910687000">
        <ele>342.40</ele>
        <time>2013-12-23T12:34:00Z</time>
      </trkpt>
      <trkpt lat="41.637695000" lon="1.910774000">
        <ele>340.90</ele>
        <time>2013-12-23T12:34:04Z</time>
      </trkpt>
      <trkpt lat="41.637886000" lon="1.910856000">
        <ele>340.90</ele>
        <time>2013-12-23T12:34:07Z</time>
      </trkpt>
      <trkpt lat="41.638004000" lon="1.910937000">
        <ele>339.50</ele>
        <time>2013-12-23T12:34:09Z</time>
      </trkpt>
      <trkpt lat="41.638168000" lon="1.911124000">
        <ele>337.60</ele>
        <time>2013-12-23T12:34:13Z</time>
      </trkpt>
      <trkpt lat="41.638378000" lon="1.911512000">
        <ele>333.70</ele>
        <time>2013-12-23T12:34:18Z</time>
      </trkpt>
      <trkpt lat="41.638420000" lon="1.911589000">
        <ele>331.30</ele>
        <time>2013-12-23T12:34:18Z</time>
      </trkpt>
      <trkpt lat="41.638584000" lon="1.911824000">
        <ele>326.50</ele>
        <time>2013-12-23T12:34:21Z</time>
      </trkpt>
      <trkpt lat="41.638706000" lon="1.911987000">
        <ele>323.60</ele>
        <time>2013-12-23T12:34:23Z</time>
      </trkpt>
      <trkpt lat="41.638802000" lon="1.912292000">
        <ele>318.80</ele>
        <time>2013-12-23T12:34:28Z</time>
      </trkpt>
      <trkpt lat="41.638786000" lon="1.912372000">
        <ele>317.40</ele>
        <time>2013-12-23T12:34:28Z</time>
      </trkpt>
      <trkpt lat="41.638741000" lon="1.912559000">
        <ele>315.50</ele>
        <time>2013-12-23T12:34:30Z</time>
      </trkpt>
      <trkpt lat="41.638950000" lon="1.912988000">
        <ele>313.50</ele>
        <time>2013-12-23T12:34:37Z</time>
      </trkpt>
      <trkpt lat="41.638996000" lon="1.913046000">
        <ele>313.50</ele>
        <time>2013-12-23T12:34:39Z</time>
      </trkpt>
      <trkpt lat="41.639309000" lon="1.912968000">
        <ele>314.50</ele>
        <time>2013-12-23T12:34:46Z</time>
      </trkpt>
      <trkpt lat="41.639484000" lon="1.912605000">
        <ele>316.90</ele>
        <time>2013-12-23T12:34:54Z</time>
      </trkpt>
      <trkpt lat="41.639542000" lon="1.912645000">
        <ele>318.30</ele>
        <time>2013-12-23T12:35:00Z</time>
      </trkpt>
      <trkpt lat="41.639355000" lon="1.913046000">
        <ele>319.30</ele>
        <time>2013-12-23T12:35:12Z</time>
      </trkpt>
      <trkpt lat="41.639332000" lon="1.913088000">
        <ele>318.80</ele>
        <time>2013-12-23T12:35:14Z</time>
      </trkpt>
      <trkpt lat="41.639164000" lon="1.913297000">
        <ele>318.80</ele>
        <time>2013-12-23T12:35:19Z</time>
      </trkpt>
      <trkpt lat="41.638840000" lon="1.913524000">
        <ele>322.20</ele>
        <time>2013-12-23T12:35:31Z</time>
      </trkpt>
      <trkpt lat="41.638592000" lon="1.913551000">
        <ele>324.60</ele>
        <time>2013-12-23T12:35:43Z</time>
      </trkpt>
      <trkpt lat="41.638256000" lon="1.913640000">
        <ele>326.50</ele>
        <time>2013-12-23T12:35:54Z</time>
      </trkpt>
      <trkpt lat="41.638088000" lon="1.913584000">
        <ele>329.40</ele>
        <time>2013-12-23T12:36:04Z</time>
      </trkpt>
      <trkpt lat="41.638065000" lon="1.913570000">
        <ele>330.40</ele>
        <time>2013-12-23T12:36:06Z</time>
      </trkpt>
      <trkpt lat="41.638031000" lon="1.913578000">
        <ele>330.80</ele>
        <time>2013-12-23T12:36:09Z</time>
      </trkpt>
      <trkpt lat="41.637947000" lon="1.913550000">
        <ele>332.30</ele>
        <time>2013-12-23T12:36:15Z</time>
      </trkpt>
      <trkpt lat="41.637848000" lon="1.913571000">
        <ele>332.30</ele>
        <time>2013-12-23T12:36:20Z</time>
      </trkpt>
      <trkpt lat="41.637714000" lon="1.913700000">
        <ele>334.70</ele>
        <time>2013-12-23T12:36:32Z</time>
      </trkpt>
      <trkpt lat="41.637707000" lon="1.913721000">
        <ele>334.70</ele>
        <time>2013-12-23T12:36:32Z</time>
      </trkpt>
      <trkpt lat="41.637585000" lon="1.913891000">
        <ele>338.50</ele>
        <time>2013-12-23T12:36:44Z</time>
      </trkpt>
      <trkpt lat="41.637478000" lon="1.913973000">
        <ele>341.90</ele>
        <time>2013-12-23T12:36:53Z</time>
      </trkpt>
      <trkpt lat="41.637383000" lon="1.914069000">
        <ele>342.90</ele>
        <time>2013-12-23T12:37:00Z</time>
      </trkpt>
      <trkpt lat="41.637184000" lon="1.914361000">
        <ele>344.80</ele>
        <time>2013-12-23T12:37:16Z</time>
      </trkpt>
      <trkpt lat="41.637127000" lon="1.914650000">
        <ele>347.60</ele>
        <time>2013-12-23T12:37:28Z</time>
      </trkpt>
      <trkpt lat="41.637150000" lon="1.914905000">
        <ele>349.10</ele>
        <time>2013-12-23T12:37:38Z</time>
      </trkpt>
      <trkpt lat="41.637280000" lon="1.915319000">
        <ele>348.60</ele>
        <time>2013-12-23T12:37:50Z</time>
      </trkpt>
      <trkpt lat="41.637520000" lon="1.915782000">
        <ele>347.60</ele>
        <time>2013-12-23T12:38:04Z</time>
      </trkpt>
      <trkpt lat="41.637825000" lon="1.916071000">
        <ele>350.10</ele>
        <time>2013-12-23T12:38:15Z</time>
      </trkpt>
      <trkpt lat="41.638004000" lon="1.916324000">
        <ele>350.10</ele>
        <time>2013-12-23T12:38:22Z</time>
      </trkpt>
      <trkpt lat="41.638306000" lon="1.916736000">
        <ele>349.60</ele>
        <time>2013-12-23T12:38:34Z</time>
      </trkpt>
      <trkpt lat="41.638512000" lon="1.917222000">
        <ele>350.50</ele>
        <time>2013-12-23T12:38:44Z</time>
      </trkpt>
      <trkpt lat="41.638664000" lon="1.917591000">
        <ele>352.50</ele>
        <time>2013-12-23T12:38:55Z</time>
      </trkpt>
      <trkpt lat="41.638767000" lon="1.917784000">
        <ele>352.90</ele>
        <time>2013-12-23T12:39:00Z</time>
      </trkpt>
      <trkpt lat="41.638744000" lon="1.917848000">
        <ele>354.40</ele>
        <time>2013-12-23T12:39:04Z</time>
      </trkpt>
      <trkpt lat="41.638645000" lon="1.917840000">
        <ele>355.30</ele>
        <time>2013-12-23T12:39:09Z</time>
      </trkpt>
      <trkpt lat="41.638569000" lon="1.917798000">
        <ele>356.80</ele>
        <time>2013-12-23T12:39:14Z</time>
      </trkpt>
      <trkpt lat="41.638401000" lon="1.917663000">
        <ele>359.70</ele>
        <time>2013-12-23T12:39:23Z</time>
      </trkpt>
      <trkpt lat="41.638359000" lon="1.917628000">
        <ele>360.10</ele>
        <time>2013-12-23T12:39:26Z</time>
      </trkpt>
      <trkpt lat="41.638283000" lon="1.917571000">
        <ele>361.60</ele>
        <time>2013-12-23T12:39:33Z</time>
      </trkpt>
      <trkpt lat="41.638256000" lon="1.917571000">
        <ele>362.50</ele>
        <time>2013-12-23T12:39:35Z</time>
      </trkpt>
      <trkpt lat="41.638229000" lon="1.917564000">
        <ele>362.50</ele>
        <time>2013-12-23T12:39:37Z</time>
      </trkpt>
      <trkpt lat="41.638168000" lon="1.917577000">
        <ele>364.00</ele>
        <time>2013-12-23T12:39:40Z</time>
      </trkpt>
      <trkpt lat="41.638123000" lon="1.917584000">
        <ele>364.50</ele>
        <time>2013-12-23T12:39:44Z</time>
      </trkpt>
      <trkpt lat="41.638058000" lon="1.917659000">
        <ele>364.50</ele>
        <time>2013-12-23T12:39:49Z</time>
      </trkpt>
      <trkpt lat="41.638035000" lon="1.917718000">
        <ele>365.00</ele>
        <time>2013-12-23T12:39:52Z</time>
      </trkpt>
      <trkpt lat="41.637985000" lon="1.917833000">
        <ele>365.90</ele>
        <time>2013-12-23T12:39:59Z</time>
      </trkpt>
      <trkpt lat="41.637997000" lon="1.917953000">
        <ele>367.80</ele>
        <time>2013-12-23T12:40:05Z</time>
      </trkpt>
      <trkpt lat="41.638035000" lon="1.917982000">
        <ele>368.80</ele>
        <time>2013-12-23T12:40:08Z</time>
      </trkpt>
      <trkpt lat="41.638119000" lon="1.918070000">
        <ele>368.80</ele>
        <time>2013-12-23T12:40:15Z</time>
      </trkpt>
      <trkpt lat="41.638226000" lon="1.918188000">
        <ele>370.20</ele>
        <time>2013-12-23T12:40:22Z</time>
      </trkpt>
      <trkpt lat="41.638268000" lon="1.918270000">
        <ele>371.20</ele>
        <time>2013-12-23T12:40:25Z</time>
      </trkpt>
      <trkpt lat="41.638355000" lon="1.918487000">
        <ele>372.60</ele>
        <time>2013-12-23T12:40:34Z</time>
      </trkpt>
      <trkpt lat="41.638355000" lon="1.918637000">
        <ele>374.10</ele>
        <time>2013-12-23T12:40:41Z</time>
      </trkpt>
      <trkpt lat="41.638363000" lon="1.918778000">
        <ele>375.00</ele>
        <time>2013-12-23T12:40:46Z</time>
      </trkpt>
      <trkpt lat="41.638298000" lon="1.919184000">
        <ele>377.00</ele>
        <time>2013-12-23T12:41:02Z</time>
      </trkpt>
      <trkpt lat="41.638390000" lon="1.919516000">
        <ele>379.40</ele>
        <time>2013-12-23T12:41:14Z</time>
      </trkpt>
      <trkpt lat="41.638359000" lon="1.919610000">
        <ele>380.30</ele>
        <time>2013-12-23T12:41:18Z</time>
      </trkpt>
      <trkpt lat="41.638309000" lon="1.919611000">
        <ele>380.80</ele>
        <time>2013-12-23T12:41:21Z</time>
      </trkpt>
      <trkpt lat="41.638145000" lon="1.919359000">
        <ele>382.30</ele>
        <time>2013-12-23T12:41:35Z</time>
      </trkpt>
      <trkpt lat="41.638077000" lon="1.919185000">
        <ele>384.20</ele>
        <time>2013-12-23T12:41:42Z</time>
      </trkpt>
      <trkpt lat="41.638008000" lon="1.919012000">
        <ele>386.60</ele>
        <time>2013-12-23T12:41:49Z</time>
      </trkpt>
      <trkpt lat="41.637962000" lon="1.918959000">
        <ele>387.10</ele>
        <time>2013-12-23T12:41:51Z</time>
      </trkpt>
      <trkpt lat="41.637848000" lon="1.919015000">
        <ele>388.50</ele>
        <time>2013-12-23T12:41:58Z</time>
      </trkpt>
      <trkpt lat="41.637810000" lon="1.919461000">
        <ele>391.40</ele>
        <time>2013-12-23T12:42:13Z</time>
      </trkpt>
      <trkpt lat="41.637802000" lon="1.919812000">
        <ele>394.30</ele>
        <time>2013-12-23T12:42:26Z</time>
      </trkpt>
      <trkpt lat="41.637794000" lon="1.919925000">
        <ele>394.80</ele>
        <time>2013-12-23T12:42:31Z</time>
      </trkpt>
      <trkpt lat="41.637787000" lon="1.920176000">
        <ele>397.20</ele>
        <time>2013-12-23T12:42:41Z</time>
      </trkpt>
      <trkpt lat="41.637787000" lon="1.920415000">
        <ele>400.50</ele>
        <time>2013-12-23T12:42:50Z</time>
      </trkpt>
      <trkpt lat="41.637787000" lon="1.920438000">
        <ele>400.00</ele>
        <time>2013-12-23T12:42:52Z</time>
      </trkpt>
      <trkpt lat="41.637768000" lon="1.920636000">
        <ele>403.40</ele>
        <time>2013-12-23T12:43:00Z</time>
      </trkpt>
      <trkpt lat="41.637768000" lon="1.920832000">
        <ele>406.30</ele>
        <time>2013-12-23T12:43:09Z</time>
      </trkpt>
      <trkpt lat="41.637775000" lon="1.920869000">
        <ele>407.30</ele>
        <time>2013-12-23T12:43:11Z</time>
      </trkpt>
      <trkpt lat="41.637772000" lon="1.920923000">
        <ele>408.70</ele>
        <time>2013-12-23T12:43:14Z</time>
      </trkpt>
      <trkpt lat="41.637772000" lon="1.920983000">
        <ele>408.70</ele>
        <time>2013-12-23T12:43:18Z</time>
      </trkpt>
      <trkpt lat="41.637821000" lon="1.921156000">
        <ele>410.60</ele>
        <time>2013-12-23T12:43:25Z</time>
      </trkpt>
      <trkpt lat="41.637886000" lon="1.921206000">
        <ele>411.60</ele>
        <time>2013-12-23T12:43:30Z</time>
      </trkpt>
      <trkpt lat="41.637993000" lon="1.921239000">
        <ele>412.10</ele>
        <time>2013-12-23T12:43:37Z</time>
      </trkpt>
      <trkpt lat="41.638271000" lon="1.921260000">
        <ele>413.00</ele>
        <time>2013-12-23T12:43:51Z</time>
      </trkpt>
      <trkpt lat="41.638535000" lon="1.921295000">
        <ele>414.00</ele>
        <time>2013-12-23T12:44:05Z</time>
      </trkpt>
      <trkpt lat="41.638573000" lon="1.921301000">
        <ele>414.00</ele>
        <time>2013-12-23T12:44:07Z</time>
      </trkpt>
      <trkpt lat="41.638649000" lon="1.921368000">
        <ele>415.40</ele>
        <time>2013-12-23T12:44:12Z</time>
      </trkpt>
      <trkpt lat="41.638733000" lon="1.921438000">
        <ele>416.40</ele>
        <time>2013-12-23T12:44:17Z</time>
      </trkpt>
      <trkpt lat="41.638866000" lon="1.921746000">
        <ele>418.80</ele>
        <time>2013-12-23T12:44:33Z</time>
      </trkpt>
      <trkpt lat="41.639011000" lon="1.922085000">
        <ele>420.70</ele>
        <time>2013-12-23T12:44:47Z</time>
      </trkpt>
      <trkpt lat="41.639046000" lon="1.922305000">
        <ele>422.60</ele>
        <time>2013-12-23T12:44:55Z</time>
      </trkpt>
      <trkpt lat="41.639053000" lon="1.922380000">
        <ele>423.60</ele>
        <time>2013-12-23T12:44:59Z</time>
      </trkpt>
      <trkpt lat="41.638874000" lon="1.922718000">
        <ele>425.00</ele>
        <time>2013-12-23T12:45:15Z</time>
      </trkpt>
      <trkpt lat="41.638859000" lon="1.922980000">
        <ele>424.60</ele>
        <time>2013-12-23T12:45:23Z</time>
      </trkpt>
      <trkpt lat="41.639011000" lon="1.923276000">
        <ele>427.00</ele>
        <time>2013-12-23T12:45:35Z</time>
      </trkpt>
      <trkpt lat="41.639145000" lon="1.923689000">
        <ele>426.50</ele>
        <time>2013-12-23T12:45:46Z</time>
      </trkpt>
      <trkpt lat="41.639194000" lon="1.923959000">
        <ele>428.90</ele>
        <time>2013-12-23T12:45:55Z</time>
      </trkpt>
      <trkpt lat="41.639191000" lon="1.923993000">
        <ele>428.90</ele>
        <time>2013-12-23T12:45:55Z</time>
      </trkpt>
      <trkpt lat="41.638992000" lon="1.924325000">
        <ele>429.40</ele>
        <time>2013-12-23T12:46:07Z</time>
      </trkpt>
      <trkpt lat="41.638985000" lon="1.924734000">
        <ele>429.40</ele>
        <time>2013-12-23T12:46:16Z</time>
      </trkpt>
      <trkpt lat="41.638924000" lon="1.924970000">
        <ele>429.40</ele>
        <time>2013-12-23T12:46:23Z</time>
      </trkpt>
      <trkpt lat="41.638950000" lon="1.925279000">
        <ele>430.80</ele>
        <time>2013-12-23T12:46:31Z</time>
      </trkpt>
      <trkpt lat="41.638786000" lon="1.925496000">
        <ele>432.70</ele>
        <time>2013-12-23T12:46:40Z</time>
      </trkpt>
      <trkpt lat="41.638630000" lon="1.925469000">
        <ele>433.20</ele>
        <time>2013-12-23T12:46:47Z</time>
      </trkpt>
      <trkpt lat="41.638470000" lon="1.925390000">
        <ele>435.10</ele>
        <time>2013-12-23T12:46:57Z</time>
      </trkpt>
      <trkpt lat="41.638168000" lon="1.925146000">
        <ele>435.60</ele>
        <time>2013-12-23T12:47:11Z</time>
      </trkpt>
      <trkpt lat="41.637905000" lon="1.924999000">
        <ele>437.10</ele>
        <time>2013-12-23T12:47:22Z</time>
      </trkpt>
      <trkpt lat="41.637665000" lon="1.925142000">
        <ele>438.00</ele>
        <time>2013-12-23T12:47:34Z</time>
      </trkpt>
      <trkpt lat="41.637680000" lon="1.925396000">
        <ele>441.40</ele>
        <time>2013-12-23T12:47:44Z</time>
      </trkpt>
      <trkpt lat="41.637779000" lon="1.925688000">
        <ele>440.90</ele>
        <time>2013-12-23T12:47:55Z</time>
      </trkpt>
      <trkpt lat="41.637932000" lon="1.925960000">
        <ele>443.30</ele>
        <time>2013-12-23T12:48:07Z</time>
      </trkpt>
      <trkpt lat="41.637966000" lon="1.926250000">
        <ele>443.30</ele>
        <time>2013-12-23T12:48:16Z</time>
      </trkpt>
      <trkpt lat="41.637779000" lon="1.926519000">
        <ele>444.80</ele>
        <time>2013-12-23T12:48:26Z</time>
      </trkpt>
      <trkpt lat="41.637455000" lon="1.926648000">
        <ele>445.20</ele>
        <time>2013-12-23T12:48:38Z</time>
      </trkpt>
      <trkpt lat="41.637272000" lon="1.926784000">
        <ele>447.60</ele>
        <time>2013-12-23T12:48:49Z</time>
      </trkpt>
      <trkpt lat="41.637150000" lon="1.926806000">
        <ele>449.50</ele>
        <time>2013-12-23T12:48:54Z</time>
      </trkpt>
      <trkpt lat="41.637058000" lon="1.926924000">
        <ele>451.50</ele>
        <time>2013-12-23T12:49:03Z</time>
      </trkpt>
      <trkpt lat="41.637062000" lon="1.927026000">
        <ele>451.50</ele>
        <time>2013-12-23T12:49:06Z</time>
      </trkpt>
      <trkpt lat="41.637184000" lon="1.927305000">
        <ele>452.90</ele>
        <time>2013-12-23T12:49:20Z</time>
      </trkpt>
      <trkpt lat="41.637184000" lon="1.927305000">
        <ele>452.40</ele>
        <time>2013-12-23T12:49:41Z</time>
      </trkpt>
      <trkpt lat="41.637184000" lon="1.927305000">
        <ele>452.40</ele>
        <time>2013-12-23T12:50:07Z</time>
      </trkpt>
      <trkpt lat="41.637184000" lon="1.927305000">
        <ele>452.40</ele>
        <time>2013-12-23T12:50:33Z</time>
      </trkpt>
      <trkpt lat="41.637184000" lon="1.927305000">
        <ele>452.00</ele>
        <time>2013-12-23T12:50:33Z</time>
      </trkpt>
      <trkpt lat="41.637295000" lon="1.927474000">
        <ele>451.50</ele>
        <time>2013-12-23T12:50:42Z</time>
      </trkpt>
      <trkpt lat="41.637440000" lon="1.927567000">
        <ele>451.00</ele>
        <time>2013-12-23T12:50:47Z</time>
      </trkpt>
      <trkpt lat="41.637562000" lon="1.927602000">
        <ele>450.00</ele>
        <time>2013-12-23T12:50:51Z</time>
      </trkpt>
      <trkpt lat="41.637939000" lon="1.927512000">
        <ele>448.10</ele>
        <time>2013-12-23T12:51:00Z</time>
      </trkpt>
      <trkpt lat="41.638145000" lon="1.927457000">
        <ele>446.70</ele>
        <time>2013-12-23T12:51:03Z</time>
      </trkpt>
      <trkpt lat="41.638538000" lon="1.927416000">
        <ele>443.80</ele>
        <time>2013-12-23T12:51:10Z</time>
      </trkpt>
      <trkpt lat="41.638821000" lon="1.927502000">
        <ele>442.80</ele>
        <time>2013-12-23T12:51:15Z</time>
      </trkpt>
      <trkpt lat="41.638897000" lon="1.927581000">
        <ele>443.30</ele>
        <time>2013-12-23T12:51:17Z</time>
      </trkpt>
      <trkpt lat="41.639229000" lon="1.927681000">
        <ele>444.30</ele>
        <time>2013-12-23T12:51:27Z</time>
      </trkpt>
      <trkpt lat="41.639271000" lon="1.927698000">
        <ele>443.30</ele>
        <time>2013-12-23T12:51:29Z</time>
      </trkpt>
      <trkpt lat="41.639462000" lon="1.927902000">
        <ele>441.90</ele>
        <time>2013-12-23T12:51:34Z</time>
      </trkpt>
      <trkpt lat="41.639469000" lon="1.928242000">
        <ele>442.30</ele>
        <time>2013-12-23T12:51:41Z</time>
      </trkpt>
      <trkpt lat="41.639297000" lon="1.928378000">
        <ele>443.30</ele>
        <time>2013-12-23T12:51:45Z</time>
      </trkpt>
      <trkpt lat="41.638985000" lon="1.928579000">
        <ele>446.20</ele>
        <time>2013-12-23T12:51:57Z</time>
      </trkpt>
      <trkpt lat="41.638855000" lon="1.928935000">
        <ele>448.60</ele>
        <time>2013-12-23T12:52:07Z</time>
      </trkpt>
      <trkpt lat="41.638988000" lon="1.929196000">
        <ele>450.50</ele>
        <time>2013-12-23T12:52:18Z</time>
      </trkpt>
      <trkpt lat="41.639271000" lon="1.929430000">
        <ele>452.00</ele>
        <time>2013-12-23T12:52:32Z</time>
      </trkpt>
      <trkpt lat="41.639576000" lon="1.929559000">
        <ele>451.50</ele>
        <time>2013-12-23T12:52:41Z</time>
      </trkpt>
      <trkpt lat="41.639790000" lon="1.929638000">
        <ele>449.10</ele>
        <time>2013-12-23T12:52:46Z</time>
      </trkpt>
      <trkpt lat="41.639946000" lon="1.929797000">
        <ele>446.70</ele>
        <time>2013-12-23T12:52:49Z</time>
      </trkpt>
      <trkpt lat="41.640091000" lon="1.929998000">
        <ele>444.80</ele>
        <time>2013-12-23T12:52:53Z</time>
      </trkpt>
      <trkpt lat="41.640228000" lon="1.929980000">
        <ele>444.30</ele>
        <time>2013-12-23T12:52:56Z</time>
      </trkpt>
      <trkpt lat="41.640320000" lon="1.929943000">
        <ele>444.30</ele>
        <time>2013-12-23T12:52:58Z</time>
      </trkpt>
      <trkpt lat="41.640530000" lon="1.929825000">
        <ele>442.80</ele>
        <time>2013-12-23T12:53:03Z</time>
      </trkpt>
      <trkpt lat="41.640766000" lon="1.929875000">
        <ele>443.80</ele>
        <time>2013-12-23T12:53:07Z</time>
      </trkpt>
      <trkpt lat="41.640839000" lon="1.930132000">
        <ele>444.30</ele>
        <time>2013-12-23T12:53:15Z</time>
      </trkpt>
      <trkpt lat="41.640816000" lon="1.930172000">
        <ele>443.80</ele>
        <time>2013-12-23T12:53:17Z</time>
      </trkpt>
      <trkpt lat="41.640682000" lon="1.930479000">
        <ele>444.30</ele>
        <time>2013-12-23T12:53:22Z</time>
      </trkpt>
      <trkpt lat="41.640656000" lon="1.930587000">
        <ele>442.80</ele>
        <time>2013-12-23T12:53:24Z</time>
      </trkpt>
      <trkpt lat="41.640648000" lon="1.930695000">
        <ele>441.90</ele>
        <time>2013-12-23T12:53:26Z</time>
      </trkpt>
      <trkpt lat="41.640739000" lon="1.930937000">
        <ele>437.10</ele>
        <time>2013-12-23T12:53:31Z</time>
      </trkpt>
      <trkpt lat="41.640831000" lon="1.931073000">
        <ele>436.10</ele>
        <time>2013-12-23T12:53:33Z</time>
      </trkpt>
      <trkpt lat="41.640945000" lon="1.931260000">
        <ele>432.20</ele>
        <time>2013-12-23T12:53:36Z</time>
      </trkpt>
      <trkpt lat="41.640865000" lon="1.931497000">
        <ele>430.30</ele>
        <time>2013-12-23T12:53:42Z</time>
      </trkpt>
      <trkpt lat="41.640831000" lon="1.931481000">
        <ele>430.80</ele>
        <time>2013-12-23T12:53:43Z</time>
      </trkpt>
      <trkpt lat="41.640625000" lon="1.931402000">
        <ele>427.90</ele>
        <time>2013-12-23T12:53:47Z</time>
      </trkpt>
      <trkpt lat="41.640430000" lon="1.931299000">
        <ele>427.90</ele>
        <time>2013-12-23T12:53:50Z</time>
      </trkpt>
      <trkpt lat="41.640232000" lon="1.931184000">
        <ele>426.50</ele>
        <time>2013-12-23T12:53:54Z</time>
      </trkpt>
      <trkpt lat="41.640175000" lon="1.931156000">
        <ele>426.00</ele>
        <time>2013-12-23T12:53:55Z</time>
      </trkpt>
      <trkpt lat="41.639946000" lon="1.931061000">
        <ele>423.60</ele>
        <time>2013-12-23T12:53:59Z</time>
      </trkpt>
      <trkpt lat="41.639458000" lon="1.930978000">
        <ele>423.10</ele>
        <time>2013-12-23T12:54:09Z</time>
      </trkpt>
      <trkpt lat="41.639324000" lon="1.930948000">
        <ele>421.70</ele>
        <time>2013-12-23T12:54:13Z</time>
      </trkpt>
      <trkpt lat="41.639114000" lon="1.930897000">
        <ele>421.20</ele>
        <time>2013-12-23T12:54:16Z</time>
      </trkpt>
      <trkpt lat="41.638901000" lon="1.930823000">
        <ele>422.20</ele>
        <time>2013-12-23T12:54:22Z</time>
      </trkpt>
      <trkpt lat="41.638397000" lon="1.930815000">
        <ele>423.60</ele>
        <time>2013-12-23T12:54:34Z</time>
      </trkpt>
      <trkpt lat="41.638214000" lon="1.930957000">
        <ele>423.10</ele>
        <time>2013-12-23T12:54:39Z</time>
      </trkpt>
      <trkpt lat="41.638168000" lon="1.931049000">
        <ele>423.60</ele>
        <time>2013-12-23T12:54:41Z</time>
      </trkpt>
      <trkpt lat="41.638000000" lon="1.931222000">
        <ele>423.10</ele>
        <time>2013-12-23T12:54:49Z</time>
      </trkpt>
      <trkpt lat="41.637970000" lon="1.930965000">
        <ele>423.10</ele>
        <time>2013-12-23T12:54:55Z</time>
      </trkpt>
      <trkpt lat="41.637810000" lon="1.930653000">
        <ele>424.60</ele>
        <time>2013-12-23T12:55:09Z</time>
      </trkpt>
      <trkpt lat="41.637810000" lon="1.930653000">
        <ele>425.00</ele>
        <time>2013-12-23T12:55:40Z</time>
      </trkpt>
      <trkpt lat="41.637810000" lon="1.930653000">
        <ele>424.60</ele>
        <time>2013-12-23T12:55:42Z</time>
      </trkpt>
      <trkpt lat="41.637726000" lon="1.930560000">
        <ele>425.00</ele>
        <time>2013-12-23T12:55:49Z</time>
      </trkpt>
      <trkpt lat="41.637363000" lon="1.930325000">
        <ele>427.40</ele>
        <time>2013-12-23T12:56:01Z</time>
      </trkpt>
      <trkpt lat="41.637089000" lon="1.930216000">
        <ele>430.30</ele>
        <time>2013-12-23T12:56:13Z</time>
      </trkpt>
      <trkpt lat="41.636757000" lon="1.930203000">
        <ele>432.20</ele>
        <time>2013-12-23T12:56:27Z</time>
      </trkpt>
      <trkpt lat="41.636646000" lon="1.930426000">
        <ele>430.30</ele>
        <time>2013-12-23T12:56:34Z</time>
      </trkpt>
      <trkpt lat="41.636494000" lon="1.930493000">
        <ele>430.30</ele>
        <time>2013-12-23T12:56:41Z</time>
      </trkpt>
      <trkpt lat="41.636417000" lon="1.930454000">
        <ele>431.80</ele>
        <time>2013-12-23T12:56:44Z</time>
      </trkpt>
      <trkpt lat="41.636261000" lon="1.930322000">
        <ele>435.10</ele>
        <time>2013-12-23T12:56:55Z</time>
      </trkpt>
      <trkpt lat="41.636250000" lon="1.930313000">
        <ele>435.10</ele>
        <time>2013-12-23T12:56:57Z</time>
      </trkpt>
      <trkpt lat="41.636032000" lon="1.930193000">
        <ele>437.50</ele>
        <time>2013-12-23T12:57:09Z</time>
      </trkpt>
      <trkpt lat="41.635937000" lon="1.930199000">
        <ele>439.00</ele>
        <time>2013-12-23T12:57:14Z</time>
      </trkpt>
      <trkpt lat="41.635632000" lon="1.930117000">
        <ele>441.40</ele>
        <time>2013-12-23T12:57:30Z</time>
      </trkpt>
      <trkpt lat="41.635342000" lon="1.930214000">
        <ele>441.40</ele>
        <time>2013-12-23T12:57:42Z</time>
      </trkpt>
      <trkpt lat="41.635056000" lon="1.930277000">
        <ele>443.30</ele>
        <time>2013-12-23T12:57:54Z</time>
      </trkpt>
      <trkpt lat="41.634827000" lon="1.930109000">
        <ele>445.20</ele>
        <time>2013-12-23T12:58:06Z</time>
      </trkpt>
      <trkpt lat="41.634567000" lon="1.929927000">
        <ele>448.10</ele>
        <time>2013-12-23T12:58:22Z</time>
      </trkpt>
      <trkpt lat="41.634533000" lon="1.929908000">
        <ele>448.60</ele>
        <time>2013-12-23T12:58:24Z</time>
      </trkpt>
      <trkpt lat="41.634430000" lon="1.929907000">
        <ele>449.50</ele>
        <time>2013-12-23T12:58:31Z</time>
      </trkpt>
      <trkpt lat="41.634346000" lon="1.930017000">
        <ele>451.00</ele>
        <time>2013-12-23T12:58:38Z</time>
      </trkpt>
      <trkpt lat="41.634270000" lon="1.930251000">
        <ele>453.90</ele>
        <time>2013-12-23T12:58:46Z</time>
      </trkpt>
      <trkpt lat="41.634144000" lon="1.930524000">
        <ele>455.80</ele>
        <time>2013-12-23T12:59:00Z</time>
      </trkpt>
      <trkpt lat="41.634102000" lon="1.930727000">
        <ele>459.20</ele>
        <time>2013-12-23T12:59:09Z</time>
      </trkpt>
      <trkpt lat="41.634106000" lon="1.930804000">
        <ele>460.10</ele>
        <time>2013-12-23T12:59:14Z</time>
      </trkpt>
      <trkpt lat="41.634151000" lon="1.930931000">
        <ele>461.10</ele>
        <time>2013-12-23T12:59:21Z</time>
      </trkpt>
      <trkpt lat="41.634228000" lon="1.931003000">
        <ele>461.60</ele>
        <time>2013-12-23T12:59:26Z</time>
      </trkpt>
      <trkpt lat="41.634518000" lon="1.931170000">
        <ele>462.00</ele>
        <time>2013-12-23T12:59:40Z</time>
      </trkpt>
      <trkpt lat="41.634888000" lon="1.931256000">
        <ele>461.10</ele>
        <time>2013-12-23T12:59:53Z</time>
      </trkpt>
      <trkpt lat="41.635204000" lon="1.931317000">
        <ele>463.00</ele>
        <time>2013-12-23T13:00:05Z</time>
      </trkpt>
      <trkpt lat="41.635368000" lon="1.931370000">
        <ele>466.40</ele>
        <time>2013-12-23T13:00:15Z</time>
      </trkpt>
      <trkpt lat="41.635525000" lon="1.931476000">
        <ele>469.30</ele>
        <time>2013-12-23T13:00:24Z</time>
      </trkpt>
      <trkpt lat="41.635693000" lon="1.931637000">
        <ele>471.20</ele>
        <time>2013-12-23T13:00:36Z</time>
      </trkpt>
      <trkpt lat="41.635853000" lon="1.931845000">
        <ele>474.10</ele>
        <time>2013-12-23T13:00:47Z</time>
      </trkpt>
      <trkpt lat="41.636044000" lon="1.932077000">
        <ele>476.50</ele>
        <time>2013-12-23T13:00:59Z</time>
      </trkpt>
      <trkpt lat="41.636402000" lon="1.932332000">
        <ele>476.50</ele>
        <time>2013-12-23T13:01:13Z</time>
      </trkpt>
      <trkpt lat="41.636600000" lon="1.932455000">
        <ele>479.40</ele>
        <time>2013-12-23T13:01:23Z</time>
      </trkpt>
      <trkpt lat="41.636772000" lon="1.932564000">
        <ele>482.20</ele>
        <time>2013-12-23T13:01:32Z</time>
      </trkpt>
      <trkpt lat="41.636822000" lon="1.932598000">
        <ele>482.70</ele>
        <time>2013-12-23T13:01:35Z</time>
      </trkpt>
      <trkpt lat="41.636871000" lon="1.932646000">
        <ele>483.20</ele>
        <time>2013-12-23T13:01:39Z</time>
      </trkpt>
      <trkpt lat="41.636974000" lon="1.932678000">
        <ele>483.20</ele>
        <time>2013-12-23T13:01:44Z</time>
      </trkpt>
      <trkpt lat="41.637058000" lon="1.932712000">
        <ele>482.20</ele>
        <time>2013-12-23T13:01:49Z</time>
      </trkpt>
      <trkpt lat="41.637119000" lon="1.932767000">
        <ele>481.30</ele>
        <time>2013-12-23T13:01:51Z</time>
      </trkpt>
      <trkpt lat="41.637268000" lon="1.932940000">
        <ele>479.40</ele>
        <time>2013-12-23T13:01:54Z</time>
      </trkpt>
      <trkpt lat="41.637348000" lon="1.933018000">
        <ele>478.90</ele>
        <time>2013-12-23T13:01:56Z</time>
      </trkpt>
      <trkpt lat="41.637531000" lon="1.933142000">
        <ele>477.90</ele>
        <time>2013-12-23T13:02:00Z</time>
      </trkpt>
      <trkpt lat="41.637962000" lon="1.933559000">
        <ele>478.90</ele>
        <time>2013-12-23T13:02:12Z</time>
      </trkpt>
      <trkpt lat="41.638260000" lon="1.933824000">
        <ele>480.80</ele>
        <time>2013-12-23T13:02:24Z</time>
      </trkpt>
      <trkpt lat="41.638393000" lon="1.933955000">
        <ele>479.80</ele>
        <time>2013-12-23T13:02:29Z</time>
      </trkpt>
      <trkpt lat="41.638443000" lon="1.934094000">
        <ele>477.90</ele>
        <time>2013-12-23T13:02:33Z</time>
      </trkpt>
      <trkpt lat="41.638592000" lon="1.934261000">
        <ele>476.00</ele>
        <time>2013-12-23T13:02:38Z</time>
      </trkpt>
      <trkpt lat="41.638668000" lon="1.934381000">
        <ele>474.50</ele>
        <time>2013-12-23T13:02:40Z</time>
      </trkpt>
      <trkpt lat="41.638714000" lon="1.934837000">
        <ele>471.20</ele>
        <time>2013-12-23T13:02:45Z</time>
      </trkpt>
      <trkpt lat="41.638733000" lon="1.935044000">
        <ele>469.70</ele>
        <time>2013-12-23T13:02:48Z</time>
      </trkpt>
      <trkpt lat="41.638844000" lon="1.935128000">
        <ele>468.30</ele>
        <time>2013-12-23T13:02:52Z</time>
      </trkpt>
      <trkpt lat="41.639126000" lon="1.935143000">
        <ele>465.40</ele>
        <time>2013-12-23T13:02:57Z</time>
      </trkpt>
      <trkpt lat="41.639412000" lon="1.935279000">
        <ele>460.60</ele>
        <time>2013-12-23T13:03:02Z</time>
      </trkpt>
      <trkpt lat="41.639244000" lon="1.935371000">
        <ele>458.20</ele>
        <time>2013-12-23T13:03:09Z</time>
      </trkpt>
      <trkpt lat="41.639191000" lon="1.935373000">
        <ele>457.70</ele>
        <time>2013-12-23T13:03:09Z</time>
      </trkpt>
      <trkpt lat="41.639130000" lon="1.935389000">
        <ele>456.80</ele>
        <time>2013-12-23T13:03:11Z</time>
      </trkpt>
      <trkpt lat="41.638687000" lon="1.935599000">
        <ele>451.00</ele>
        <time>2013-12-23T13:03:18Z</time>
      </trkpt>
      <trkpt lat="41.638580000" lon="1.935657000">
        <ele>450.00</ele>
        <time>2013-12-23T13:03:20Z</time>
      </trkpt>
      <trkpt lat="41.638363000" lon="1.935705000">
        <ele>448.10</ele>
        <time>2013-12-23T13:03:23Z</time>
      </trkpt>
      <trkpt lat="41.638245000" lon="1.935674000">
        <ele>446.70</ele>
        <time>2013-12-23T13:03:25Z</time>
      </trkpt>
      <trkpt lat="41.638077000" lon="1.935578000">
        <ele>444.30</ele>
        <time>2013-12-23T13:03:29Z</time>
      </trkpt>
      <trkpt lat="41.637943000" lon="1.935455000">
        <ele>442.30</ele>
        <time>2013-12-23T13:03:32Z</time>
      </trkpt>
      <trkpt lat="41.637882000" lon="1.935356000">
        <ele>441.40</ele>
        <time>2013-12-23T13:03:34Z</time>
      </trkpt>
      <trkpt lat="41.637859000" lon="1.935237000">
        <ele>440.40</ele>
        <time>2013-12-23T13:03:36Z</time>
      </trkpt>
      <trkpt lat="41.637741000" lon="1.935080000">
        <ele>438.50</ele>
        <time>2013-12-23T13:03:39Z</time>
      </trkpt>
      <trkpt lat="41.637699000" lon="1.935076000">
        <ele>438.00</ele>
        <time>2013-12-23T13:03:41Z</time>
      </trkpt>
      <trkpt lat="41.637516000" lon="1.934995000">
        <ele>435.10</ele>
        <time>2013-12-23T13:03:44Z</time>
      </trkpt>
      <trkpt lat="41.637241000" lon="1.934854000">
        <ele>432.20</ele>
        <time>2013-12-23T13:03:49Z</time>
      </trkpt>
      <trkpt lat="41.637012000" lon="1.934580000">
        <ele>429.40</ele>
        <time>2013-12-23T13:03:55Z</time>
      </trkpt>
      <trkpt lat="41.636971000" lon="1.934556000">
        <ele>429.40</ele>
        <time>2013-12-23T13:03:56Z</time>
      </trkpt>
      <trkpt lat="41.636761000" lon="1.934469000">
        <ele>427.00</ele>
        <time>2013-12-23T13:04:00Z</time>
      </trkpt>
      <trkpt lat="41.636517000" lon="1.934375000">
        <ele>425.50</ele>
        <time>2013-12-23T13:04:05Z</time>
      </trkpt>
      <trkpt lat="41.635876000" lon="1.934135000">
        <ele>421.70</ele>
        <time>2013-12-23T13:04:14Z</time>
      </trkpt>
      <trkpt lat="41.635693000" lon="1.934050000">
        <ele>420.20</ele>
        <time>2013-12-23T13:04:17Z</time>
      </trkpt>
      <trkpt lat="41.635433000" lon="1.933967000">
        <ele>416.40</ele>
        <time>2013-12-23T13:04:21Z</time>
      </trkpt>
      <trkpt lat="41.635063000" lon="1.933831000">
        <ele>412.50</ele>
        <time>2013-12-23T13:04:26Z</time>
      </trkpt>
      <trkpt lat="41.634861000" lon="1.933684000">
        <ele>411.10</ele>
        <time>2013-12-23T13:04:31Z</time>
      </trkpt>
      <trkpt lat="41.634781000" lon="1.933581000">
        <ele>410.60</ele>
        <time>2013-12-23T13:04:33Z</time>
      </trkpt>
      <trkpt lat="41.634335000" lon="1.933008000">
        <ele>407.30</ele>
        <time>2013-12-23T13:04:42Z</time>
      </trkpt>
      <trkpt lat="41.634235000" lon="1.932885000">
        <ele>406.30</ele>
        <time>2013-12-23T13:04:45Z</time>
      </trkpt>
      <trkpt lat="41.633675000" lon="1.932618000">
        <ele>404.40</ele>
        <time>2013-12-23T13:04:54Z</time>
      </trkpt>
      <trkpt lat="41.633343000" lon="1.932503000">
        <ele>402.90</ele>
        <time>2013-12-23T13:04:59Z</time>
      </trkpt>
      <trkpt lat="41.632862000" lon="1.932254000">
        <ele>400.50</ele>
        <time>2013-12-23T13:05:06Z</time>
      </trkpt>
      <trkpt lat="41.632435000" lon="1.931782000">
        <ele>399.10</ele>
        <time>2013-12-23T13:05:15Z</time>
      </trkpt>
      <trkpt lat="41.632336000" lon="1.931665000">
        <ele>398.10</ele>
        <time>2013-12-23T13:05:18Z</time>
      </trkpt>
      <trkpt lat="41.632240000" lon="1.931468000">
        <ele>398.60</ele>
        <time>2013-12-23T13:05:20Z</time>
      </trkpt>
      <trkpt lat="41.632217000" lon="1.931405000">
        <ele>398.60</ele>
        <time>2013-12-23T13:05:22Z</time>
      </trkpt>
      <trkpt lat="41.632195000" lon="1.931345000">
        <ele>398.60</ele>
        <time>2013-12-23T13:05:22Z</time>
      </trkpt>
      <trkpt lat="41.632175000" lon="1.931288000">
        <ele>399.10</ele>
        <time>2013-12-23T13:05:24Z</time>
      </trkpt>
      <trkpt lat="41.632080000" lon="1.930908000">
        <ele>399.60</ele>
        <time>2013-12-23T13:05:30Z</time>
      </trkpt>
      <trkpt lat="41.632061000" lon="1.930855000">
        <ele>399.10</ele>
        <time>2013-12-23T13:05:32Z</time>
      </trkpt>
      <trkpt lat="41.632050000" lon="1.930799000">
        <ele>399.10</ele>
        <time>2013-12-23T13:05:32Z</time>
      </trkpt>
      <trkpt lat="41.632046000" lon="1.930734000">
        <ele>398.60</ele>
        <time>2013-12-23T13:05:34Z</time>
      </trkpt>
      <trkpt lat="41.632046000" lon="1.930660000">
        <ele>398.10</ele>
        <time>2013-12-23T13:05:34Z</time>
      </trkpt>
      <trkpt lat="41.632046000" lon="1.930581000">
        <ele>397.60</ele>
        <time>2013-12-23T13:05:36Z</time>
      </trkpt>
      <trkpt lat="41.632061000" lon="1.930423000">
        <ele>396.70</ele>
        <time>2013-12-23T13:05:37Z</time>
      </trkpt>
      <trkpt lat="41.632076000" lon="1.930342000">
        <ele>396.20</ele>
        <time>2013-12-23T13:05:39Z</time>
      </trkpt>
      <trkpt lat="41.632175000" lon="1.929903000">
        <ele>393.80</ele>
        <time>2013-12-23T13:05:43Z</time>
      </trkpt>
      <trkpt lat="41.632214000" lon="1.929815000">
        <ele>392.80</ele>
        <time>2013-12-23T13:05:44Z</time>
      </trkpt>
      <trkpt lat="41.632294000" lon="1.929638000">
        <ele>392.40</ele>
        <time>2013-12-23T13:05:46Z</time>
      </trkpt>
      <trkpt lat="41.632481000" lon="1.929187000">
        <ele>388.50</ele>
        <time>2013-12-23T13:05:51Z</time>
      </trkpt>
      <trkpt lat="41.632530000" lon="1.929093000">
        <ele>387.50</ele>
        <time>2013-12-23T13:05:53Z</time>
      </trkpt>
      <trkpt lat="41.632671000" lon="1.928867000">
        <ele>385.10</ele>
        <time>2013-12-23T13:05:55Z</time>
      </trkpt>
      <trkpt lat="41.632706000" lon="1.928804000">
        <ele>385.10</ele>
        <time>2013-12-23T13:05:57Z</time>
      </trkpt>
      <trkpt lat="41.632824000" lon="1.928630000">
        <ele>383.70</ele>
        <time>2013-12-23T13:06:00Z</time>
      </trkpt>
      <trkpt lat="41.632889000" lon="1.928540000">
        <ele>383.70</ele>
        <time>2013-12-23T13:06:02Z</time>
      </trkpt>
      <trkpt lat="41.632965000" lon="1.928467000">
        <ele>382.70</ele>
        <time>2013-12-23T13:06:04Z</time>
      </trkpt>
      <trkpt lat="41.632999000" lon="1.928427000">
        <ele>382.70</ele>
        <time>2013-12-23T13:06:05Z</time>
      </trkpt>
      <trkpt lat="41.633022000" lon="1.928383000">
        <ele>382.70</ele>
        <time>2013-12-23T13:06:05Z</time>
      </trkpt>
      <trkpt lat="41.633034000" lon="1.928338000">
        <ele>383.20</ele>
        <time>2013-12-23T13:06:07Z</time>
      </trkpt>
      <trkpt lat="41.633041000" lon="1.928297000">
        <ele>383.20</ele>
        <time>2013-12-23T13:06:07Z</time>
      </trkpt>
      <trkpt lat="41.633030000" lon="1.927944000">
        <ele>383.70</ele>
        <time>2013-12-23T13:06:16Z</time>
      </trkpt>
      <trkpt lat="41.632839000" lon="1.927670000">
        <ele>383.20</ele>
        <time>2013-12-23T13:06:26Z</time>
      </trkpt>
      <trkpt lat="41.632805000" lon="1.927606000">
        <ele>383.20</ele>
        <time>2013-12-23T13:06:52Z</time>
      </trkpt>
      <trkpt lat="41.632580000" lon="1.927371000">
        <ele>384.70</ele>
        <time>2013-12-23T13:07:01Z</time>
      </trkpt>
      <trkpt lat="41.632202000" lon="1.926915000">
        <ele>386.60</ele>
        <time>2013-12-23T13:07:13Z</time>
      </trkpt>
      <trkpt lat="41.632042000" lon="1.926799000">
        <ele>387.50</ele>
        <time>2013-12-23T13:07:20Z</time>
      </trkpt>
      <trkpt lat="41.632053000" lon="1.926571000">
        <ele>388.00</ele>
        <time>2013-12-23T13:07:27Z</time>
      </trkpt>
      <trkpt lat="41.632114000" lon="1.926492000">
        <ele>388.50</ele>
        <time>2013-12-23T13:07:29Z</time>
      </trkpt>
      <trkpt lat="41.632149000" lon="1.926425000">
        <ele>389.00</ele>
        <time>2013-12-23T13:07:31Z</time>
      </trkpt>
      <trkpt lat="41.632114000" lon="1.925892000">
        <ele>391.90</ele>
        <time>2013-12-23T13:07:48Z</time>
      </trkpt>
      <trkpt lat="41.632069000" lon="1.925556000">
        <ele>395.70</ele>
        <time>2013-12-23T13:08:00Z</time>
      </trkpt>
      <trkpt lat="41.632072000" lon="1.925438000">
        <ele>396.70</ele>
        <time>2013-12-23T13:08:05Z</time>
      </trkpt>
      <trkpt lat="41.632065000" lon="1.925197000">
        <ele>399.10</ele>
        <time>2013-12-23T13:08:14Z</time>
      </trkpt>
      <trkpt lat="41.631962000" lon="1.924915000">
        <ele>401.50</ele>
        <time>2013-12-23T13:08:28Z</time>
      </trkpt>
      <trkpt lat="41.631721000" lon="1.924772000">
        <ele>404.40</ele>
        <time>2013-12-23T13:08:42Z</time>
      </trkpt>
      <trkpt lat="41.631554000" lon="1.924618000">
        <ele>406.30</ele>
        <time>2013-12-23T13:08:51Z</time>
      </trkpt>
      <trkpt lat="41.631393000" lon="1.924469000">
        <ele>409.20</ele>
        <time>2013-12-23T13:09:03Z</time>
      </trkpt>
      <trkpt lat="41.631378000" lon="1.924453000">
        <ele>409.20</ele>
        <time>2013-12-23T13:09:03Z</time>
      </trkpt>
      <trkpt lat="41.631187000" lon="1.924262000">
        <ele>412.10</ele>
        <time>2013-12-23T13:09:17Z</time>
      </trkpt>
      <trkpt lat="41.631069000" lon="1.924115000">
        <ele>415.40</ele>
        <time>2013-12-23T13:09:26Z</time>
      </trkpt>
      <trkpt lat="41.631046000" lon="1.924096000">
        <ele>415.40</ele>
        <time>2013-12-23T13:09:29Z</time>
      </trkpt>
      <trkpt lat="41.630974000" lon="1.923991000">
        <ele>415.40</ele>
        <time>2013-12-23T13:09:34Z</time>
      </trkpt>
      <trkpt lat="41.631073000" lon="1.923896000">
        <ele>416.40</ele>
        <time>2013-12-23T13:09:43Z</time>
      </trkpt>
      <trkpt lat="41.631302000" lon="1.923845000">
        <ele>419.80</ele>
        <time>2013-12-23T13:09:55Z</time>
      </trkpt>
      <trkpt lat="41.631462000" lon="1.923707000">
        <ele>422.60</ele>
        <time>2013-12-23T13:10:06Z</time>
      </trkpt>
      <trkpt lat="41.631512000" lon="1.923640000">
        <ele>423.60</ele>
        <time>2013-12-23T13:10:11Z</time>
      </trkpt>
      <trkpt lat="41.631493000" lon="1.923507000">
        <ele>425.50</ele>
        <time>2013-12-23T13:10:18Z</time>
      </trkpt>
      <trkpt lat="41.631214000" lon="1.923443000">
        <ele>427.00</ele>
        <time>2013-12-23T13:10:32Z</time>
      </trkpt>
      <trkpt lat="41.630985000" lon="1.923384000">
        <ele>428.40</ele>
        <time>2013-12-23T13:10:44Z</time>
      </trkpt>
      <trkpt lat="41.630745000" lon="1.923260000">
        <ele>430.80</ele>
        <time>2013-12-23T13:10:56Z</time>
      </trkpt>
      <trkpt lat="41.630535000" lon="1.923060000">
        <ele>431.80</ele>
        <time>2013-12-23T13:11:07Z</time>
      </trkpt>
      <trkpt lat="41.630432000" lon="1.922877000">
        <ele>433.20</ele>
        <time>2013-12-23T13:11:14Z</time>
      </trkpt>
      <trkpt lat="41.630409000" lon="1.922759000">
        <ele>433.20</ele>
        <time>2013-12-23T13:11:19Z</time>
      </trkpt>
      <trkpt lat="41.630325000" lon="1.922362000">
        <ele>434.60</ele>
        <time>2013-12-23T13:11:31Z</time>
      </trkpt>
      <trkpt lat="41.630096000" lon="1.922081000">
        <ele>438.00</ele>
        <time>2013-12-23T13:11:45Z</time>
      </trkpt>
      <trkpt lat="41.630085000" lon="1.922069000">
        <ele>438.50</ele>
        <time>2013-12-23T13:11:47Z</time>
      </trkpt>
      <trkpt lat="41.630035000" lon="1.922079000">
        <ele>438.50</ele>
        <time>2013-12-23T13:11:50Z</time>
      </trkpt>
      <trkpt lat="41.630047000" lon="1.922176000">
        <ele>439.00</ele>
        <time>2013-12-23T13:11:54Z</time>
      </trkpt>
      <trkpt lat="41.630184000" lon="1.922557000">
        <ele>440.90</ele>
        <time>2013-12-23T13:12:08Z</time>
      </trkpt>
      <trkpt lat="41.630280000" lon="1.923058000">
        <ele>442.30</ele>
        <time>2013-12-23T13:12:22Z</time>
      </trkpt>
      <trkpt lat="41.630234000" lon="1.923581000">
        <ele>444.80</ele>
        <time>2013-12-23T13:12:36Z</time>
      </trkpt>
      <trkpt lat="41.630135000" lon="1.924140000">
        <ele>446.70</ele>
        <time>2013-12-23T13:12:51Z</time>
      </trkpt>
      <trkpt lat="41.630081000" lon="1.924575000">
        <ele>449.50</ele>
        <time>2013-12-23T13:13:03Z</time>
      </trkpt>
      <trkpt lat="41.629730000" lon="1.924755000">
        <ele>452.40</ele>
        <time>2013-12-23T13:13:19Z</time>
      </trkpt>
      <trkpt lat="41.629436000" lon="1.924967000">
        <ele>454.80</ele>
        <time>2013-12-23T13:13:33Z</time>
      </trkpt>
      <trkpt lat="41.629379000" lon="1.925339000">
        <ele>456.30</ele>
        <time>2013-12-23T13:13:45Z</time>
      </trkpt>
      <trkpt lat="41.629364000" lon="1.925718000">
        <ele>458.20</ele>
        <time>2013-12-23T13:13:57Z</time>
      </trkpt>
      <trkpt lat="41.629169000" lon="1.926143000">
        <ele>461.10</ele>
        <time>2013-12-23T13:14:11Z</time>
      </trkpt>
      <trkpt lat="41.629051000" lon="1.926337000">
        <ele>463.00</ele>
        <time>2013-12-23T13:14:22Z</time>
      </trkpt>
      <trkpt lat="41.628925000" lon="1.926744000">
        <ele>465.40</ele>
        <time>2013-12-23T13:14:36Z</time>
      </trkpt>
      <trkpt lat="41.629181000" lon="1.927010000">
        <ele>468.30</ele>
        <time>2013-12-23T13:14:50Z</time>
      </trkpt>
      <trkpt lat="41.629482000" lon="1.927335000">
        <ele>471.20</ele>
        <time>2013-12-23T13:15:05Z</time>
      </trkpt>
      <trkpt lat="41.629478000" lon="1.927682000">
        <ele>472.60</ele>
        <time>2013-12-23T13:15:14Z</time>
      </trkpt>
      <trkpt lat="41.629093000" lon="1.927904000">
        <ele>475.50</ele>
        <time>2013-12-23T13:15:30Z</time>
      </trkpt>
      <trkpt lat="41.628780000" lon="1.928006000">
        <ele>478.90</ele>
        <time>2013-12-23T13:15:42Z</time>
      </trkpt>
      <trkpt lat="41.628536000" lon="1.928260000">
        <ele>481.30</ele>
        <time>2013-12-23T13:15:54Z</time>
      </trkpt>
      <trkpt lat="41.628353000" lon="1.928585000">
        <ele>483.70</ele>
        <time>2013-12-23T13:16:06Z</time>
      </trkpt>
      <trkpt lat="41.628304000" lon="1.929033000">
        <ele>486.60</ele>
        <time>2013-12-23T13:16:20Z</time>
      </trkpt>
      <trkpt lat="41.628277000" lon="1.929418000">
        <ele>489.00</ele>
        <time>2013-12-23T13:16:34Z</time>
      </trkpt>
      <trkpt lat="41.628273000" lon="1.929417000">
        <ele>488.50</ele>
        <time>2013-12-23T13:16:50Z</time>
      </trkpt>
      <trkpt lat="41.628273000" lon="1.929416000">
        <ele>488.50</ele>
        <time>2013-12-23T13:17:16Z</time>
      </trkpt>
      <trkpt lat="41.628273000" lon="1.929416000">
        <ele>489.00</ele>
        <time>2013-12-23T13:17:44Z</time>
      </trkpt>
      <trkpt lat="41.628277000" lon="1.929415000">
        <ele>489.00</ele>
        <time>2013-12-23T13:18:03Z</time>
      </trkpt>
      <trkpt lat="41.628277000" lon="1.929415000">
        <ele>489.00</ele>
        <time>2013-12-23T13:18:29Z</time>
      </trkpt>
      <trkpt lat="41.628281000" lon="1.929417000">
        <ele>489.50</ele>
        <time>2013-12-23T13:18:55Z</time>
      </trkpt>
      <trkpt lat="41.628277000" lon="1.929415000">
        <ele>489.50</ele>
        <time>2013-12-23T13:19:32Z</time>
      </trkpt>
      <trkpt lat="41.628273000" lon="1.929414000">
        <ele>489.00</ele>
        <time>2013-12-23T13:20:01Z</time>
      </trkpt>
      <trkpt lat="41.628273000" lon="1.929414000">
        <ele>489.00</ele>
        <time>2013-12-23T13:20:29Z</time>
      </trkpt>
      <trkpt lat="41.628281000" lon="1.929419000">
        <ele>489.00</ele>
        <time>2013-12-23T13:20:59Z</time>
      </trkpt>
      <trkpt lat="41.628284000" lon="1.929416000">
        <ele>489.50</ele>
        <time>2013-12-23T13:21:22Z</time>
      </trkpt>
      <trkpt lat="41.628284000" lon="1.929413000">
        <ele>489.50</ele>
        <time>2013-12-23T13:21:53Z</time>
      </trkpt>
      <trkpt lat="41.628284000" lon="1.929413000">
        <ele>489.50</ele>
        <time>2013-12-23T13:22:19Z</time>
      </trkpt>
      <trkpt lat="41.628288000" lon="1.929410000">
        <ele>489.50</ele>
        <time>2013-12-23T13:22:45Z</time>
      </trkpt>
      <trkpt lat="41.628288000" lon="1.929413000">
        <ele>489.50</ele>
        <time>2013-12-23T13:23:18Z</time>
      </trkpt>
      <trkpt lat="41.628292000" lon="1.929426000">
        <ele>489.00</ele>
        <time>2013-12-23T13:23:36Z</time>
      </trkpt>
      <trkpt lat="41.628201000" lon="1.929766000">
        <ele>489.50</ele>
        <time>2013-12-23T13:23:48Z</time>
      </trkpt>
      <trkpt lat="41.627850000" lon="1.930167000">
        <ele>492.30</ele>
        <time>2013-12-23T13:24:02Z</time>
      </trkpt>
      <trkpt lat="41.627663000" lon="1.930624000">
        <ele>495.70</ele>
        <time>2013-12-23T13:24:14Z</time>
      </trkpt>
      <trkpt lat="41.627762000" lon="1.931133000">
        <ele>497.60</ele>
        <time>2013-12-23T13:24:26Z</time>
      </trkpt>
      <trkpt lat="41.628044000" lon="1.931774000">
        <ele>500.00</ele>
        <time>2013-12-23T13:24:42Z</time>
      </trkpt>
      <trkpt lat="41.628120000" lon="1.932256000">
        <ele>502.90</ele>
        <time>2013-12-23T13:24:54Z</time>
      </trkpt>
      <trkpt lat="41.627796000" lon="1.932462000">
        <ele>506.30</ele>
        <time>2013-12-23T13:25:08Z</time>
      </trkpt>
      <trkpt lat="41.627419000" lon="1.932632000">
        <ele>508.70</ele>
        <time>2013-12-23T13:25:22Z</time>
      </trkpt>
      <trkpt lat="41.626854000" lon="1.932888000">
        <ele>510.60</ele>
        <time>2013-12-23T13:25:41Z</time>
      </trkpt>
      <trkpt lat="41.626446000" lon="1.933077000">
        <ele>512.00</ele>
        <time>2013-12-23T13:25:55Z</time>
      </trkpt>
      <trkpt lat="41.626190000" lon="1.933449000">
        <ele>514.00</ele>
        <time>2013-12-23T13:26:07Z</time>
      </trkpt>
      <trkpt lat="41.626141000" lon="1.933609000">
        <ele>514.90</ele>
        <time>2013-12-23T13:26:11Z</time>
      </trkpt>
      <trkpt lat="41.625980000" lon="1.933684000">
        <ele>514.90</ele>
        <time>2013-12-23T13:26:18Z</time>
      </trkpt>
      <trkpt lat="41.625904000" lon="1.933851000">
        <ele>513.50</ele>
        <time>2013-12-23T13:26:23Z</time>
      </trkpt>
      <trkpt lat="41.625885000" lon="1.934030000">
        <ele>512.00</ele>
        <time>2013-12-23T13:26:25Z</time>
      </trkpt>
      <trkpt lat="41.625874000" lon="1.934169000">
        <ele>511.10</ele>
        <time>2013-12-23T13:26:28Z</time>
      </trkpt>
      <trkpt lat="41.625583000" lon="1.934600000">
        <ele>508.70</ele>
        <time>2013-12-23T13:26:37Z</time>
      </trkpt>
      <trkpt lat="41.625338000" lon="1.936295000">
        <ele>20.80</ele>
        <time>2013-12-23T13:26:37Z</time>
      </trkpt>
      <trkpt lat="41.625788000" lon="1.937408000">
        <ele>20.80</ele>
        <time>2013-12-23T13:26:37Z</time>
      </trkpt>
      <trkpt lat="41.624504000" lon="1.939059000">
        <ele>20.80</ele>
        <time>2013-12-23T13:26:37Z</time>
      </trkpt>
      <trkpt lat="41.624460000" lon="1.940460000">
        <ele>20.80</ele>
        <time>2013-12-23T13:26:37Z</time>
      </trkpt>
      <trkpt lat="41.624196000" lon="1.940922000">
        <ele>20.80</ele>
        <time>2013-12-23T13:26:37Z</time>
      </trkpt>
      <trkpt lat="41.623527000" lon="1.940857000">
        <ele>20.80</ele>
        <time>2013-12-23T13:26:37Z</time>
      </trkpt>
      <trkpt lat="41.623123000" lon="1.940584000">
        <ele>20.80</ele>
        <time>2013-12-23T13:26:37Z</time>
      </trkpt>
      <trkpt lat="41.623578000" lon="1.942028000">
        <ele>20.80</ele>
        <time>2013-12-23T13:26:37Z</time>
      </trkpt>
      <trkpt lat="41.623319000" lon="1.942395000">
        <ele>20.80</ele>
        <time>2013-12-23T13:26:37Z</time>
      </trkpt>
      <trkpt lat="41.623028000" lon="1.942583000">
        <ele>20.80</ele>
        <time>2013-12-23T13:26:37Z</time>
      </trkpt>
      <trkpt lat="41.622896000" lon="1.943067000">
        <ele>20.80</ele>
        <time>2013-12-23T13:26:37Z</time>
      </trkpt>
      <trkpt lat="41.622071000" lon="1.943149000">
        <ele>20.80</ele>
        <time>2013-12-23T13:26:37Z</time>
      </trkpt>
      <trkpt lat="41.622234000" lon="1.944085000">
        <ele>20.80</ele>
        <time>2013-12-23T13:26:37Z</time>
      </trkpt>
      <trkpt lat="41.621686000" lon="1.944301000">
        <ele>20.80</ele>
        <time>2013-12-23T13:26:37Z</time>
      </trkpt>
      <trkpt lat="41.621271000" lon="1.943987000">
        <ele>20.80</ele>
        <time>2013-12-23T13:26:37Z</time>
      </trkpt>
      <trkpt lat="41.621035000" lon="1.944517000">
        <ele>20.80</ele>
        <time>2013-12-23T13:26:37Z</time>
      </trkpt>
      <trkpt lat="41.621149000" lon="1.945707000">
        <ele>20.80</ele>
        <time>2013-12-23T13:26:37Z</time>
      </trkpt>
      <trkpt lat="41.620583000" lon="1.945899000">
        <ele>20.80</ele>
        <time>2013-12-23T13:26:37Z</time>
      </trkpt>
      <trkpt lat="41.620502000" lon="1.946382000">
        <ele>20.80</ele>
        <time>2013-12-23T13:26:37Z</time>
      </trkpt>
      <trkpt lat="41.621426000" lon="1.947833000">
        <ele>20.80</ele>
        <time>2013-12-23T13:26:37Z</time>
      </trkpt>
      <trkpt lat="41.621112000" lon="1.949144000">
        <ele>20.80</ele>
        <time>2013-12-23T13:26:37Z</time>
      </trkpt>
      <trkpt lat="41.620976000" lon="1.951185000">
        <ele>20.80</ele>
        <time>2013-12-23T13:26:37Z</time>
      </trkpt>
      <trkpt lat="41.620633000" lon="1.951328000">
        <ele>20.80</ele>
        <time>2013-12-23T13:26:37Z</time>
      </trkpt>
      <trkpt lat="41.620290000" lon="1.951379000">
        <ele>20.80</ele>
        <time>2013-12-23T13:26:37Z</time>
      </trkpt>
      <trkpt lat="41.620557000" lon="1.952429000">
        <ele>20.80</ele>
        <time>2013-12-23T13:26:37Z</time>
      </trkpt>
      <trkpt lat="41.620626000" lon="1.952382000">
        <ele>20.80</ele>
        <time>2013-12-23T13:26:37Z</time>
      </trkpt>
      <trkpt lat="41.619425000" lon="1.952654000">
        <ele>20.80</ele>
        <time>2013-12-23T13:26:37Z</time>
      </trkpt>
      <trkpt lat="41.619280000" lon="1.953733000">
        <ele>20.80</ele>
        <time>2013-12-23T13:26:37Z</time>
      </trkpt>
      <trkpt lat="41.619425000" lon="1.952654000">
        <ele>20.80</ele>
        <time>2013-12-23T13:26:37Z</time>
      </trkpt>
      <trkpt lat="41.620626000" lon="1.952382000">
        <ele>20.80</ele>
        <time>2013-12-23T13:26:37Z</time>
      </trkpt>
      <trkpt lat="41.620290000" lon="1.951379000">
        <ele>20.80</ele>
        <time>2013-12-23T13:26:37Z</time>
      </trkpt>
      <trkpt lat="41.620976000" lon="1.951185000">
        <ele>20.80</ele>
        <time>2013-12-23T13:26:37Z</time>
      </trkpt>
      <trkpt lat="41.621112000" lon="1.949144000">
        <ele>20.80</ele>
        <time>2013-12-23T13:26:37Z</time>
      </trkpt>
      <trkpt lat="41.621426000" lon="1.947833000">
        <ele>20.80</ele>
        <time>2013-12-23T13:26:37Z</time>
      </trkpt>
      <trkpt lat="41.620502000" lon="1.946382000">
        <ele>20.80</ele>
        <time>2013-12-23T13:26:37Z</time>
      </trkpt>
      <trkpt lat="41.620583000" lon="1.945899000">
        <ele>20.80</ele>
        <time>2013-12-23T13:26:37Z</time>
      </trkpt>
      <trkpt lat="41.621149000" lon="1.945707000">
        <ele>20.80</ele>
        <time>2013-12-23T13:26:37Z</time>
      </trkpt>
      <trkpt lat="41.621035000" lon="1.944517000">
        <ele>20.80</ele>
        <time>2013-12-23T13:26:37Z</time>
      </trkpt>
      <trkpt lat="41.621035000" lon="1.944517000">
        <ele>20.80</ele>
        <time>2013-12-23T13:26:37Z</time>
      </trkpt>
      <trkpt lat="41.621271000" lon="1.943987000">
        <ele>20.80</ele>
        <time>2013-12-23T13:26:37Z</time>
      </trkpt>
      <trkpt lat="41.621686000" lon="1.944301000">
        <ele>20.80</ele>
        <time>2013-12-23T13:26:37Z</time>
      </trkpt>
      <trkpt lat="41.622234000" lon="1.944085000">
        <ele>20.80</ele>
        <time>2013-12-23T13:26:37Z</time>
      </trkpt>
      <trkpt lat="41.622071000" lon="1.943149000">
        <ele>20.80</ele>
        <time>2013-12-23T13:26:37Z</time>
      </trkpt>
      <trkpt lat="41.622896000" lon="1.943067000">
        <ele>20.80</ele>
        <time>2013-12-23T13:26:37Z</time>
      </trkpt>
      <trkpt lat="41.623319000" lon="1.942395000">
        <ele>20.80</ele>
        <time>2013-12-23T13:26:37Z</time>
      </trkpt>
      <trkpt lat="41.623578000" lon="1.942028000">
        <ele>20.80</ele>
        <time>2013-12-23T13:26:37Z</time>
      </trkpt>
      <trkpt lat="41.623578000" lon="1.942028000">
        <ele>20.80</ele>
        <time>2013-12-23T13:26:37Z</time>
      </trkpt>
      <trkpt lat="41.623578000" lon="1.942028000">
        <ele>20.80</ele>
        <time>2013-12-23T13:26:37Z</time>
      </trkpt>
      <trkpt lat="41.623578000" lon="1.942028000">
        <ele>20.80</ele>
        <time>2013-12-23T13:26:37Z</time>
      </trkpt>
      <trkpt lat="41.623123000" lon="1.940584000">
        <ele>20.80</ele>
        <time>2013-12-23T13:26:37Z</time>
      </trkpt>
      <trkpt lat="41.623527000" lon="1.940857000">
        <ele>20.80</ele>
        <time>2013-12-23T13:26:37Z</time>
      </trkpt>
      <trkpt lat="41.624196000" lon="1.940922000">
        <ele>20.80</ele>
        <time>2013-12-23T13:26:37Z</time>
      </trkpt>
      <trkpt lat="41.624460000" lon="1.940460000">
        <ele>20.80</ele>
        <time>2013-12-23T13:26:37Z</time>
      </trkpt>
      <trkpt lat="41.624460000" lon="1.940460000">
        <ele>20.80</ele>
        <time>2013-12-23T13:26:37Z</time>
      </trkpt>
      <trkpt lat="41.624460000" lon="1.940460000">
        <ele>20.80</ele>
        <time>2013-12-23T13:26:37Z</time>
      </trkpt>
      <trkpt lat="41.624504000" lon="1.939059000">
        <ele>20.80</ele>
        <time>2013-12-23T13:26:37Z</time>
      </trkpt>
      <trkpt lat="41.625788000" lon="1.937408000">
        <ele>20.80</ele>
        <time>2013-12-23T13:26:37Z</time>
      </trkpt>
      <trkpt lat="41.625338000" lon="1.936295000">
        <ele>20.80</ele>
        <time>2013-12-23T13:26:37Z</time>
      </trkpt>
      <trkpt lat="41.625530000" lon="1.934590000">
        <ele>507.70</ele>
        <time>2013-12-23T13:26:37Z</time>
      </trkpt>
      <trkpt lat="41.625401000" lon="1.934546000">
        <ele>506.30</ele>
        <time>2013-12-23T13:26:40Z</time>
      </trkpt>
      <trkpt lat="41.625046000" lon="1.934386000">
        <ele>502.40</ele>
        <time>2013-12-23T13:26:44Z</time>
      </trkpt>
      <trkpt lat="41.624825000" lon="1.934294000">
        <ele>499.10</ele>
        <time>2013-12-23T13:26:47Z</time>
      </trkpt>
      <trkpt lat="41.624592000" lon="1.934245000">
        <ele>496.70</ele>
        <time>2013-12-23T13:26:51Z</time>
      </trkpt>
      <trkpt lat="41.624447000" lon="1.934476000">
        <ele>492.80</ele>
        <time>2013-12-23T13:26:56Z</time>
      </trkpt>
      <trkpt lat="41.624489000" lon="1.934580000">
        <ele>492.30</ele>
        <time>2013-12-23T13:27:03Z</time>
      </trkpt>
      <trkpt lat="41.624489000" lon="1.934611000">
        <ele>492.30</ele>
        <time>2013-12-23T13:27:10Z</time>
      </trkpt>
      <trkpt lat="41.624577000" lon="1.934786000">
        <ele>490.40</ele>
        <time>2013-12-23T13:27:15Z</time>
      </trkpt>
      <trkpt lat="41.624638000" lon="1.934945000">
        <ele>489.50</ele>
        <time>2013-12-23T13:27:19Z</time>
      </trkpt>
      <trkpt lat="41.624619000" lon="1.935157000">
        <ele>487.00</ele>
        <time>2013-12-23T13:27:22Z</time>
      </trkpt>
      <trkpt lat="41.624542000" lon="1.935188000">
        <ele>487.00</ele>
        <time>2013-12-23T13:27:24Z</time>
      </trkpt>
      <trkpt lat="41.624306000" lon="1.935316000">
        <ele>486.60</ele>
        <time>2013-12-23T13:27:31Z</time>
      </trkpt>
      <trkpt lat="41.624268000" lon="1.935550000">
        <ele>484.60</ele>
        <time>2013-12-23T13:27:36Z</time>
      </trkpt>
      <trkpt lat="41.624275000" lon="1.935763000">
        <ele>482.20</ele>
        <time>2013-12-23T13:27:38Z</time>
      </trkpt>
      <trkpt lat="41.624241000" lon="1.935902000">
        <ele>480.30</ele>
        <time>2013-12-23T13:27:41Z</time>
      </trkpt>
      <trkpt lat="41.624084000" lon="1.935748000">
        <ele>478.40</ele>
        <time>2013-12-23T13:27:48Z</time>
      </trkpt>
      <trkpt lat="41.623962000" lon="1.935545000">
        <ele>475.50</ele>
        <time>2013-12-23T13:27:50Z</time>
      </trkpt>
      <trkpt lat="41.623817000" lon="1.935183000">
        <ele>473.10</ele>
        <time>2013-12-23T13:27:55Z</time>
      </trkpt>
      <trkpt lat="41.623775000" lon="1.935006000">
        <ele>470.70</ele>
        <time>2013-12-23T13:27:57Z</time>
      </trkpt>
      <trkpt lat="41.623638000" lon="1.934697000">
        <ele>466.40</ele>
        <time>2013-12-23T13:28:00Z</time>
      </trkpt>
      <trkpt lat="41.623573000" lon="1.934522000">
        <ele>464.50</ele>
        <time>2013-12-23T13:28:02Z</time>
      </trkpt>
      <trkpt lat="41.623360000" lon="1.934210000">
        <ele>459.20</ele>
        <time>2013-12-23T13:28:07Z</time>
      </trkpt>
      <trkpt lat="41.623241000" lon="1.934082000">
        <ele>457.20</ele>
        <time>2013-12-23T13:28:09Z</time>
      </trkpt>
      <trkpt lat="41.623135000" lon="1.933927000">
        <ele>455.80</ele>
        <time>2013-12-23T13:28:11Z</time>
      </trkpt>
      <trkpt lat="41.622997000" lon="1.933592000">
        <ele>453.40</ele>
        <time>2013-12-23T13:28:16Z</time>
      </trkpt>
      <trkpt lat="41.622944000" lon="1.933419000">
        <ele>451.50</ele>
        <time>2013-12-23T13:28:18Z</time>
      </trkpt>
      <trkpt lat="41.622665000" lon="1.933022000">
        <ele>449.10</ele>
        <time>2013-12-23T13:28:23Z</time>
      </trkpt>
      <trkpt lat="41.622509000" lon="1.932772000">
        <ele>445.70</ele>
        <time>2013-12-23T13:28:28Z</time>
      </trkpt>
      <trkpt lat="41.622166000" lon="1.932339000">
        <ele>441.40</ele>
        <time>2013-12-23T13:28:34Z</time>
      </trkpt>
      <trkpt lat="41.621975000" lon="1.932188000">
        <ele>441.40</ele>
        <time>2013-12-23T13:28:37Z</time>
      </trkpt>
      <trkpt lat="41.621853000" lon="1.932083000">
        <ele>440.90</ele>
        <time>2013-12-23T13:28:39Z</time>
      </trkpt>
      <trkpt lat="41.621616000" lon="1.931842000">
        <ele>438.50</ele>
        <time>2013-12-23T13:28:42Z</time>
      </trkpt>
      <trkpt lat="41.621559000" lon="1.931792000">
        <ele>438.00</ele>
        <time>2013-12-23T13:28:44Z</time>
      </trkpt>
      <trkpt lat="41.621277000" lon="1.931711000">
        <ele>434.20</ele>
        <time>2013-12-23T13:28:49Z</time>
      </trkpt>
      <trkpt lat="41.621201000" lon="1.931768000">
        <ele>433.20</ele>
        <time>2013-12-23T13:28:51Z</time>
      </trkpt>
      <trkpt lat="41.621124000" lon="1.931859000">
        <ele>432.20</ele>
        <time>2013-12-23T13:28:53Z</time>
      </trkpt>
      <trkpt lat="41.620953000" lon="1.931801000">
        <ele>431.80</ele>
        <time>2013-12-23T13:28:58Z</time>
      </trkpt>
      <trkpt lat="41.620949000" lon="1.931747000">
        <ele>431.80</ele>
        <time>2013-12-23T13:29:00Z</time>
      </trkpt>
      <trkpt lat="41.620983000" lon="1.931523000">
        <ele>431.30</ele>
        <time>2013-12-23T13:29:03Z</time>
      </trkpt>
      <trkpt lat="41.620991000" lon="1.931387000">
        <ele>430.30</ele>
        <time>2013-12-23T13:29:05Z</time>
      </trkpt>
      <trkpt lat="41.620987000" lon="1.931249000">
        <ele>430.30</ele>
        <time>2013-12-23T13:29:07Z</time>
      </trkpt>
      <trkpt lat="41.621002000" lon="1.931020000">
        <ele>430.30</ele>
        <time>2013-12-23T13:29:12Z</time>
      </trkpt>
      <trkpt lat="41.621048000" lon="1.930763000">
        <ele>428.90</ele>
        <time>2013-12-23T13:29:15Z</time>
      </trkpt>
      <trkpt lat="41.621086000" lon="1.930286000">
        <ele>425.50</ele>
        <time>2013-12-23T13:29:22Z</time>
      </trkpt>
      <trkpt lat="41.621098000" lon="1.930232000">
        <ele>429.40</ele>
        <time>2013-12-23T13:29:24Z</time>
      </trkpt>
      <trkpt lat="41.621105000" lon="1.930087000">
        <ele>429.90</ele>
        <time>2013-12-23T13:29:26Z</time>
      </trkpt>
      <trkpt lat="41.621166000" lon="1.929786000">
        <ele>428.40</ele>
        <time>2013-12-23T13:29:31Z</time>
      </trkpt>
      <trkpt lat="41.621174000" lon="1.929563000">
        <ele>427.40</ele>
        <time>2013-12-23T13:29:35Z</time>
      </trkpt>
      <trkpt lat="41.621235000" lon="1.929282000">
        <ele>427.00</ele>
        <time>2013-12-23T13:29:38Z</time>
      </trkpt>
      <trkpt lat="41.621239000" lon="1.928794000">
        <ele>428.90</ele>
        <time>2013-12-23T13:29:47Z</time>
      </trkpt>
      <trkpt lat="41.621258000" lon="1.928500000">
        <ele>429.90</ele>
        <time>2013-12-23T13:29:54Z</time>
      </trkpt>
      <trkpt lat="41.621262000" lon="1.928179000">
        <ele>429.40</ele>
        <time>2013-12-23T13:29:59Z</time>
      </trkpt>
      <trkpt lat="41.621227000" lon="1.928055000">
        <ele>429.90</ele>
        <time>2013-12-23T13:30:01Z</time>
      </trkpt>
      <trkpt lat="41.621189000" lon="1.927884000">
        <ele>430.80</ele>
        <time>2013-12-23T13:30:04Z</time>
      </trkpt>
      <trkpt lat="41.621132000" lon="1.927678000">
        <ele>431.30</ele>
        <time>2013-12-23T13:30:08Z</time>
      </trkpt>
      <trkpt lat="41.620850000" lon="1.927373000">
        <ele>430.30</ele>
        <time>2013-12-23T13:30:18Z</time>
      </trkpt>
      <trkpt lat="41.620670000" lon="1.927332000">
        <ele>428.90</ele>
        <time>2013-12-23T13:30:22Z</time>
      </trkpt>
      <trkpt lat="41.620472000" lon="1.927163000">
        <ele>429.40</ele>
        <time>2013-12-23T13:30:27Z</time>
      </trkpt>
      <trkpt lat="41.620483000" lon="1.926825000">
        <ele>431.80</ele>
        <time>2013-12-23T13:30:37Z</time>
      </trkpt>
      <trkpt lat="41.620453000" lon="1.926508000">
        <ele>434.20</ele>
        <time>2013-12-23T13:30:48Z</time>
      </trkpt>
      <trkpt lat="41.620438000" lon="1.926371000">
        <ele>435.60</ele>
        <time>2013-12-23T13:30:53Z</time>
      </trkpt>
      <trkpt lat="41.620380000" lon="1.926269000">
        <ele>435.60</ele>
        <time>2013-12-23T13:30:58Z</time>
      </trkpt>
      <trkpt lat="41.620152000" lon="1.926170000">
        <ele>438.00</ele>
        <time>2013-12-23T13:31:10Z</time>
      </trkpt>
      <trkpt lat="41.619961000" lon="1.926048000">
        <ele>440.90</ele>
        <time>2013-12-23T13:31:21Z</time>
      </trkpt>
      <trkpt lat="41.619774000" lon="1.925839000">
        <ele>443.30</ele>
        <time>2013-12-23T13:31:35Z</time>
      </trkpt>
      <trkpt lat="41.619633000" lon="1.925695000">
        <ele>446.20</ele>
        <time>2013-12-23T13:31:43Z</time>
      </trkpt>
      <trkpt lat="41.619534000" lon="1.925796000">
        <ele>446.70</ele>
        <time>2013-12-23T13:31:52Z</time>
      </trkpt>
      <trkpt lat="41.619541000" lon="1.926258000">
        <ele>443.30</ele>
        <time>2013-12-23T13:32:01Z</time>
      </trkpt>
      <trkpt lat="41.619530000" lon="1.926384000">
        <ele>442.30</ele>
        <time>2013-12-23T13:32:04Z</time>
      </trkpt>
      <trkpt lat="41.619522000" lon="1.926445000">
        <ele>441.90</ele>
        <time>2013-12-23T13:32:04Z</time>
      </trkpt>
      <trkpt lat="41.619450000" lon="1.926679000">
        <ele>439.50</ele>
        <time>2013-12-23T13:32:08Z</time>
      </trkpt>
      <trkpt lat="41.619362000" lon="1.926860000">
        <ele>436.60</ele>
        <time>2013-12-23T13:32:11Z</time>
      </trkpt>
      <trkpt lat="41.619122000" lon="1.927040000">
        <ele>432.70</ele>
        <time>2013-12-23T13:32:17Z</time>
      </trkpt>
      <trkpt lat="41.618946000" lon="1.926967000">
        <ele>428.40</ele>
        <time>2013-12-23T13:32:20Z</time>
      </trkpt>
      <trkpt lat="41.618774000" lon="1.926856000">
        <ele>427.00</ele>
        <time>2013-12-23T13:32:25Z</time>
      </trkpt>
      <trkpt lat="41.618576000" lon="1.926852000">
        <ele>426.00</ele>
        <time>2013-12-23T13:32:29Z</time>
      </trkpt>
      <trkpt lat="41.618225000" lon="1.927068000">
        <ele>425.50</ele>
        <time>2013-12-23T13:32:39Z</time>
      </trkpt>
      <trkpt lat="41.618080000" lon="1.927257000">
        <ele>424.10</ele>
        <time>2013-12-23T13:32:43Z</time>
      </trkpt>
      <trkpt lat="41.617863000" lon="1.927425000">
        <ele>423.10</ele>
        <time>2013-12-23T13:32:48Z</time>
      </trkpt>
      <trkpt lat="41.617592000" lon="1.927292000">
        <ele>419.80</ele>
        <time>2013-12-23T13:32:53Z</time>
      </trkpt>
      <trkpt lat="41.617493000" lon="1.927148000">
        <ele>417.80</ele>
        <time>2013-12-23T13:32:57Z</time>
      </trkpt>
      <trkpt lat="41.617405000" lon="1.927157000">
        <ele>417.80</ele>
        <time>2013-12-23T13:33:00Z</time>
      </trkpt>
      <trkpt lat="41.617214000" lon="1.927294000">
        <ele>415.90</ele>
        <time>2013-12-23T13:33:05Z</time>
      </trkpt>
      <trkpt lat="41.617104000" lon="1.927315000">
        <ele>414.50</ele>
        <time>2013-12-23T13:33:07Z</time>
      </trkpt>
      <trkpt lat="41.616993000" lon="1.927321000">
        <ele>414.50</ele>
        <time>2013-12-23T13:33:09Z</time>
      </trkpt>
      <trkpt lat="41.616760000" lon="1.927278000">
        <ele>412.50</ele>
        <time>2013-12-23T13:33:12Z</time>
      </trkpt>
      <trkpt lat="41.616665000" lon="1.927243000">
        <ele>411.60</ele>
        <time>2013-12-23T13:33:14Z</time>
      </trkpt>
      <trkpt lat="41.616570000" lon="1.927452000">
        <ele>411.10</ele>
        <time>2013-12-23T13:33:19Z</time>
      </trkpt>
      <trkpt lat="41.616577000" lon="1.927590000">
        <ele>411.10</ele>
        <time>2013-12-23T13:33:26Z</time>
      </trkpt>
      <trkpt lat="41.616562000" lon="1.927138000">
        <ele>410.60</ele>
        <time>2013-12-23T13:33:40Z</time>
      </trkpt>
      <trkpt lat="41.616547000" lon="1.926823000">
        <ele>407.70</ele>
        <time>2013-12-23T13:33:47Z</time>
      </trkpt>
      <trkpt lat="41.616474000" lon="1.926800000">
        <ele>407.30</ele>
        <time>2013-12-23T13:33:52Z</time>
      </trkpt>
      <trkpt lat="41.616425000" lon="1.926709000">
        <ele>404.90</ele>
        <time>2013-12-23T13:33:56Z</time>
      </trkpt>
      <trkpt lat="41.616451000" lon="1.926349000">
        <ele>401.50</ele>
        <time>2013-12-23T13:34:03Z</time>
      </trkpt>
      <trkpt lat="41.616451000" lon="1.926283000">
        <ele>400.50</ele>
        <time>2013-12-23T13:34:03Z</time>
      </trkpt>
      <trkpt lat="41.616512000" lon="1.926042000">
        <ele>397.60</ele>
        <time>2013-12-23T13:34:10Z</time>
      </trkpt>
      <trkpt lat="41.616577000" lon="1.925973000">
        <ele>396.20</ele>
        <time>2013-12-23T13:34:13Z</time>
      </trkpt>
      <trkpt lat="41.616707000" lon="1.925990000">
        <ele>393.80</ele>
        <time>2013-12-23T13:34:17Z</time>
      </trkpt>
      <trkpt lat="41.616730000" lon="1.925991000">
        <ele>393.30</ele>
        <time>2013-12-23T13:34:18Z</time>
      </trkpt>
      <trkpt lat="41.616837000" lon="1.926008000">
        <ele>391.90</ele>
        <time>2013-12-23T13:34:24Z</time>
      </trkpt>
      <trkpt lat="41.616886000" lon="1.926010000">
        <ele>391.40</ele>
        <time>2013-12-23T13:34:27Z</time>
      </trkpt>
      <trkpt lat="41.616940000" lon="1.925995000">
        <ele>390.00</ele>
        <time>2013-12-23T13:34:29Z</time>
      </trkpt>
      <trkpt lat="41.617031000" lon="1.925908000">
        <ele>389.50</ele>
        <time>2013-12-23T13:34:34Z</time>
      </trkpt>
      <trkpt lat="41.617050000" lon="1.925673000">
        <ele>389.00</ele>
        <time>2013-12-23T13:34:41Z</time>
      </trkpt>
      <trkpt lat="41.617039000" lon="1.925383000">
        <ele>386.60</ele>
        <time>2013-12-23T13:34:50Z</time>
      </trkpt>
      <trkpt lat="41.617031000" lon="1.925339000">
        <ele>386.60</ele>
        <time>2013-12-23T13:34:50Z</time>
      </trkpt>
      <trkpt lat="41.617031000" lon="1.925267000">
        <ele>386.10</ele>
        <time>2013-12-23T13:34:53Z</time>
      </trkpt>
      <trkpt lat="41.617035000" lon="1.925125000">
        <ele>383.70</ele>
        <time>2013-12-23T13:34:59Z</time>
      </trkpt>
      <trkpt lat="41.617031000" lon="1.925064000">
        <ele>382.30</ele>
        <time>2013-12-23T13:35:09Z</time>
      </trkpt>
      <trkpt lat="41.617031000" lon="1.925058000">
        <ele>382.30</ele>
        <time>2013-12-23T13:35:11Z</time>
      </trkpt>
      <trkpt lat="41.617096000" lon="1.924889000">
        <ele>378.40</ele>
        <time>2013-12-23T13:35:18Z</time>
      </trkpt>
      <trkpt lat="41.617111000" lon="1.924866000">
        <ele>378.40</ele>
        <time>2013-12-23T13:35:18Z</time>
      </trkpt>
      <trkpt lat="41.617199000" lon="1.924737000">
        <ele>376.50</ele>
        <time>2013-12-23T13:35:23Z</time>
      </trkpt>
      <trkpt lat="41.617275000" lon="1.924685000">
        <ele>375.50</ele>
        <time>2013-12-23T13:35:30Z</time>
      </trkpt>
      <trkpt lat="41.617287000" lon="1.924675000">
        <ele>375.00</ele>
        <time>2013-12-23T13:35:42Z</time>
      </trkpt>
      <trkpt lat="41.617264000" lon="1.924652000">
        <ele>374.10</ele>
        <time>2013-12-23T13:35:54Z</time>
      </trkpt>
      <trkpt lat="41.617264000" lon="1.924646000">
        <ele>373.60</ele>
        <time>2013-12-23T13:36:03Z</time>
      </trkpt>
      <trkpt lat="41.617283000" lon="1.924594000">
        <ele>373.60</ele>
        <time>2013-12-23T13:36:08Z</time>
      </trkpt>
      <trkpt lat="41.617363000" lon="1.924499000">
        <ele>371.70</ele>
        <time>2013-12-23T13:36:13Z</time>
      </trkpt>
      <trkpt lat="41.617401000" lon="1.924494000">
        <ele>371.20</ele>
        <time>2013-12-23T13:36:24Z</time>
      </trkpt>
      <trkpt lat="41.617428000" lon="1.924473000">
        <ele>369.80</ele>
        <time>2013-12-23T13:36:34Z</time>
      </trkpt>
      <trkpt lat="41.617615000" lon="1.924394000">
        <ele>368.30</ele>
        <time>2013-12-23T13:36:43Z</time>
      </trkpt>
      <trkpt lat="41.617619000" lon="1.924285000">
        <ele>368.30</ele>
        <time>2013-12-23T13:36:47Z</time>
      </trkpt>
      <trkpt lat="41.617619000" lon="1.924195000">
        <ele>367.80</ele>
        <time>2013-12-23T13:36:50Z</time>
      </trkpt>
      <trkpt lat="41.617565000" lon="1.924070000">
        <ele>367.40</ele>
        <time>2013-12-23T13:36:55Z</time>
      </trkpt>
      <trkpt lat="41.617512000" lon="1.923910000">
        <ele>367.80</ele>
        <time>2013-12-23T13:37:02Z</time>
      </trkpt>
      <trkpt lat="41.617424000" lon="1.923738000">
        <ele>364.50</ele>
        <time>2013-12-23T13:37:11Z</time>
      </trkpt>
      <trkpt lat="41.617393000" lon="1.923666000">
        <ele>362.10</ele>
        <time>2013-12-23T13:37:23Z</time>
      </trkpt>
      <trkpt lat="41.617367000" lon="1.923635000">
        <ele>360.60</ele>
        <time>2013-12-23T13:37:35Z</time>
      </trkpt>
      <trkpt lat="41.617332000" lon="1.923516000">
        <ele>359.70</ele>
        <time>2013-12-23T13:37:46Z</time>
      </trkpt>
      <trkpt lat="41.617317000" lon="1.923404000">
        <ele>358.70</ele>
        <time>2013-12-23T13:37:56Z</time>
      </trkpt>
      <trkpt lat="41.617271000" lon="1.923367000">
        <ele>359.20</ele>
        <time>2013-12-23T13:38:05Z</time>
      </trkpt>
      <trkpt lat="41.617218000" lon="1.923287000">
        <ele>360.60</ele>
        <time>2013-12-23T13:38:14Z</time>
      </trkpt>
      <trkpt lat="41.617218000" lon="1.923274000">
        <ele>360.60</ele>
        <time>2013-12-23T13:38:15Z</time>
      </trkpt>
      <trkpt lat="41.617222000" lon="1.923203000">
        <ele>361.10</ele>
        <time>2013-12-23T13:38:26Z</time>
      </trkpt>
      <trkpt lat="41.617302000" lon="1.922868000">
        <ele>360.10</ele>
        <time>2013-12-23T13:38:38Z</time>
      </trkpt>
      <trkpt lat="41.617393000" lon="1.922477000">
        <ele>359.20</ele>
        <time>2013-12-23T13:38:47Z</time>
      </trkpt>
      <trkpt lat="41.617405000" lon="1.922422000">
        <ele>359.20</ele>
        <time>2013-12-23T13:38:50Z</time>
      </trkpt>
      <trkpt lat="41.617390000" lon="1.922305000">
        <ele>360.10</ele>
        <time>2013-12-23T13:38:55Z</time>
      </trkpt>
      <trkpt lat="41.617371000" lon="1.922249000">
        <ele>360.60</ele>
        <time>2013-12-23T13:39:02Z</time>
      </trkpt>
      <trkpt lat="41.617317000" lon="1.922133000">
        <ele>364.00</ele>
        <time>2013-12-23T13:39:16Z</time>
      </trkpt>
      <trkpt lat="41.617310000" lon="1.922038000">
        <ele>365.90</ele>
        <time>2013-12-23T13:39:29Z</time>
      </trkpt>
      <trkpt lat="41.617287000" lon="1.921993000">
        <ele>365.90</ele>
        <time>2013-12-23T13:39:34Z</time>
      </trkpt>
      <trkpt lat="41.617290000" lon="1.921930000">
        <ele>366.40</ele>
        <time>2013-12-23T13:39:37Z</time>
      </trkpt>
      <trkpt lat="41.617317000" lon="1.921839000">
        <ele>366.40</ele>
        <time>2013-12-23T13:39:44Z</time>
      </trkpt>
      <trkpt lat="41.617363000" lon="1.921698000">
        <ele>367.80</ele>
        <time>2013-12-23T13:39:58Z</time>
      </trkpt>
      <trkpt lat="41.617393000" lon="1.921623000">
        <ele>368.30</ele>
        <time>2013-12-23T13:40:10Z</time>
      </trkpt>
      <trkpt lat="41.617527000" lon="1.921338000">
        <ele>369.80</ele>
        <time>2013-12-23T13:40:23Z</time>
      </trkpt>
      <trkpt lat="41.617538000" lon="1.921314000">
        <ele>368.80</ele>
        <time>2013-12-23T13:40:24Z</time>
      </trkpt>
      <trkpt lat="41.617538000" lon="1.921128000">
        <ele>371.20</ele>
        <time>2013-12-23T13:40:31Z</time>
      </trkpt>
      <trkpt lat="41.617523000" lon="1.921049000">
        <ele>372.20</ele>
        <time>2013-12-23T13:40:42Z</time>
      </trkpt>
      <trkpt lat="41.617481000" lon="1.920886000">
        <ele>372.60</ele>
        <time>2013-12-23T13:40:54Z</time>
      </trkpt>
      <trkpt lat="41.617439000" lon="1.920759000">
        <ele>372.20</ele>
        <time>2013-12-23T13:41:04Z</time>
      </trkpt>
      <trkpt lat="41.617428000" lon="1.920676000">
        <ele>371.70</ele>
        <time>2013-12-23T13:41:11Z</time>
      </trkpt>
      <trkpt lat="41.617386000" lon="1.920550000">
        <ele>372.60</ele>
        <time>2013-12-23T13:41:22Z</time>
      </trkpt>
      <trkpt lat="41.617344000" lon="1.920416000">
        <ele>372.20</ele>
        <time>2013-12-23T13:41:34Z</time>
      </trkpt>
      <trkpt lat="41.617336000" lon="1.920402000">
        <ele>371.70</ele>
        <time>2013-12-23T13:41:43Z</time>
      </trkpt>
      <trkpt lat="41.617336000" lon="1.920368000">
        <ele>372.20</ele>
        <time>2013-12-23T13:41:44Z</time>
      </trkpt>
      <trkpt lat="41.617435000" lon="1.920207000">
        <ele>370.20</ele>
        <time>2013-12-23T13:41:55Z</time>
      </trkpt>
      <trkpt lat="41.617504000" lon="1.920232000">
        <ele>370.70</ele>
        <time>2013-12-23T13:42:00Z</time>
      </trkpt>
      <trkpt lat="41.617645000" lon="1.920289000">
        <ele>370.70</ele>
        <time>2013-12-23T13:42:07Z</time>
      </trkpt>
      <trkpt lat="41.617710000" lon="1.920337000">
        <ele>371.70</ele>
        <time>2013-12-23T13:42:16Z</time>
      </trkpt>
      <trkpt lat="41.617767000" lon="1.920360000">
        <ele>373.10</ele>
        <time>2013-12-23T13:42:26Z</time>
      </trkpt>
      <trkpt lat="41.617855000" lon="1.920350000">
        <ele>374.60</ele>
        <time>2013-12-23T13:42:40Z</time>
      </trkpt>
      <trkpt lat="41.617844000" lon="1.920247000">
        <ele>377.00</ele>
        <time>2013-12-23T13:42:52Z</time>
      </trkpt>
      <trkpt lat="41.617783000" lon="1.920163000">
        <ele>378.90</ele>
        <time>2013-12-23T13:43:05Z</time>
      </trkpt>
      <trkpt lat="41.617718000" lon="1.920125000">
        <ele>379.40</ele>
        <time>2013-12-23T13:43:13Z</time>
      </trkpt>
      <trkpt lat="41.617661000" lon="1.920022000">
        <ele>380.30</ele>
        <time>2013-12-23T13:43:25Z</time>
      </trkpt>
      <trkpt lat="41.617645000" lon="1.919973000">
        <ele>380.30</ele>
        <time>2013-12-23T13:43:29Z</time>
      </trkpt>
      <trkpt lat="41.617611000" lon="1.919857000">
        <ele>380.80</ele>
        <time>2013-12-23T13:43:38Z</time>
      </trkpt>
      <trkpt lat="41.617516000" lon="1.919832000">
        <ele>381.30</ele>
        <time>2013-12-23T13:43:50Z</time>
      </trkpt>
      <trkpt lat="41.617401000" lon="1.919776000">
        <ele>382.30</ele>
        <time>2013-12-23T13:44:04Z</time>
      </trkpt>
      <trkpt lat="41.617317000" lon="1.919667000">
        <ele>383.20</ele>
        <time>2013-12-23T13:44:18Z</time>
      </trkpt>
      <trkpt lat="41.617310000" lon="1.919612000">
        <ele>384.20</ele>
        <time>2013-12-23T13:44:23Z</time>
      </trkpt>
      <trkpt lat="41.617268000" lon="1.919509000">
        <ele>385.60</ele>
        <time>2013-12-23T13:44:37Z</time>
      </trkpt>
      <trkpt lat="41.617176000" lon="1.919411000">
        <ele>387.50</ele>
        <time>2013-12-23T13:44:53Z</time>
      </trkpt>
      <trkpt lat="41.617065000" lon="1.919305000">
        <ele>388.00</ele>
        <time>2013-12-23T13:45:08Z</time>
      </trkpt>
      <trkpt lat="41.617001000" lon="1.919214000">
        <ele>389.50</ele>
        <time>2013-12-23T13:45:20Z</time>
      </trkpt>
      <trkpt lat="41.616985000" lon="1.919204000">
        <ele>390.40</ele>
        <time>2013-12-23T13:45:22Z</time>
      </trkpt>
      <trkpt lat="41.616978000" lon="1.919198000">
        <ele>389.50</ele>
        <time>2013-12-23T13:45:24Z</time>
      </trkpt>
      <trkpt lat="41.616879000" lon="1.919087000">
        <ele>390.40</ele>
        <time>2013-12-23T13:45:36Z</time>
      </trkpt>
      <trkpt lat="41.616833000" lon="1.918987000">
        <ele>390.00</ele>
        <time>2013-12-23T13:45:48Z</time>
      </trkpt>
      <trkpt lat="41.616764000" lon="1.918882000">
        <ele>390.00</ele>
        <time>2013-12-23T13:45:57Z</time>
      </trkpt>
      <trkpt lat="41.616703000" lon="1.918883000">
        <ele>390.00</ele>
        <time>2013-12-23T13:46:02Z</time>
      </trkpt>
      <trkpt lat="41.616631000" lon="1.918840000">
        <ele>391.40</ele>
        <time>2013-12-23T13:46:16Z</time>
      </trkpt>
      <trkpt lat="41.616573000" lon="1.918797000">
        <ele>391.90</ele>
        <time>2013-12-23T13:46:23Z</time>
      </trkpt>
      <trkpt lat="41.616508000" lon="1.918736000">
        <ele>393.30</ele>
        <time>2013-12-23T13:46:37Z</time>
      </trkpt>
      <trkpt lat="41.616489000" lon="1.918739000">
        <ele>393.30</ele>
        <time>2013-12-23T13:46:39Z</time>
      </trkpt>
      <trkpt lat="41.616436000" lon="1.918784000">
        <ele>394.30</ele>
        <time>2013-12-23T13:46:46Z</time>
      </trkpt>
      <trkpt lat="41.616341000" lon="1.918815000">
        <ele>395.70</ele>
        <time>2013-12-23T13:47:01Z</time>
      </trkpt>
      <trkpt lat="41.616291000" lon="1.918840000">
        <ele>396.20</ele>
        <time>2013-12-23T13:47:05Z</time>
      </trkpt>
      <trkpt lat="41.616234000" lon="1.918851000">
        <ele>396.70</ele>
        <time>2013-12-23T13:47:12Z</time>
      </trkpt>
      <trkpt lat="41.616108000" lon="1.918802000">
        <ele>397.60</ele>
        <time>2013-12-23T13:47:26Z</time>
      </trkpt>
      <trkpt lat="41.616013000" lon="1.918758000">
        <ele>399.60</ele>
        <time>2013-12-23T13:47:40Z</time>
      </trkpt>
      <trkpt lat="41.615913000" lon="1.918713000">
        <ele>400.50</ele>
        <time>2013-12-23T13:47:54Z</time>
      </trkpt>
      <trkpt lat="41.615807000" lon="1.918703000">
        <ele>403.40</ele>
        <time>2013-12-23T13:48:06Z</time>
      </trkpt>
      <trkpt lat="41.615696000" lon="1.918662000">
        <ele>403.90</ele>
        <time>2013-12-23T13:48:20Z</time>
      </trkpt>
      <trkpt lat="41.615627000" lon="1.918670000">
        <ele>404.40</ele>
        <time>2013-12-23T13:48:30Z</time>
      </trkpt>
      <trkpt lat="41.615505000" lon="1.918627000">
        <ele>404.90</ele>
        <time>2013-12-23T13:48:44Z</time>
      </trkpt>
      <trkpt lat="41.615395000" lon="1.918567000">
        <ele>406.30</ele>
        <time>2013-12-23T13:49:00Z</time>
      </trkpt>
      <trkpt lat="41.615376000" lon="1.918575000">
        <ele>406.30</ele>
        <time>2013-12-23T13:49:02Z</time>
      </trkpt>
      <trkpt lat="41.615223000" lon="1.918535000">
        <ele>407.70</ele>
        <time>2013-12-23T13:49:16Z</time>
      </trkpt>
      <trkpt lat="41.615177000" lon="1.918508000">
        <ele>407.70</ele>
        <time>2013-12-23T13:49:19Z</time>
      </trkpt>
      <trkpt lat="41.615139000" lon="1.918472000">
        <ele>407.70</ele>
        <time>2013-12-23T13:49:24Z</time>
      </trkpt>
      <trkpt lat="41.615086000" lon="1.918462000">
        <ele>407.30</ele>
        <time>2013-12-23T13:49:31Z</time>
      </trkpt>
      <trkpt lat="41.614986000" lon="1.918482000">
        <ele>408.70</ele>
        <time>2013-12-23T13:49:45Z</time>
      </trkpt>
      <trkpt lat="41.614971000" lon="1.918476000">
        <ele>410.10</ele>
        <time>2013-12-23T13:49:56Z</time>
      </trkpt>
      <trkpt lat="41.614933000" lon="1.918446000">
        <ele>412.10</ele>
        <time>2013-12-23T13:50:06Z</time>
      </trkpt>
      <trkpt lat="41.614868000" lon="1.918431000">
        <ele>414.00</ele>
        <time>2013-12-23T13:50:22Z</time>
      </trkpt>
      <trkpt lat="41.614864000" lon="1.918385000">
        <ele>415.40</ele>
        <time>2013-12-23T13:50:32Z</time>
      </trkpt>
      <trkpt lat="41.614883000" lon="1.918303000">
        <ele>416.90</ele>
        <time>2013-12-23T13:50:43Z</time>
      </trkpt>
      <trkpt lat="41.614876000" lon="1.918219000">
        <ele>418.30</ele>
        <time>2013-12-23T13:50:55Z</time>
      </trkpt>
      <trkpt lat="41.614815000" lon="1.918240000">
        <ele>419.80</ele>
        <time>2013-12-23T13:51:07Z</time>
      </trkpt>
      <trkpt lat="41.614761000" lon="1.918232000">
        <ele>422.20</ele>
        <time>2013-12-23T13:51:19Z</time>
      </trkpt>
      <trkpt lat="41.614727000" lon="1.918222000">
        <ele>423.10</ele>
        <time>2013-12-23T13:51:30Z</time>
      </trkpt>
      <trkpt lat="41.614662000" lon="1.918154000">
        <ele>423.60</ele>
        <time>2013-12-23T13:51:42Z</time>
      </trkpt>
      <trkpt lat="41.614620000" lon="1.918076000">
        <ele>425.00</ele>
        <time>2013-12-23T13:51:56Z</time>
      </trkpt>
      <trkpt lat="41.614651000" lon="1.918049000">
        <ele>426.00</ele>
        <time>2013-12-23T13:52:10Z</time>
      </trkpt>
      <trkpt lat="41.614658000" lon="1.918052000">
        <ele>426.50</ele>
        <time>2013-12-23T13:52:10Z</time>
      </trkpt>
      <trkpt lat="41.614769000" lon="1.918061000">
        <ele>427.90</ele>
        <time>2013-12-23T13:52:27Z</time>
      </trkpt>
      <trkpt lat="41.614708000" lon="1.918021000">
        <ele>430.30</ele>
        <time>2013-12-23T13:52:41Z</time>
      </trkpt>
      <trkpt lat="41.614662000" lon="1.917965000">
        <ele>430.80</ele>
        <time>2013-12-23T13:52:53Z</time>
      </trkpt>
      <trkpt lat="41.614605000" lon="1.917902000">
        <ele>432.70</ele>
        <time>2013-12-23T13:53:04Z</time>
      </trkpt>
      <trkpt lat="41.614601000" lon="1.917853000">
        <ele>434.60</ele>
        <time>2013-12-23T13:53:16Z</time>
      </trkpt>
      <trkpt lat="41.614567000" lon="1.917762000">
        <ele>436.10</ele>
        <time>2013-12-23T13:53:28Z</time>
      </trkpt>
      <trkpt lat="41.614506000" lon="1.917717000">
        <ele>437.50</ele>
        <time>2013-12-23T13:53:42Z</time>
      </trkpt>
      <trkpt lat="41.614536000" lon="1.917715000">
        <ele>436.60</ele>
        <time>2013-12-23T13:54:05Z</time>
      </trkpt>
      <trkpt lat="41.614536000" lon="1.917723000">
        <ele>437.10</ele>
        <time>2013-12-23T13:54:15Z</time>
      </trkpt>
      <trkpt lat="41.614510000" lon="1.917686000">
        <ele>438.50</ele>
        <time>2013-12-23T13:54:26Z</time>
      </trkpt>
      <trkpt lat="41.614494000" lon="1.917674000">
        <ele>439.00</ele>
        <time>2013-12-23T13:54:43Z</time>
      </trkpt>
      <trkpt lat="41.614441000" lon="1.917615000">
        <ele>440.90</ele>
        <time>2013-12-23T13:54:57Z</time>
      </trkpt>
      <trkpt lat="41.614365000" lon="1.917532000">
        <ele>442.80</ele>
        <time>2013-12-23T13:55:07Z</time>
      </trkpt>
      <trkpt lat="41.614292000" lon="1.917424000">
        <ele>443.80</ele>
        <time>2013-12-23T13:55:21Z</time>
      </trkpt>
      <trkpt lat="41.614204000" lon="1.917309000">
        <ele>444.80</ele>
        <time>2013-12-23T13:55:35Z</time>
      </trkpt>
      <trkpt lat="41.614117000" lon="1.917345000">
        <ele>445.20</ele>
        <time>2013-12-23T13:55:46Z</time>
      </trkpt>
      <trkpt lat="41.614063000" lon="1.917350000">
        <ele>446.70</ele>
        <time>2013-12-23T13:56:00Z</time>
      </trkpt>
      <trkpt lat="41.613960000" lon="1.917364000">
        <ele>449.10</ele>
        <time>2013-12-23T13:56:14Z</time>
      </trkpt>
      <trkpt lat="41.613857000" lon="1.917326000">
        <ele>450.00</ele>
        <time>2013-12-23T13:56:26Z</time>
      </trkpt>
      <trkpt lat="41.613731000" lon="1.917226000">
        <ele>450.50</ele>
        <time>2013-12-23T13:56:40Z</time>
      </trkpt>
      <trkpt lat="41.613640000" lon="1.917197000">
        <ele>452.00</ele>
        <time>2013-12-23T13:56:52Z</time>
      </trkpt>
      <trkpt lat="41.613609000" lon="1.917159000">
        <ele>453.90</ele>
        <time>2013-12-23T13:57:02Z</time>
      </trkpt>
      <trkpt lat="41.613586000" lon="1.917138000">
        <ele>455.80</ele>
        <time>2013-12-23T13:57:18Z</time>
      </trkpt>
      <trkpt lat="41.613579000" lon="1.917142000">
        <ele>455.80</ele>
        <time>2013-12-23T13:57:18Z</time>
      </trkpt>
      <trkpt lat="41.613476000" lon="1.917099000">
        <ele>457.70</ele>
        <time>2013-12-23T13:57:32Z</time>
      </trkpt>
      <trkpt lat="41.613354000" lon="1.917003000">
        <ele>459.60</ele>
        <time>2013-12-23T13:57:44Z</time>
      </trkpt>
      <trkpt lat="41.613308000" lon="1.916967000">
        <ele>459.60</ele>
        <time>2013-12-23T13:57:49Z</time>
      </trkpt>
      <trkpt lat="41.613201000" lon="1.916931000">
        <ele>461.10</ele>
        <time>2013-12-23T13:58:02Z</time>
      </trkpt>
      <trkpt lat="41.613140000" lon="1.916888000">
        <ele>462.50</ele>
        <time>2013-12-23T13:58:14Z</time>
      </trkpt>
      <trkpt lat="41.613125000" lon="1.916812000">
        <ele>464.90</ele>
        <time>2013-12-23T13:58:26Z</time>
      </trkpt>
      <trkpt lat="41.613132000" lon="1.916788000">
        <ele>464.50</ele>
        <time>2013-12-23T13:58:40Z</time>
      </trkpt>
      <trkpt lat="41.613232000" lon="1.916689000">
        <ele>464.50</ele>
        <time>2013-12-23T13:58:56Z</time>
      </trkpt>
      <trkpt lat="41.613247000" lon="1.916685000">
        <ele>464.90</ele>
        <time>2013-12-23T13:58:57Z</time>
      </trkpt>
      <trkpt lat="41.613342000" lon="1.916672000">
        <ele>466.90</ele>
        <time>2013-12-23T13:59:11Z</time>
      </trkpt>
      <trkpt lat="41.613445000" lon="1.916652000">
        <ele>468.30</ele>
        <time>2013-12-23T13:59:24Z</time>
      </trkpt>
      <trkpt lat="41.613491000" lon="1.916633000">
        <ele>469.30</ele>
        <time>2013-12-23T13:59:30Z</time>
      </trkpt>
      <trkpt lat="41.613598000" lon="1.916569000">
        <ele>470.70</ele>
        <time>2013-12-23T13:59:46Z</time>
      </trkpt>
      <trkpt lat="41.613613000" lon="1.916570000">
        <ele>470.70</ele>
        <time>2013-12-23T13:59:48Z</time>
      </trkpt>
      <trkpt lat="41.613667000" lon="1.916575000">
        <ele>470.20</ele>
        <time>2013-12-23T13:59:51Z</time>
      </trkpt>
      <trkpt lat="41.613792000" lon="1.916529000">
        <ele>470.70</ele>
        <time>2013-12-23T13:59:58Z</time>
      </trkpt>
      <trkpt lat="41.613968000" lon="1.916585000">
        <ele>470.70</ele>
        <time>2013-12-23T14:00:09Z</time>
      </trkpt>
      <trkpt lat="41.614006000" lon="1.916607000">
        <ele>470.70</ele>
        <time>2013-12-23T14:00:11Z</time>
      </trkpt>
      <trkpt lat="41.614052000" lon="1.916608000">
        <ele>470.20</ele>
        <time>2013-12-23T14:00:21Z</time>
      </trkpt>
      <trkpt lat="41.614315000" lon="1.916616000">
        <ele>469.30</ele>
        <time>2013-12-23T14:00:33Z</time>
      </trkpt>
      <trkpt lat="41.614452000" lon="1.916682000">
        <ele>468.30</ele>
        <time>2013-12-23T14:00:40Z</time>
      </trkpt>
      <trkpt lat="41.614552000" lon="1.916721000">
        <ele>468.30</ele>
        <time>2013-12-23T14:00:45Z</time>
      </trkpt>
      <trkpt lat="41.614754000" lon="1.916765000">
        <ele>467.80</ele>
        <time>2013-12-23T14:00:54Z</time>
      </trkpt>
      <trkpt lat="41.614853000" lon="1.916766000">
        <ele>466.90</ele>
        <time>2013-12-23T14:00:59Z</time>
      </trkpt>
      <trkpt lat="41.615028000" lon="1.916820000">
        <ele>465.40</ele>
        <time>2013-12-23T14:01:05Z</time>
      </trkpt>
      <trkpt lat="41.615086000" lon="1.916805000">
        <ele>464.90</ele>
        <time>2013-12-23T14:01:08Z</time>
      </trkpt>
      <trkpt lat="41.615189000" lon="1.916806000">
        <ele>465.40</ele>
        <time>2013-12-23T14:01:12Z</time>
      </trkpt>
      <trkpt lat="41.615318000" lon="1.916854000">
        <ele>464.90</ele>
        <time>2013-12-23T14:01:17Z</time>
      </trkpt>
      <trkpt lat="41.615486000" lon="1.916850000">
        <ele>464.90</ele>
        <time>2013-12-23T14:01:22Z</time>
      </trkpt>
      <trkpt lat="41.615513000" lon="1.916812000">
        <ele>464.50</ele>
        <time>2013-12-23T14:01:34Z</time>
      </trkpt>
      <trkpt lat="41.615540000" lon="1.916790000">
        <ele>463.50</ele>
        <time>2013-12-23T14:01:39Z</time>
      </trkpt>
      <trkpt lat="41.615597000" lon="1.916635000">
        <ele>463.00</ele>
        <time>2013-12-23T14:01:43Z</time>
      </trkpt>
      <trkpt lat="41.615578000" lon="1.916402000">
        <ele>463.00</ele>
        <time>2013-12-23T14:01:50Z</time>
      </trkpt>
      <trkpt lat="41.615414000" lon="1.916115000">
        <ele>462.00</ele>
        <time>2013-12-23T14:02:02Z</time>
      </trkpt>
      <trkpt lat="41.614983000" lon="1.915963000">
        <ele>463.00</ele>
        <time>2013-12-23T14:02:16Z</time>
      </trkpt>
      <trkpt lat="41.614685000" lon="1.915652000">
        <ele>463.00</ele>
        <time>2013-12-23T14:02:26Z</time>
      </trkpt>
      <trkpt lat="41.614582000" lon="1.915543000">
        <ele>463.00</ele>
        <time>2013-12-23T14:02:30Z</time>
      </trkpt>
      <trkpt lat="41.614384000" lon="1.915523000">
        <ele>460.10</ele>
        <time>2013-12-23T14:02:37Z</time>
      </trkpt>
      <trkpt lat="41.614315000" lon="1.915292000">
        <ele>455.30</ele>
        <time>2013-12-23T14:02:42Z</time>
      </trkpt>
      <trkpt lat="41.614155000" lon="1.915096000">
        <ele>453.40</ele>
        <time>2013-12-23T14:02:47Z</time>
      </trkpt>
      <trkpt lat="41.613895000" lon="1.914666000">
        <ele>452.40</ele>
        <time>2013-12-23T14:02:58Z</time>
      </trkpt>
      <trkpt lat="41.613853000" lon="1.914383000">
        <ele>451.00</ele>
        <time>2013-12-23T14:03:05Z</time>
      </trkpt>
      <trkpt lat="41.613998000" lon="1.914170000">
        <ele>446.70</ele>
        <time>2013-12-23T14:03:10Z</time>
      </trkpt>
      <trkpt lat="41.614029000" lon="1.914128000">
        <ele>445.20</ele>
        <time>2013-12-23T14:03:10Z</time>
      </trkpt>
      <trkpt lat="41.614159000" lon="1.913897000">
        <ele>440.90</ele>
        <time>2013-12-23T14:03:15Z</time>
      </trkpt>
      <trkpt lat="41.614182000" lon="1.913846000">
        <ele>439.90</ele>
        <time>2013-12-23T14:03:15Z</time>
      </trkpt>
      <trkpt lat="41.614178000" lon="1.913782000">
        <ele>439.50</ele>
        <time>2013-12-23T14:03:17Z</time>
      </trkpt>
      <trkpt lat="41.613945000" lon="1.913837000">
        <ele>438.50</ele>
        <time>2013-12-23T14:03:26Z</time>
      </trkpt>
      <trkpt lat="41.613556000" lon="1.914204000">
        <ele>440.40</ele>
        <time>2013-12-23T14:03:38Z</time>
      </trkpt>
      <trkpt lat="41.613197000" lon="1.914317000">
        <ele>443.30</ele>
        <time>2013-12-23T14:03:50Z</time>
      </trkpt>
      <trkpt lat="41.612984000" lon="1.914378000">
        <ele>445.70</ele>
        <time>2013-12-23T14:03:57Z</time>
      </trkpt>
      <trkpt lat="41.612755000" lon="1.914484000">
        <ele>443.80</ele>
        <time>2013-12-23T14:04:09Z</time>
      </trkpt>
      <trkpt lat="41.612667000" lon="1.914532000">
        <ele>441.40</ele>
        <time>2013-12-23T14:04:13Z</time>
      </trkpt>
      <trkpt lat="41.612629000" lon="1.914766000">
        <ele>437.10</ele>
        <time>2013-12-23T14:04:18Z</time>
      </trkpt>
      <trkpt lat="41.612633000" lon="1.914853000">
        <ele>437.10</ele>
        <time>2013-12-23T14:04:18Z</time>
      </trkpt>
      <trkpt lat="41.612701000" lon="1.915182000">
        <ele>437.50</ele>
        <time>2013-12-23T14:04:23Z</time>
      </trkpt>
      <trkpt lat="41.612789000" lon="1.915433000">
        <ele>437.10</ele>
        <time>2013-12-23T14:04:28Z</time>
      </trkpt>
      <trkpt lat="41.612816000" lon="1.915938000">
        <ele>433.20</ele>
        <time>2013-12-23T14:04:37Z</time>
      </trkpt>
      <trkpt lat="41.612804000" lon="1.915978000">
        <ele>432.70</ele>
        <time>2013-12-23T14:04:39Z</time>
      </trkpt>
      <trkpt lat="41.612709000" lon="1.916020000">
        <ele>428.40</ele>
        <time>2013-12-23T14:04:42Z</time>
      </trkpt>
      <trkpt lat="41.612640000" lon="1.916001000">
        <ele>426.50</ele>
        <time>2013-12-23T14:04:44Z</time>
      </trkpt>
      <trkpt lat="41.612530000" lon="1.915953000">
        <ele>424.10</ele>
        <time>2013-12-23T14:04:47Z</time>
      </trkpt>
      <trkpt lat="41.612385000" lon="1.915933000">
        <ele>421.20</ele>
        <time>2013-12-23T14:04:51Z</time>
      </trkpt>
      <trkpt lat="41.612206000" lon="1.915829000">
        <ele>418.80</ele>
        <time>2013-12-23T14:04:53Z</time>
      </trkpt>
      <trkpt lat="41.612087000" lon="1.915710000">
        <ele>416.90</ele>
        <time>2013-12-23T14:04:56Z</time>
      </trkpt>
      <trkpt lat="41.611980000" lon="1.915600000">
        <ele>415.90</ele>
        <time>2013-12-23T14:04:58Z</time>
      </trkpt>
      <trkpt lat="41.611946000" lon="1.915566000">
        <ele>415.40</ele>
        <time>2013-12-23T14:04:58Z</time>
      </trkpt>
      <trkpt lat="41.611717000" lon="1.915410000">
        <ele>411.10</ele>
        <time>2013-12-23T14:05:03Z</time>
      </trkpt>
      <trkpt lat="41.611565000" lon="1.915298000">
        <ele>408.20</ele>
        <time>2013-12-23T14:05:05Z</time>
      </trkpt>
      <trkpt lat="41.611309000" lon="1.914966000">
        <ele>402.90</ele>
        <time>2013-12-23T14:05:10Z</time>
      </trkpt>
      <trkpt lat="41.611282000" lon="1.914917000">
        <ele>402.90</ele>
        <time>2013-12-23T14:05:10Z</time>
      </trkpt>
      <trkpt lat="41.611057000" lon="1.914823000">
        <ele>399.60</ele>
        <time>2013-12-23T14:05:15Z</time>
      </trkpt>
      <trkpt lat="41.610935000" lon="1.914839000">
        <ele>398.60</ele>
        <time>2013-12-23T14:05:17Z</time>
      </trkpt>
      <trkpt lat="41.610870000" lon="1.914845000">
        <ele>398.10</ele>
        <time>2013-12-23T14:05:19Z</time>
      </trkpt>
      <trkpt lat="41.610718000" lon="1.914843000">
        <ele>397.20</ele>
        <time>2013-12-23T14:05:22Z</time>
      </trkpt>
      <trkpt lat="41.610790000" lon="1.914718000">
        <ele>393.30</ele>
        <time>2013-12-23T14:05:29Z</time>
      </trkpt>
      <trkpt lat="41.611008000" lon="1.914573000">
        <ele>389.00</ele>
        <time>2013-12-23T14:05:33Z</time>
      </trkpt>
      <trkpt lat="41.611290000" lon="1.914439000">
        <ele>384.70</ele>
        <time>2013-12-23T14:05:38Z</time>
      </trkpt>
      <trkpt lat="41.611397000" lon="1.914434000">
        <ele>382.70</ele>
        <time>2013-12-23T14:05:40Z</time>
      </trkpt>
      <trkpt lat="41.611427000" lon="1.914245000">
        <ele>379.90</ele>
        <time>2013-12-23T14:05:47Z</time>
      </trkpt>
      <trkpt lat="41.611328000" lon="1.914137000">
        <ele>377.50</ele>
        <time>2013-12-23T14:05:50Z</time>
      </trkpt>
      <trkpt lat="41.611073000" lon="1.913901000">
        <ele>373.10</ele>
        <time>2013-12-23T14:05:55Z</time>
      </trkpt>
      <trkpt lat="41.610794000" lon="1.913755000">
        <ele>370.20</ele>
        <time>2013-12-23T14:06:01Z</time>
      </trkpt>
      <trkpt lat="41.610500000" lon="1.913764000">
        <ele>369.30</ele>
        <time>2013-12-23T14:06:09Z</time>
      </trkpt>
      <trkpt lat="41.610481000" lon="1.913806000">
        <ele>369.30</ele>
        <time>2013-12-23T14:06:09Z</time>
      </trkpt>
      <trkpt lat="41.610420000" lon="1.914000000">
        <ele>369.30</ele>
        <time>2013-12-23T14:06:13Z</time>
      </trkpt>
      <trkpt lat="41.610107000" lon="1.914147000">
        <ele>368.80</ele>
        <time>2013-12-23T14:06:22Z</time>
      </trkpt>
      <trkpt lat="41.610035000" lon="1.914099000">
        <ele>369.30</ele>
        <time>2013-12-23T14:06:23Z</time>
      </trkpt>
      <trkpt lat="41.609653000" lon="1.914127000">
        <ele>370.70</ele>
        <time>2013-12-23T14:06:34Z</time>
      </trkpt>
      <trkpt lat="41.609406000" lon="1.914155000">
        <ele>371.20</ele>
        <time>2013-12-23T14:06:46Z</time>
      </trkpt>
      <trkpt lat="41.609226000" lon="1.914236000">
        <ele>370.70</ele>
        <time>2013-12-23T14:06:53Z</time>
      </trkpt>
      <trkpt lat="41.609215000" lon="1.914403000">
        <ele>369.80</ele>
        <time>2013-12-23T14:06:58Z</time>
      </trkpt>
      <trkpt lat="41.609207000" lon="1.914573000">
        <ele>367.40</ele>
        <time>2013-12-23T14:07:03Z</time>
      </trkpt>
      <trkpt lat="41.609180000" lon="1.914713000">
        <ele>367.40</ele>
        <time>2013-12-23T14:07:07Z</time>
      </trkpt>
      <trkpt lat="41.609211000" lon="1.914993000">
        <ele>366.90</ele>
        <time>2013-12-23T14:07:12Z</time>
      </trkpt>
      <trkpt lat="41.609264000" lon="1.915216000">
        <ele>367.40</ele>
        <time>2013-12-23T14:07:17Z</time>
      </trkpt>
      <trkpt lat="41.609291000" lon="1.915326000">
        <ele>367.40</ele>
        <time>2013-12-23T14:07:19Z</time>
      </trkpt>
      <trkpt lat="41.609123000" lon="1.915597000">
        <ele>367.40</ele>
        <time>2013-12-23T14:07:26Z</time>
      </trkpt>
      <trkpt lat="41.609055000" lon="1.915585000">
        <ele>367.40</ele>
        <time>2013-12-23T14:07:28Z</time>
      </trkpt>
      <trkpt lat="41.608540000" lon="1.915424000">
        <ele>367.80</ele>
        <time>2013-12-23T14:07:40Z</time>
      </trkpt>
      <trkpt lat="41.608360000" lon="1.915363000">
        <ele>368.30</ele>
        <time>2013-12-23T14:07:45Z</time>
      </trkpt>
      <trkpt lat="41.608078000" lon="1.915479000">
        <ele>368.80</ele>
        <time>2013-12-23T14:07:52Z</time>
      </trkpt>
      <trkpt lat="41.607742000" lon="1.915957000">
        <ele>370.70</ele>
        <time>2013-12-23T14:08:03Z</time>
      </trkpt>
      <trkpt lat="41.607697000" lon="1.916272000">
        <ele>371.70</ele>
        <time>2013-12-23T14:08:08Z</time>
      </trkpt>
      <trkpt lat="41.607750000" lon="1.916497000">
        <ele>371.70</ele>
        <time>2013-12-23T14:08:13Z</time>
      </trkpt>
      <trkpt lat="41.607780000" lon="1.916668000">
        <ele>372.20</ele>
        <time>2013-12-23T14:08:15Z</time>
      </trkpt>
      <trkpt lat="41.607624000" lon="1.916958000">
        <ele>373.10</ele>
        <time>2013-12-23T14:08:22Z</time>
      </trkpt>
      <trkpt lat="41.607426000" lon="1.917006000">
        <ele>373.60</ele>
        <time>2013-12-23T14:08:27Z</time>
      </trkpt>
      <trkpt lat="41.607304000" lon="1.916965000">
        <ele>374.60</ele>
        <time>2013-12-23T14:08:30Z</time>
      </trkpt>
      <trkpt lat="41.607151000" lon="1.916876000">
        <ele>374.60</ele>
        <time>2013-12-23T14:08:34Z</time>
      </trkpt>
      <trkpt lat="41.607040000" lon="1.916793000">
        <ele>374.60</ele>
        <time>2013-12-23T14:08:37Z</time>
      </trkpt>
      <trkpt lat="41.606659000" lon="1.916792000">
        <ele>377.00</ele>
        <time>2013-12-23T14:08:48Z</time>
      </trkpt>
      <trkpt lat="41.606640000" lon="1.916892000">
        <ele>377.50</ele>
        <time>2013-12-23T14:08:50Z</time>
      </trkpt>
      <trkpt lat="41.606670000" lon="1.917102000">
        <ele>377.90</ele>
        <time>2013-12-23T14:08:55Z</time>
      </trkpt>
      <trkpt lat="41.606842000" lon="1.917820000">
        <ele>379.90</ele>
        <time>2013-12-23T14:09:09Z</time>
      </trkpt>
      <trkpt lat="41.606750000" lon="1.918269000">
        <ele>382.70</ele>
        <time>2013-12-23T14:09:21Z</time>
      </trkpt>
      <trkpt lat="41.606468000" lon="1.918571000">
        <ele>386.10</ele>
        <time>2013-12-23T14:09:35Z</time>
      </trkpt>
      <trkpt lat="41.606121000" lon="1.918534000">
        <ele>388.50</ele>
        <time>2013-12-23T14:09:49Z</time>
      </trkpt>
      <trkpt lat="41.605709000" lon="1.918471000">
        <ele>391.40</ele>
        <time>2013-12-23T14:10:03Z</time>
      </trkpt>
      <trkpt lat="41.605320000" lon="1.918318000">
        <ele>394.30</ele>
        <time>2013-12-23T14:10:18Z</time>
      </trkpt>
      <trkpt lat="41.604912000" lon="1.918099000">
        <ele>396.20</ele>
        <time>2013-12-23T14:10:34Z</time>
      </trkpt>
      <trkpt lat="41.604645000" lon="1.918338000">
        <ele>397.20</ele>
        <time>2013-12-23T14:10:48Z</time>
      </trkpt>
      <trkpt lat="41.604416000" lon="1.918642000">
        <ele>398.10</ele>
        <time>2013-12-23T14:11:00Z</time>
      </trkpt>
      <trkpt lat="41.604103000" lon="1.918495000">
        <ele>399.60</ele>
        <time>2013-12-23T14:11:11Z</time>
      </trkpt>
      <trkpt lat="41.603733000" lon="1.918530000">
        <ele>399.60</ele>
        <time>2013-12-23T14:11:21Z</time>
      </trkpt>
      <trkpt lat="41.603283000" lon="1.918364000">
        <ele>401.50</ele>
        <time>2013-12-23T14:11:35Z</time>
      </trkpt>
      <trkpt lat="41.603149000" lon="1.918266000">
        <ele>401.50</ele>
        <time>2013-12-23T14:11:39Z</time>
      </trkpt>
      <trkpt lat="41.603058000" lon="1.918103000">
        <ele>402.00</ele>
        <time>2013-12-23T14:11:42Z</time>
      </trkpt>
      <trkpt lat="41.602936000" lon="1.917498000">
        <ele>404.90</ele>
        <time>2013-12-23T14:11:56Z</time>
      </trkpt>
      <trkpt lat="41.602573000" lon="1.917279000">
        <ele>406.30</ele>
        <time>2013-12-23T14:12:08Z</time>
      </trkpt>
      <trkpt lat="41.602367000" lon="1.917587000">
        <ele>402.90</ele>
        <time>2013-12-23T14:12:17Z</time>
      </trkpt>
      <trkpt lat="41.602352000" lon="1.917621000">
        <ele>403.40</ele>
        <time>2013-12-23T14:12:17Z</time>
      </trkpt>
      <trkpt lat="41.602337000" lon="1.917655000">
        <ele>412.10</ele>
        <time>2013-12-23T14:12:19Z</time>
      </trkpt>
      <trkpt lat="41.602303000" lon="1.917723000">
        <ele>402.90</ele>
        <time>2013-12-23T14:12:20Z</time>
      </trkpt>
      <trkpt lat="41.602287000" lon="1.917757000">
        <ele>405.80</ele>
        <time>2013-12-23T14:12:22Z</time>
      </trkpt>
      <trkpt lat="41.602272000" lon="1.917788000">
        <ele>413.50</ele>
        <time>2013-12-23T14:12:22Z</time>
      </trkpt>
      <trkpt lat="41.602253000" lon="1.917819000">
        <ele>409.20</ele>
        <time>2013-12-23T14:12:24Z</time>
      </trkpt>
      <trkpt lat="41.602222000" lon="1.917885000">
        <ele>405.80</ele>
        <time>2013-12-23T14:12:26Z</time>
      </trkpt>
      <trkpt lat="41.602188000" lon="1.917938000">
        <ele>410.60</ele>
        <time>2013-12-23T14:12:27Z</time>
      </trkpt>
      <trkpt lat="41.602169000" lon="1.917965000">
        <ele>410.10</ele>
        <time>2013-12-23T14:12:29Z</time>
      </trkpt>
      <trkpt lat="41.601883000" lon="1.918314000">
        <ele>412.10</ele>
        <time>2013-12-23T14:12:41Z</time>
      </trkpt>
      <trkpt lat="41.601765000" lon="1.918366000">
        <ele>408.70</ele>
        <time>2013-12-23T14:12:45Z</time>
      </trkpt>
      <trkpt lat="41.601742000" lon="1.918376000">
        <ele>410.10</ele>
        <time>2013-12-23T14:12:47Z</time>
      </trkpt>
      <trkpt lat="41.601719000" lon="1.918387000">
        <ele>413.50</ele>
        <time>2013-12-23T14:12:48Z</time>
      </trkpt>
      <trkpt lat="41.601566000" lon="1.918684000">
        <ele>416.90</ele>
        <time>2013-12-23T14:13:02Z</time>
      </trkpt>
      <trkpt lat="41.601559000" lon="1.918716000">
        <ele>412.10</ele>
        <time>2013-12-23T14:13:02Z</time>
      </trkpt>
      <trkpt lat="41.601543000" lon="1.918748000">
        <ele>415.40</ele>
        <time>2013-12-23T14:13:04Z</time>
      </trkpt>
      <trkpt lat="41.601467000" lon="1.918957000">
        <ele>415.40</ele>
        <time>2013-12-23T14:13:09Z</time>
      </trkpt>
      <trkpt lat="41.601601000" lon="1.919215000">
        <ele>415.90</ele>
        <time>2013-12-23T14:13:16Z</time>
      </trkpt>
      <trkpt lat="41.601540000" lon="1.919500000">
        <ele>415.90</ele>
        <time>2013-12-23T14:13:21Z</time>
      </trkpt>
      <trkpt lat="41.601437000" lon="1.919669000">
        <ele>415.90</ele>
        <time>2013-12-23T14:13:25Z</time>
      </trkpt>
      <trkpt lat="41.601357000" lon="1.919791000">
        <ele>415.90</ele>
        <time>2013-12-23T14:13:28Z</time>
      </trkpt>
      <trkpt lat="41.601238000" lon="1.919940000">
        <ele>416.90</ele>
        <time>2013-12-23T14:13:32Z</time>
      </trkpt>
      <trkpt lat="41.601093000" lon="1.920154000">
        <ele>417.40</ele>
        <time>2013-12-23T14:13:37Z</time>
      </trkpt>
      <trkpt lat="41.600967000" lon="1.920311000">
        <ele>416.90</ele>
        <time>2013-12-23T14:13:42Z</time>
      </trkpt>
      <trkpt lat="41.600800000" lon="1.920507000">
        <ele>417.40</ele>
        <time>2013-12-23T14:13:46Z</time>
      </trkpt>
      <trkpt lat="41.600567000" lon="1.920677000">
        <ele>417.80</ele>
        <time>2013-12-23T14:13:53Z</time>
      </trkpt>
      <trkpt lat="41.599983000" lon="1.920923000">
        <ele>417.80</ele>
        <time>2013-12-23T14:14:07Z</time>
      </trkpt>
      <trkpt lat="41.599556000" lon="1.920820000">
        <ele>415.40</ele>
        <time>2013-12-23T14:14:15Z</time>
      </trkpt>
      <trkpt lat="41.599442000" lon="1.921095000">
        <ele>414.50</ele>
        <time>2013-12-23T14:14:21Z</time>
      </trkpt>
      <trkpt lat="41.599277000" lon="1.921615000">
        <ele>411.60</ele>
        <time>2013-12-23T14:14:28Z</time>
      </trkpt>
      <trkpt lat="41.598942000" lon="1.921818000">
        <ele>409.70</ele>
        <time>2013-12-23T14:14:33Z</time>
      </trkpt>
      <trkpt lat="41.598423000" lon="1.922299000">
        <ele>405.80</ele>
        <time>2013-12-23T14:14:43Z</time>
      </trkpt>
      <trkpt lat="41.598312000" lon="1.922503000">
        <ele>404.90</ele>
        <time>2013-12-23T14:14:45Z</time>
      </trkpt>
      <trkpt lat="41.598129000" lon="1.922780000">
        <ele>402.90</ele>
        <time>2013-12-23T14:14:50Z</time>
      </trkpt>
      <trkpt lat="41.597637000" lon="1.923082000">
        <ele>399.60</ele>
        <time>2013-12-23T14:14:57Z</time>
      </trkpt>
      <trkpt lat="41.597206000" lon="1.923302000">
        <ele>398.10</ele>
        <time>2013-12-23T14:15:02Z</time>
      </trkpt>
      <trkpt lat="41.596840000" lon="1.923284000">
        <ele>395.20</ele>
        <time>2013-12-23T14:15:08Z</time>
      </trkpt>
      <trkpt lat="41.596695000" lon="1.923234000">
        <ele>394.30</ele>
        <time>2013-12-23T14:15:09Z</time>
      </trkpt>
      <trkpt lat="41.596481000" lon="1.923258000">
        <ele>391.90</ele>
        <time>2013-12-23T14:15:18Z</time>
      </trkpt>
      <trkpt lat="41.596481000" lon="1.923258000">
        <ele>391.90</ele>
        <time>2013-12-23T14:15:27Z</time>
      </trkpt>
      <trkpt lat="41.596481000" lon="1.923258000">
        <ele>387.50</ele>
        <time>2013-12-23T14:15:37Z</time>
      </trkpt>
      <trkpt lat="41.596481000" lon="1.923258000">
        <ele>392.80</ele>
        <time>2013-12-23T14:15:37Z</time>
      </trkpt>
      <trkpt lat="41.596481000" lon="1.923258000">
        <ele>389.50</ele>
        <time>2013-12-23T14:15:48Z</time>
      </trkpt>
      <trkpt lat="41.596481000" lon="1.923258000">
        <ele>392.40</ele>
        <time>2013-12-23T14:15:51Z</time>
      </trkpt>
      <trkpt lat="41.596336000" lon="1.923255000">
        <ele>391.90</ele>
        <time>2013-12-23T14:15:58Z</time>
      </trkpt>
      <trkpt lat="41.596184000" lon="1.923171000">
        <ele>390.90</ele>
        <time>2013-12-23T14:16:02Z</time>
      </trkpt>
      <trkpt lat="41.596062000" lon="1.923101000">
        <ele>390.40</ele>
        <time>2013-12-23T14:16:05Z</time>
      </trkpt>
      <trkpt lat="41.595840000" lon="1.922963000">
        <ele>389.00</ele>
        <time>2013-12-23T14:16:10Z</time>
      </trkpt>
      <trkpt lat="41.595901000" lon="1.922665000">
        <ele>386.60</ele>
        <time>2013-12-23T14:16:19Z</time>
      </trkpt>
      <trkpt lat="41.595806000" lon="1.922616000">
        <ele>385.10</ele>
        <time>2013-12-23T14:16:24Z</time>
      </trkpt>
      <trkpt lat="41.595577000" lon="1.922571000">
        <ele>382.30</ele>
        <time>2013-12-23T14:16:28Z</time>
      </trkpt>
      <trkpt lat="41.595455000" lon="1.922495000">
        <ele>381.30</ele>
        <time>2013-12-23T14:16:31Z</time>
      </trkpt>
      <trkpt lat="41.595119000" lon="1.922273000">
        <ele>378.40</ele>
        <time>2013-12-23T14:16:36Z</time>
      </trkpt>
      <trkpt lat="41.594959000" lon="1.922118000">
        <ele>376.00</ele>
        <time>2013-12-23T14:16:40Z</time>
      </trkpt>
      <trkpt lat="41.594807000" lon="1.921856000">
        <ele>374.60</ele>
        <time>2013-12-23T14:16:43Z</time>
      </trkpt>
      <trkpt lat="41.594692000" lon="1.921476000">
        <ele>371.70</ele>
        <time>2013-12-23T14:16:49Z</time>
      </trkpt>
      <trkpt lat="41.594509000" lon="1.921242000">
        <ele>369.80</ele>
        <time>2013-12-23T14:16:54Z</time>
      </trkpt>
      <trkpt lat="41.594303000" lon="1.921068000">
        <ele>368.80</ele>
        <time>2013-12-23T14:16:59Z</time>
      </trkpt>
      <trkpt lat="41.594139000" lon="1.920927000">
        <ele>367.80</ele>
        <time>2013-12-23T14:17:01Z</time>
      </trkpt>
      <trkpt lat="41.593597000" lon="1.920569000">
        <ele>364.00</ele>
        <time>2013-12-23T14:17:11Z</time>
      </trkpt>
      <trkpt lat="41.593533000" lon="1.920533000">
        <ele>363.00</ele>
        <time>2013-12-23T14:17:11Z</time>
      </trkpt>
      <trkpt lat="41.593193000" lon="1.920474000">
        <ele>358.20</ele>
        <time>2013-12-23T14:17:17Z</time>
      </trkpt>
      <trkpt lat="41.592846000" lon="1.920401000">
        <ele>354.90</ele>
        <time>2013-12-23T14:17:20Z</time>
      </trkpt>
      <trkpt lat="41.592293000" lon="1.920257000">
        <ele>351.00</ele>
        <time>2013-12-23T14:17:29Z</time>
      </trkpt>
      <trkpt lat="41.592228000" lon="1.920234000">
        <ele>351.00</ele>
        <time>2013-12-23T14:17:29Z</time>
      </trkpt>
      <trkpt lat="41.591953000" lon="1.919883000">
        <ele>349.60</ele>
        <time>2013-12-23T14:17:37Z</time>
      </trkpt>
      <trkpt lat="41.591908000" lon="1.919851000">
        <ele>349.10</ele>
        <time>2013-12-23T14:17:39Z</time>
      </trkpt>
      <trkpt lat="41.591373000" lon="1.919555000">
        <ele>347.20</ele>
        <time>2013-12-23T14:17:48Z</time>
      </trkpt>
      <trkpt lat="41.591225000" lon="1.919406000">
        <ele>346.70</ele>
        <time>2013-12-23T14:17:51Z</time>
      </trkpt>
      <trkpt lat="41.591061000" lon="1.919257000">
        <ele>346.20</ele>
        <time>2013-12-23T14:17:55Z</time>
      </trkpt>
      <trkpt lat="41.590897000" lon="1.919218000">
        <ele>345.20</ele>
        <time>2013-12-23T14:17:58Z</time>
      </trkpt>
      <trkpt lat="41.590332000" lon="1.918881000">
        <ele>341.40</ele>
        <time>2013-12-23T14:18:09Z</time>
      </trkpt>
      <trkpt lat="41.589912000" lon="1.918708000">
        <ele>340.00</ele>
        <time>2013-12-23T14:18:19Z</time>
      </trkpt>
      <trkpt lat="41.589600000" lon="1.918372000">
        <ele>337.60</ele>
        <time>2013-12-23T14:18:26Z</time>
      </trkpt>
      <trkpt lat="41.589527000" lon="1.918310000">
        <ele>337.10</ele>
        <time>2013-12-23T14:18:28Z</time>
      </trkpt>
      <trkpt lat="41.589314000" lon="1.918034000">
        <ele>335.20</ele>
        <time>2013-12-23T14:18:35Z</time>
      </trkpt>
      <trkpt lat="41.588970000" lon="1.917857000">
        <ele>333.70</ele>
        <time>2013-12-23T14:18:44Z</time>
      </trkpt>
      <trkpt lat="41.588669000" lon="1.917569000">
        <ele>330.80</ele>
        <time>2013-12-23T14:18:51Z</time>
      </trkpt>
      <trkpt lat="41.588364000" lon="1.917373000">
        <ele>327.00</ele>
        <time>2013-12-23T14:18:59Z</time>
      </trkpt>
      <trkpt lat="41.588223000" lon="1.917279000">
        <ele>325.10</ele>
        <time>2013-12-23T14:19:03Z</time>
      </trkpt>
      <trkpt lat="41.588169000" lon="1.917245000">
        <ele>324.10</ele>
        <time>2013-12-23T14:19:03Z</time>
      </trkpt>
      <trkpt lat="41.587898000" lon="1.917216000">
        <ele>321.20</ele>
        <time>2013-12-23T14:19:08Z</time>
      </trkpt>
      <trkpt lat="41.587666000" lon="1.917281000">
        <ele>319.30</ele>
        <time>2013-12-23T14:19:10Z</time>
      </trkpt>
      <trkpt lat="41.587429000" lon="1.917248000">
        <ele>316.40</ele>
        <time>2013-12-23T14:19:15Z</time>
      </trkpt>
      <trkpt lat="41.587280000" lon="1.917175000">
        <ele>315.90</ele>
        <time>2013-12-23T14:19:18Z</time>
      </trkpt>
      <trkpt lat="41.587116000" lon="1.917114000">
        <ele>315.00</ele>
        <time>2013-12-23T14:19:22Z</time>
      </trkpt>
      <trkpt lat="41.587029000" lon="1.917145000">
        <ele>315.00</ele>
        <time>2013-12-23T14:19:27Z</time>
      </trkpt>
      <trkpt lat="41.586998000" lon="1.917132000">
        <ele>314.50</ele>
        <time>2013-12-23T14:19:34Z</time>
      </trkpt>
      <trkpt lat="41.587090000" lon="1.916973000">
        <ele>315.00</ele>
        <time>2013-12-23T14:19:45Z</time>
      </trkpt>
      <trkpt lat="41.587013000" lon="1.916936000">
        <ele>314.50</ele>
        <time>2013-12-23T14:19:50Z</time>
      </trkpt>
      <trkpt lat="41.587006000" lon="1.916875000">
        <ele>314.50</ele>
        <time>2013-12-23T14:19:53Z</time>
      </trkpt>
      <trkpt lat="41.586899000" lon="1.916933000">
        <ele>314.50</ele>
        <time>2013-12-23T14:20:00Z</time>
      </trkpt>
      <trkpt lat="41.586826000" lon="1.917131000">
        <ele>314.50</ele>
        <time>2013-12-23T14:20:06Z</time>
      </trkpt>
      <trkpt lat="41.586620000" lon="1.917061000">
        <ele>314.50</ele>
        <time>2013-12-23T14:20:16Z</time>
      </trkpt>
      <trkpt lat="41.586586000" lon="1.917028000">
        <ele>315.00</ele>
        <time>2013-12-23T14:20:18Z</time>
      </trkpt>
      <trkpt lat="41.586395000" lon="1.916602000">
        <ele>317.90</ele>
        <time>2013-12-23T14:20:32Z</time>
      </trkpt>
      <trkpt lat="41.586384000" lon="1.916536000">
        <ele>318.30</ele>
        <time>2013-12-23T14:20:33Z</time>
      </trkpt>
      <trkpt lat="41.586514000" lon="1.916204000">
        <ele>322.20</ele>
        <time>2013-12-23T14:20:44Z</time>
      </trkpt>
      <trkpt lat="41.586723000" lon="1.915924000">
        <ele>325.10</ele>
        <time>2013-12-23T14:20:58Z</time>
      </trkpt>
      <trkpt lat="41.586960000" lon="1.915606000">
        <ele>327.00</ele>
        <time>2013-12-23T14:21:13Z</time>
      </trkpt>
      <trkpt lat="41.587105000" lon="1.915218000">
        <ele>328.90</ele>
        <time>2013-12-23T14:21:27Z</time>
      </trkpt>
      <trkpt lat="41.587246000" lon="1.914676000">
        <ele>330.80</ele>
        <time>2013-12-23T14:21:43Z</time>
      </trkpt>
      <trkpt lat="41.587341000" lon="1.914233000">
        <ele>331.80</ele>
        <time>2013-12-23T14:21:55Z</time>
      </trkpt>
      <trkpt lat="41.587437000" lon="1.913825000">
        <ele>334.70</ele>
        <time>2013-12-23T14:22:07Z</time>
      </trkpt>
      <trkpt lat="41.587677000" lon="1.913391000">
        <ele>337.60</ele>
        <time>2013-12-23T14:22:23Z</time>
      </trkpt>
      <trkpt lat="41.587723000" lon="1.913275000">
        <ele>337.60</ele>
        <time>2013-12-23T14:22:28Z</time>
      </trkpt>
      <trkpt lat="41.587666000" lon="1.913190000">
        <ele>339.50</ele>
        <time>2013-12-23T14:22:35Z</time>
      </trkpt>
      <trkpt lat="41.587536000" lon="1.913186000">
        <ele>340.90</ele>
        <time>2013-12-23T14:22:42Z</time>
      </trkpt>
      <trkpt lat="41.587425000" lon="1.913139000">
        <ele>342.90</ele>
        <time>2013-12-23T14:22:48Z</time>
      </trkpt>
      <trkpt lat="41.587112000" lon="1.913007000">
        <ele>346.20</ele>
        <time>2013-12-23T14:23:05Z</time>
      </trkpt>
      <trkpt lat="41.587029000" lon="1.912936000">
        <ele>346.70</ele>
        <time>2013-12-23T14:23:10Z</time>
      </trkpt>
      <trkpt lat="41.586784000" lon="1.912865000">
        <ele>348.60</ele>
        <time>2013-12-23T14:23:22Z</time>
      </trkpt>
      <trkpt lat="41.586544000" lon="1.912905000">
        <ele>351.00</ele>
        <time>2013-12-23T14:23:36Z</time>
      </trkpt>
      <trkpt lat="41.586510000" lon="1.912921000">
        <ele>351.50</ele>
        <time>2013-12-23T14:23:38Z</time>
      </trkpt>
      <trkpt lat="41.586441000" lon="1.912956000">
        <ele>351.50</ele>
        <time>2013-12-23T14:23:42Z</time>
      </trkpt>
      <trkpt lat="41.586143000" lon="1.913077000">
        <ele>352.90</ele>
        <time>2013-12-23T14:23:55Z</time>
      </trkpt>
      <trkpt lat="41.586006000" lon="1.913020000">
        <ele>355.30</ele>
        <time>2013-12-23T14:24:02Z</time>
      </trkpt>
      <trkpt lat="41.585938000" lon="1.913014000">
        <ele>354.90</ele>
        <time>2013-12-23T14:24:06Z</time>
      </trkpt>
      <trkpt lat="41.585728000" lon="1.913124000">
        <ele>352.50</ele>
        <time>2013-12-23T14:24:13Z</time>
      </trkpt>
      <trkpt lat="41.585564000" lon="1.913443000">
        <ele>350.50</ele>
        <time>2013-12-23T14:24:23Z</time>
      </trkpt>
      <trkpt lat="41.585407000" lon="1.913569000">
        <ele>348.60</ele>
        <time>2013-12-23T14:24:27Z</time>
      </trkpt>
      <trkpt lat="41.585167000" lon="1.913597000">
        <ele>344.30</ele>
        <time>2013-12-23T14:24:34Z</time>
      </trkpt>
      <trkpt lat="41.585007000" lon="1.913658000">
        <ele>340.40</ele>
        <time>2013-12-23T14:24:42Z</time>
      </trkpt>
      <trkpt lat="41.584908000" lon="1.913620000">
        <ele>339.00</ele>
        <time>2013-12-23T14:24:46Z</time>
      </trkpt>
      <trkpt lat="41.584747000" lon="1.913318000">
        <ele>336.60</ele>
        <time>2013-12-23T14:24:53Z</time>
      </trkpt>
      <trkpt lat="41.584728000" lon="1.913298000">
        <ele>336.60</ele>
        <time>2013-12-23T14:24:55Z</time>
      </trkpt>
      <trkpt lat="41.584469000" lon="1.913303000">
        <ele>332.80</ele>
        <time>2013-12-23T14:25:02Z</time>
      </trkpt>
      <trkpt lat="41.584423000" lon="1.913308000">
        <ele>332.30</ele>
        <time>2013-12-23T14:25:03Z</time>
      </trkpt>
      <trkpt lat="41.584209000" lon="1.913357000">
        <ele>329.40</ele>
        <time>2013-12-23T14:25:09Z</time>
      </trkpt>
      <trkpt lat="41.583981000" lon="1.913289000">
        <ele>328.00</ele>
        <time>2013-12-23T14:25:14Z</time>
      </trkpt>
      <trkpt lat="41.583904000" lon="1.913296000">
        <ele>328.00</ele>
        <time>2013-12-23T14:25:17Z</time>
      </trkpt>
      <trkpt lat="41.583740000" lon="1.913361000">
        <ele>328.00</ele>
        <time>2013-12-23T14:25:21Z</time>
      </trkpt>
      <trkpt lat="41.583591000" lon="1.913406000">
        <ele>328.90</ele>
        <time>2013-12-23T14:25:28Z</time>
      </trkpt>
      <trkpt lat="41.583542000" lon="1.913513000">
        <ele>330.40</ele>
        <time>2013-12-23T14:25:33Z</time>
      </trkpt>
      <trkpt lat="41.583515000" lon="1.913983000">
        <ele>328.90</ele>
        <time>2013-12-23T14:25:45Z</time>
      </trkpt>
      <trkpt lat="41.583588000" lon="1.914448000">
        <ele>328.90</ele>
        <time>2013-12-23T14:25:56Z</time>
      </trkpt>
      <trkpt lat="41.583557000" lon="1.914671000">
        <ele>328.00</ele>
        <time>2013-12-23T14:25:59Z</time>
      </trkpt>
      <trkpt lat="41.583588000" lon="1.914871000">
        <ele>328.00</ele>
        <time>2013-12-23T14:26:04Z</time>
      </trkpt>
      <trkpt lat="41.583714000" lon="1.915287000">
        <ele>329.90</ele>
        <time>2013-12-23T14:26:15Z</time>
      </trkpt>
      <trkpt lat="41.583710000" lon="1.915452000">
        <ele>329.40</ele>
        <time>2013-12-23T14:26:18Z</time>
      </trkpt>
      <trkpt lat="41.583736000" lon="1.915675000">
        <ele>329.40</ele>
        <time>2013-12-23T14:26:22Z</time>
      </trkpt>
      <trkpt lat="41.583813000" lon="1.916196000">
        <ele>330.40</ele>
        <time>2013-12-23T14:26:32Z</time>
      </trkpt>
      <trkpt lat="41.583797000" lon="1.916375000">
        <ele>329.90</ele>
        <time>2013-12-23T14:26:34Z</time>
      </trkpt>
      <trkpt lat="41.583897000" lon="1.916662000">
        <ele>330.40</ele>
        <time>2013-12-23T14:26:41Z</time>
      </trkpt>
      <trkpt lat="41.584064000" lon="1.917271000">
        <ele>326.50</ele>
        <time>2013-12-23T14:26:50Z</time>
      </trkpt>
      <trkpt lat="41.584087000" lon="1.917408000">
        <ele>326.50</ele>
        <time>2013-12-23T14:26:53Z</time>
      </trkpt>
      <trkpt lat="41.584141000" lon="1.917716000">
        <ele>327.00</ele>
        <time>2013-12-23T14:26:58Z</time>
      </trkpt>
      <trkpt lat="41.584133000" lon="1.918199000">
        <ele>326.50</ele>
        <time>2013-12-23T14:27:05Z</time>
      </trkpt>
      <trkpt lat="41.584183000" lon="1.918480000">
        <ele>324.10</ele>
        <time>2013-12-23T14:27:09Z</time>
      </trkpt>
      <trkpt lat="41.584229000" lon="1.918681000">
        <ele>323.60</ele>
        <time>2013-12-23T14:27:12Z</time>
      </trkpt>
      <trkpt lat="41.584324000" lon="1.918961000">
        <ele>323.10</ele>
        <time>2013-12-23T14:27:16Z</time>
      </trkpt>
      <trkpt lat="41.584351000" lon="1.919653000">
        <ele>324.10</ele>
        <time>2013-12-23T14:27:28Z</time>
      </trkpt>
      <trkpt lat="41.584389000" lon="1.919988000">
        <ele>324.10</ele>
        <time>2013-12-23T14:27:33Z</time>
      </trkpt>
      <trkpt lat="41.584442000" lon="1.920253000">
        <ele>323.60</ele>
        <time>2013-12-23T14:27:37Z</time>
      </trkpt>
      <trkpt lat="41.584473000" lon="1.920520000">
        <ele>323.60</ele>
        <time>2013-12-23T14:27:40Z</time>
      </trkpt>
      <trkpt lat="41.584465000" lon="1.920768000">
        <ele>324.10</ele>
        <time>2013-12-23T14:27:45Z</time>
      </trkpt>
      <trkpt lat="41.584515000" lon="1.920922000">
        <ele>324.10</ele>
        <time>2013-12-23T14:27:47Z</time>
      </trkpt>
      <trkpt lat="41.584667000" lon="1.921092000">
        <ele>321.20</ele>
        <time>2013-12-23T14:27:52Z</time>
      </trkpt>
      <trkpt lat="41.584808000" lon="1.921202000">
        <ele>318.80</ele>
        <time>2013-12-23T14:27:54Z</time>
      </trkpt>
      <trkpt lat="41.585037000" lon="1.921336000">
        <ele>313.50</ele>
        <time>2013-12-23T14:27:59Z</time>
      </trkpt>
      <trkpt lat="41.585155000" lon="1.921413000">
        <ele>309.70</ele>
        <time>2013-12-23T14:28:03Z</time>
      </trkpt>
      <trkpt lat="41.585175000" lon="1.921444000">
        <ele>309.20</ele>
        <time>2013-12-23T14:28:03Z</time>
      </trkpt>
      <trkpt lat="41.585217000" lon="1.921538000">
        <ele>307.80</ele>
        <time>2013-12-23T14:28:06Z</time>
      </trkpt>
      <trkpt lat="41.585171000" lon="1.921747000">
        <ele>306.30</ele>
        <time>2013-12-23T14:28:12Z</time>
      </trkpt>
      <trkpt lat="41.585171000" lon="1.921747000">
        <ele>306.30</ele>
        <time>2013-12-23T14:28:31Z</time>
      </trkpt>
      <trkpt lat="41.585171000" lon="1.921747000">
        <ele>306.30</ele>
        <time>2013-12-23T14:29:00Z</time>
      </trkpt>
      <trkpt lat="41.585171000" lon="1.921750000">
        <ele>306.30</ele>
        <time>2013-12-23T14:29:37Z</time>
      </trkpt>
      <trkpt lat="41.585171000" lon="1.921751000">
        <ele>306.30</ele>
        <time>2013-12-23T14:30:15Z</time>
      </trkpt>
      <trkpt lat="41.585171000" lon="1.921751000">
        <ele>306.80</ele>
        <time>2013-12-23T14:30:43Z</time>
      </trkpt>
      <trkpt lat="41.585171000" lon="1.921751000">
        <ele>306.80</ele>
        <time>2013-12-23T14:31:02Z</time>
      </trkpt>
      <trkpt lat="41.585129000" lon="1.921784000">
        <ele>306.30</ele>
        <time>2013-12-23T14:31:27Z</time>
      </trkpt>
      <trkpt lat="41.584930000" lon="1.921725000">
        <ele>307.80</ele>
        <time>2013-12-23T14:31:35Z</time>
      </trkpt>
      <trkpt lat="41.584560000" lon="1.921672000">
        <ele>309.20</ele>
        <time>2013-12-23T14:31:46Z</time>
      </trkpt>
      <trkpt lat="41.584049000" lon="1.921771000">
        <ele>311.10</ele>
        <time>2013-12-23T14:32:00Z</time>
      </trkpt>
      <trkpt lat="41.583717000" lon="1.921664000">
        <ele>313.50</ele>
        <time>2013-12-23T14:32:10Z</time>
      </trkpt>
      <trkpt lat="41.583378000" lon="1.921319000">
        <ele>313.00</ele>
        <time>2013-12-23T14:32:22Z</time>
      </trkpt>
      <trkpt lat="41.583115000" lon="1.921205000">
        <ele>312.10</ele>
        <time>2013-12-23T14:32:29Z</time>
      </trkpt>
      <trkpt lat="41.583012000" lon="1.921201000">
        <ele>311.10</ele>
        <time>2013-12-23T14:32:31Z</time>
      </trkpt>
      <trkpt lat="41.582321000" lon="1.921397000">
        <ele>308.70</ele>
        <time>2013-12-23T14:32:42Z</time>
      </trkpt>
      <trkpt lat="41.581882000" lon="1.921320000">
        <ele>306.30</ele>
        <time>2013-12-23T14:32:47Z</time>
      </trkpt>
      <trkpt lat="41.581219000" lon="1.920767000">
        <ele>302.00</ele>
        <time>2013-12-23T14:32:57Z</time>
      </trkpt>
      <trkpt lat="41.580906000" lon="1.920506000">
        <ele>300.10</ele>
        <time>2013-12-23T14:33:01Z</time>
      </trkpt>
      <trkpt lat="41.580479000" lon="1.920215000">
        <ele>297.20</ele>
        <time>2013-12-23T14:33:06Z</time>
      </trkpt>
      <trkpt lat="41.580387000" lon="1.920172000">
        <ele>296.70</ele>
        <time>2013-12-23T14:33:06Z</time>
      </trkpt>
      <trkpt lat="41.579605000" lon="1.920122000">
        <ele>295.70</ele>
        <time>2013-12-23T14:33:16Z</time>
      </trkpt>
      <trkpt lat="41.579300000" lon="1.920212000">
        <ele>295.30</ele>
        <time>2013-12-23T14:33:20Z</time>
      </trkpt>
      <trkpt lat="41.578194000" lon="1.920167000">
        <ele>294.30</ele>
        <time>2013-12-23T14:33:34Z</time>
      </trkpt>
      <trkpt lat="41.577980000" lon="1.920143000">
        <ele>293.80</ele>
        <time>2013-12-23T14:33:37Z</time>
      </trkpt>
      <trkpt lat="41.577766000" lon="1.920064000">
        <ele>293.30</ele>
        <time>2013-12-23T14:33:41Z</time>
      </trkpt>
      <trkpt lat="41.577106000" lon="1.919600000">
        <ele>290.00</ele>
        <time>2013-12-23T14:33:49Z</time>
      </trkpt>
      <trkpt lat="41.577023000" lon="1.919551000">
        <ele>290.00</ele>
        <time>2013-12-23T14:33:51Z</time>
      </trkpt>
      <trkpt lat="41.576942000" lon="1.919511000">
        <ele>289.50</ele>
        <time>2013-12-23T14:33:51Z</time>
      </trkpt>
      <trkpt lat="41.576675000" lon="1.919445000">
        <ele>288.00</ele>
        <time>2013-12-23T14:33:55Z</time>
      </trkpt>
      <trkpt lat="41.576248000" lon="1.919531000">
        <ele>287.10</ele>
        <time>2013-12-23T14:34:00Z</time>
      </trkpt>
      <trkpt lat="41.575886000" lon="1.919762000">
        <ele>286.60</ele>
        <time>2013-12-23T14:34:05Z</time>
      </trkpt>
      <trkpt lat="41.575420000" lon="1.919693000">
        <ele>286.10</ele>
        <time>2013-12-23T14:34:12Z</time>
      </trkpt>
      <trkpt lat="41.575214000" lon="1.919897000">
        <ele>287.10</ele>
        <time>2013-12-23T14:34:16Z</time>
      </trkpt>
      <trkpt lat="41.575050000" lon="1.920176000">
        <ele>286.60</ele>
        <time>2013-12-23T14:34:19Z</time>
      </trkpt>
      <trkpt lat="41.574581000" lon="1.920298000">
        <ele>286.10</ele>
        <time>2013-12-23T14:34:28Z</time>
      </trkpt>
      <trkpt lat="41.574455000" lon="1.920086000">
        <ele>285.60</ele>
        <time>2013-12-23T14:34:31Z</time>
      </trkpt>
      <trkpt lat="41.574364000" lon="1.919835000">
        <ele>285.20</ele>
        <time>2013-12-23T14:34:33Z</time>
      </trkpt>
      <trkpt lat="41.573956000" lon="1.919510000">
        <ele>283.20</ele>
        <time>2013-12-23T14:34:40Z</time>
      </trkpt>
      <trkpt lat="41.573814000" lon="1.919480000">
        <ele>282.80</ele>
        <time>2013-12-23T14:34:42Z</time>
      </trkpt>
      <trkpt lat="41.573391000" lon="1.919639000">
        <ele>281.80</ele>
        <time>2013-12-23T14:34:49Z</time>
      </trkpt>
      <trkpt lat="41.572567000" lon="1.920640000">
        <ele>279.90</ele>
        <time>2013-12-23T14:35:03Z</time>
      </trkpt>
      <trkpt lat="41.572338000" lon="1.920877000">
        <ele>279.40</ele>
        <time>2013-12-23T14:35:06Z</time>
      </trkpt>
      <trkpt lat="41.571720000" lon="1.921071000">
        <ele>279.40</ele>
        <time>2013-12-23T14:35:15Z</time>
      </trkpt>
      <trkpt lat="41.571243000" lon="1.920871000">
        <ele>278.40</ele>
        <time>2013-12-23T14:35:22Z</time>
      </trkpt>
      <trkpt lat="41.570774000" lon="1.920792000">
        <ele>275.60</ele>
        <time>2013-12-23T14:35:29Z</time>
      </trkpt>
      <trkpt lat="41.570229000" lon="1.920643000">
        <ele>272.20</ele>
        <time>2013-12-23T14:35:34Z</time>
      </trkpt>
      <trkpt lat="41.570141000" lon="1.920616000">
        <ele>271.70</ele>
        <time>2013-12-23T14:35:36Z</time>
      </trkpt>
      <trkpt lat="41.569809000" lon="1.920839000">
        <ele>268.80</ele>
        <time>2013-12-23T14:35:41Z</time>
      </trkpt>
      <trkpt lat="41.569641000" lon="1.921134000">
        <ele>266.40</ele>
        <time>2013-12-23T14:35:43Z</time>
      </trkpt>
      <trkpt lat="41.569237000" lon="1.921561000">
        <ele>262.10</ele>
        <time>2013-12-23T14:35:48Z</time>
      </trkpt>
      <trkpt lat="41.569054000" lon="1.921714000">
        <ele>260.60</ele>
        <time>2013-12-23T14:35:50Z</time>
      </trkpt>
      <trkpt lat="41.568817000" lon="1.922129000">
        <ele>257.80</ele>
        <time>2013-12-23T14:35:55Z</time>
      </trkpt>
      <trkpt lat="41.568684000" lon="1.922937000">
        <ele>257.80</ele>
        <time>2013-12-23T14:36:02Z</time>
      </trkpt>
      <trkpt lat="41.568630000" lon="1.923031000">
        <ele>257.80</ele>
        <time>2013-12-23T14:36:02Z</time>
      </trkpt>
      <trkpt lat="41.568039000" lon="1.923635000">
        <ele>255.90</ele>
        <time>2013-12-23T14:36:12Z</time>
      </trkpt>
      <trkpt lat="41.567787000" lon="1.923730000">
        <ele>254.90</ele>
        <time>2013-12-23T14:36:14Z</time>
      </trkpt>
      <trkpt lat="41.567135000" lon="1.923466000">
        <ele>252.50</ele>
        <time>2013-12-23T14:36:23Z</time>
      </trkpt>
      <trkpt lat="41.566986000" lon="1.923070000">
        <ele>252.00</ele>
        <time>2013-12-23T14:36:26Z</time>
      </trkpt>
      <trkpt lat="41.566948000" lon="1.922859000">
        <ele>252.00</ele>
        <time>2013-12-23T14:36:28Z</time>
      </trkpt>
      <trkpt lat="41.566818000" lon="1.922359000">
        <ele>252.00</ele>
        <time>2013-12-23T14:36:33Z</time>
      </trkpt>
      <trkpt lat="41.566544000" lon="1.922057000">
        <ele>252.00</ele>
        <time>2013-12-23T14:36:38Z</time>
      </trkpt>
      <trkpt lat="41.566109000" lon="1.921957000">
        <ele>252.50</ele>
        <time>2013-12-23T14:36:45Z</time>
      </trkpt>
      <trkpt lat="41.565983000" lon="1.921905000">
        <ele>253.00</ele>
        <time>2013-12-23T14:36:47Z</time>
      </trkpt>
      <trkpt lat="41.565876000" lon="1.921849000">
        <ele>253.90</ele>
        <time>2013-12-23T14:36:49Z</time>
      </trkpt>
      <trkpt lat="41.565784000" lon="1.921795000">
        <ele>254.40</ele>
        <time>2013-12-23T14:36:51Z</time>
      </trkpt>
      <trkpt lat="41.565636000" lon="1.921699000">
        <ele>255.40</ele>
        <time>2013-12-23T14:36:54Z</time>
      </trkpt>
      <trkpt lat="41.565277000" lon="1.921474000">
        <ele>255.40</ele>
        <time>2013-12-23T14:37:01Z</time>
      </trkpt>
      <trkpt lat="41.564842000" lon="1.921003000">
        <ele>252.00</ele>
        <time>2013-12-23T14:37:08Z</time>
      </trkpt>
      <trkpt lat="41.564678000" lon="1.920908000">
        <ele>251.00</ele>
        <time>2013-12-23T14:37:10Z</time>
      </trkpt>
      <trkpt lat="41.564434000" lon="1.920954000">
        <ele>249.10</ele>
        <time>2013-12-23T14:37:13Z</time>
      </trkpt>
      <trkpt lat="41.564251000" lon="1.921180000">
        <ele>248.60</ele>
        <time>2013-12-23T14:37:17Z</time>
      </trkpt>
      <trkpt lat="41.563759000" lon="1.921280000">
        <ele>249.60</ele>
        <time>2013-12-23T14:37:24Z</time>
      </trkpt>
      <trkpt lat="41.563049000" lon="1.920439000">
        <ele>251.00</ele>
        <time>2013-12-23T14:37:41Z</time>
      </trkpt>
      <trkpt lat="41.562756000" lon="1.920137000">
        <ele>250.60</ele>
        <time>2013-12-23T14:37:46Z</time>
      </trkpt>
      <trkpt lat="41.562542000" lon="1.919739000">
        <ele>251.00</ele>
        <time>2013-12-23T14:37:53Z</time>
      </trkpt>
      <trkpt lat="41.562130000" lon="1.919511000">
        <ele>252.00</ele>
        <time>2013-12-23T14:38:02Z</time>
      </trkpt>
      <trkpt lat="41.561512000" lon="1.919619000">
        <ele>250.60</ele>
        <time>2013-12-23T14:38:11Z</time>
      </trkpt>
      <trkpt lat="41.561001000" lon="1.919348000">
        <ele>249.10</ele>
        <time>2013-12-23T14:38:19Z</time>
      </trkpt>
      <trkpt lat="41.560711000" lon="1.919513000">
        <ele>249.60</ele>
        <time>2013-12-23T14:38:25Z</time>
      </trkpt>
      <trkpt lat="41.560589000" lon="1.919691000">
        <ele>250.60</ele>
        <time>2013-12-23T14:38:28Z</time>
      </trkpt>
      <trkpt lat="41.560333000" lon="1.919811000">
        <ele>250.60</ele>
        <time>2013-12-23T14:38:33Z</time>
      </trkpt>
      <trkpt lat="41.559937000" lon="1.919678000">
        <ele>250.60</ele>
        <time>2013-12-23T14:38:40Z</time>
      </trkpt>
      <trkpt lat="41.559322000" lon="1.919365000">
        <ele>249.10</ele>
        <time>2013-12-23T14:38:49Z</time>
      </trkpt>
      <trkpt lat="41.559059000" lon="1.918944000">
        <ele>248.20</ele>
        <time>2013-12-23T14:38:56Z</time>
      </trkpt>
      <trkpt lat="41.558674000" lon="1.917919000">
        <ele>248.20</ele>
        <time>2013-12-23T14:39:08Z</time>
      </trkpt>
      <trkpt lat="41.558262000" lon="1.917284000">
        <ele>249.10</ele>
        <time>2013-12-23T14:39:19Z</time>
      </trkpt>
      <trkpt lat="41.558174000" lon="1.916866000">
        <ele>247.70</ele>
        <time>2013-12-23T14:39:24Z</time>
      </trkpt>
      <trkpt lat="41.558178000" lon="1.916687000">
        <ele>247.20</ele>
        <time>2013-12-23T14:39:26Z</time>
      </trkpt>
      <trkpt lat="41.557934000" lon="1.916173000">
        <ele>246.70</ele>
        <time>2013-12-23T14:39:34Z</time>
      </trkpt>
      <trkpt lat="41.557663000" lon="1.916443000">
        <ele>247.70</ele>
        <time>2013-12-23T14:39:41Z</time>
      </trkpt>
      <trkpt lat="41.557514000" lon="1.916876000">
        <ele>249.10</ele>
        <time>2013-12-23T14:39:48Z</time>
      </trkpt>
      <trkpt lat="41.557480000" lon="1.916991000">
        <ele>249.10</ele>
        <time>2013-12-23T14:39:50Z</time>
      </trkpt>
      <trkpt lat="41.557446000" lon="1.917096000">
        <ele>250.10</ele>
        <time>2013-12-23T14:39:52Z</time>
      </trkpt>
      <trkpt lat="41.557182000" lon="1.917340000">
        <ele>252.50</ele>
        <time>2013-12-23T14:40:00Z</time>
      </trkpt>
      <trkpt lat="41.557144000" lon="1.917320000">
        <ele>252.00</ele>
        <time>2013-12-23T14:40:02Z</time>
      </trkpt>
      <trkpt lat="41.557018000" lon="1.917230000">
        <ele>252.00</ele>
        <time>2013-12-23T14:40:04Z</time>
      </trkpt>
      <trkpt lat="41.556927000" lon="1.916713000">
        <ele>248.20</ele>
        <time>2013-12-23T14:40:13Z</time>
      </trkpt>
      <trkpt lat="41.556961000" lon="1.916626000">
        <ele>248.20</ele>
        <time>2013-12-23T14:40:13Z</time>
      </trkpt>
      <trkpt lat="41.557007000" lon="1.915904000">
        <ele>245.30</ele>
        <time>2013-12-23T14:40:21Z</time>
      </trkpt>
      <trkpt lat="41.556976000" lon="1.915797000">
        <ele>244.30</ele>
        <time>2013-12-23T14:40:21Z</time>
      </trkpt>
      <trkpt lat="41.556786000" lon="1.915236000">
        <ele>240.50</ele>
        <time>2013-12-23T14:40:27Z</time>
      </trkpt>
      <trkpt lat="41.556602000" lon="1.914639000">
        <ele>237.10</ele>
        <time>2013-12-23T14:40:32Z</time>
      </trkpt>
      <trkpt lat="41.556515000" lon="1.914240000">
        <ele>235.20</ele>
        <time>2013-12-23T14:40:35Z</time>
      </trkpt>
      <trkpt lat="41.556229000" lon="1.913524000">
        <ele>230.40</ele>
        <time>2013-12-23T14:40:41Z</time>
      </trkpt>
      <trkpt lat="41.556202000" lon="1.913245000">
        <ele>228.90</ele>
        <time>2013-12-23T14:40:42Z</time>
      </trkpt>
      <trkpt lat="41.556183000" lon="1.912820000">
        <ele>226.10</ele>
        <time>2013-12-23T14:40:46Z</time>
      </trkpt>
      <trkpt lat="41.555969000" lon="1.912228000">
        <ele>222.70</ele>
        <time>2013-12-23T14:40:51Z</time>
      </trkpt>
      <trkpt lat="41.555557000" lon="1.911569000">
        <ele>217.90</ele>
        <time>2013-12-23T14:40:56Z</time>
      </trkpt>
      <trkpt lat="41.555508000" lon="1.911443000">
        <ele>217.40</ele>
        <time>2013-12-23T14:40:58Z</time>
      </trkpt>
      <trkpt lat="41.555542000" lon="1.910894000">
        <ele>213.10</ele>
        <time>2013-12-23T14:41:03Z</time>
      </trkpt>
      <trkpt lat="41.555611000" lon="1.910812000">
        <ele>212.10</ele>
        <time>2013-12-23T14:41:03Z</time>
      </trkpt>
      <trkpt lat="41.555969000" lon="1.910356000">
        <ele>207.80</ele>
        <time>2013-12-23T14:41:08Z</time>
      </trkpt>
      <trkpt lat="41.556068000" lon="1.910140000">
        <ele>207.30</ele>
        <time>2013-12-23T14:41:10Z</time>
      </trkpt>
      <trkpt lat="41.555943000" lon="1.909595000">
        <ele>204.40</ele>
        <time>2013-12-23T14:41:15Z</time>
      </trkpt>
      <trkpt lat="41.555679000" lon="1.909487000">
        <ele>203.50</ele>
        <time>2013-12-23T14:41:19Z</time>
      </trkpt>
      <trkpt lat="41.555191000" lon="1.909346000">
        <ele>202.50</ele>
        <time>2013-12-23T14:41:24Z</time>
      </trkpt>
      <trkpt lat="41.554718000" lon="1.909554000">
        <ele>201.50</ele>
        <time>2013-12-23T14:41:31Z</time>
      </trkpt>
      <trkpt lat="41.554440000" lon="1.910129000">
        <ele>201.10</ele>
        <time>2013-12-23T14:41:38Z</time>
      </trkpt>
      <trkpt lat="41.554077000" lon="1.910191000">
        <ele>201.50</ele>
        <time>2013-12-23T14:41:45Z</time>
      </trkpt>
      <trkpt lat="41.553967000" lon="1.910084000">
        <ele>200.60</ele>
        <time>2013-12-23T14:41:47Z</time>
      </trkpt>
      <trkpt lat="41.553703000" lon="1.909670000">
        <ele>201.10</ele>
        <time>2013-12-23T14:41:52Z</time>
      </trkpt>
      <trkpt lat="41.553600000" lon="1.909554000">
        <ele>201.10</ele>
        <time>2013-12-23T14:41:54Z</time>
      </trkpt>
      <trkpt lat="41.553291000" lon="1.909420000">
        <ele>201.50</ele>
        <time>2013-12-23T14:41:59Z</time>
      </trkpt>
      <trkpt lat="41.552475000" lon="1.909419000">
        <ele>200.60</ele>
        <time>2013-12-23T14:42:11Z</time>
      </trkpt>
      <trkpt lat="41.552174000" lon="1.909309000">
        <ele>198.60</ele>
        <time>2013-12-23T14:42:16Z</time>
      </trkpt>
      <trkpt lat="41.551888000" lon="1.909089000">
        <ele>196.20</ele>
        <time>2013-12-23T14:42:20Z</time>
      </trkpt>
      <trkpt lat="41.551563000" lon="1.908955000">
        <ele>195.80</ele>
        <time>2013-12-23T14:42:23Z</time>
      </trkpt>
      <trkpt lat="41.551392000" lon="1.908974000">
        <ele>194.30</ele>
        <time>2013-12-23T14:42:25Z</time>
      </trkpt>
      <trkpt lat="41.551212000" lon="1.908955000">
        <ele>193.40</ele>
        <time>2013-12-23T14:42:27Z</time>
      </trkpt>
      <trkpt lat="41.550861000" lon="1.908663000">
        <ele>190.00</ele>
        <time>2013-12-23T14:42:32Z</time>
      </trkpt>
      <trkpt lat="41.550781000" lon="1.908452000">
        <ele>189.00</ele>
        <time>2013-12-23T14:42:34Z</time>
      </trkpt>
      <trkpt lat="41.550537000" lon="1.908100000">
        <ele>187.10</ele>
        <time>2013-12-23T14:42:39Z</time>
      </trkpt>
      <trkpt lat="41.550457000" lon="1.908035000">
        <ele>186.10</ele>
        <time>2013-12-23T14:42:39Z</time>
      </trkpt>
      <trkpt lat="41.549980000" lon="1.907628000">
        <ele>183.30</ele>
        <time>2013-12-23T14:42:46Z</time>
      </trkpt>
      <trkpt lat="41.549599000" lon="1.906921000">
        <ele>180.40</ele>
        <time>2013-12-23T14:42:53Z</time>
      </trkpt>
      <trkpt lat="41.549522000" lon="1.906857000">
        <ele>179.90</ele>
        <time>2013-12-23T14:42:53Z</time>
      </trkpt>
      <trkpt lat="41.549355000" lon="1.906740000">
        <ele>178.50</ele>
        <time>2013-12-23T14:42:55Z</time>
      </trkpt>
      <trkpt lat="41.549194000" lon="1.906585000">
        <ele>177.50</ele>
        <time>2013-12-23T14:42:58Z</time>
      </trkpt>
      <trkpt lat="41.549065000" lon="1.906389000">
        <ele>176.50</ele>
        <time>2013-12-23T14:43:00Z</time>
      </trkpt>
      <trkpt lat="41.548649000" lon="1.905606000">
        <ele>172.20</ele>
        <time>2013-12-23T14:43:07Z</time>
      </trkpt>
      <trkpt lat="41.548409000" lon="1.905150000">
        <ele>169.30</ele>
        <time>2013-12-23T14:43:10Z</time>
      </trkpt>
      <trkpt lat="41.548183000" lon="1.904879000">
        <ele>168.40</ele>
        <time>2013-12-23T14:43:14Z</time>
      </trkpt>
      <trkpt lat="41.547997000" lon="1.904769000">
        <ele>166.90</ele>
        <time>2013-12-23T14:43:16Z</time>
      </trkpt>
      <trkpt lat="41.547501000" lon="1.904580000">
        <ele>163.60</ele>
        <time>2013-12-23T14:43:21Z</time>
      </trkpt>
      <trkpt lat="41.547192000" lon="1.904491000">
        <ele>161.20</ele>
        <time>2013-12-23T14:43:24Z</time>
      </trkpt>
      <trkpt lat="41.546738000" lon="1.904131000">
        <ele>156.80</ele>
        <time>2013-12-23T14:43:28Z</time>
      </trkpt>
      <trkpt lat="41.546425000" lon="1.903807000">
        <ele>154.40</ele>
        <time>2013-12-23T14:43:33Z</time>
      </trkpt>
      <trkpt lat="41.546223000" lon="1.903800000">
        <ele>153.00</ele>
        <time>2013-12-23T14:43:35Z</time>
      </trkpt>
      <trkpt lat="41.545914000" lon="1.903842000">
        <ele>151.10</ele>
        <time>2013-12-23T14:43:38Z</time>
      </trkpt>
      <trkpt lat="41.545372000" lon="1.903750000">
        <ele>147.20</ele>
        <time>2013-12-23T14:43:42Z</time>
      </trkpt>
      <trkpt lat="41.544861000" lon="1.903445000">
        <ele>142.90</ele>
        <time>2013-12-23T14:43:47Z</time>
      </trkpt>
      <trkpt lat="41.544594000" lon="1.902927000">
        <ele>138.60</ele>
        <time>2013-12-23T14:43:52Z</time>
      </trkpt>
      <trkpt lat="41.544510000" lon="1.902297000">
        <ele>135.70</ele>
        <time>2013-12-23T14:43:57Z</time>
      </trkpt>
      <trkpt lat="41.544315000" lon="1.901997000">
        <ele>133.30</ele>
        <time>2013-12-23T14:44:01Z</time>
      </trkpt>
      <trkpt lat="41.544090000" lon="1.901724000">
        <ele>131.40</ele>
        <time>2013-12-23T14:44:04Z</time>
      </trkpt>
      <trkpt lat="41.543961000" lon="1.900993000">
        <ele>126.60</ele>
        <time>2013-12-23T14:44:10Z</time>
      </trkpt>
      <trkpt lat="41.544033000" lon="1.900736000">
        <ele>125.10</ele>
        <time>2013-12-23T14:44:11Z</time>
      </trkpt>
      <trkpt lat="41.544144000" lon="1.899910000">
        <ele>121.30</ele>
        <time>2013-12-23T14:44:18Z</time>
      </trkpt>
      <trkpt lat="41.544106000" lon="1.899334000">
        <ele>118.90</ele>
        <time>2013-12-23T14:44:22Z</time>
      </trkpt>
      <trkpt lat="41.544064000" lon="1.898789000">
        <ele>115.50</ele>
        <time>2013-12-23T14:44:25Z</time>
      </trkpt>
      <trkpt lat="41.544052000" lon="1.898525000">
        <ele>114.50</ele>
        <time>2013-12-23T14:44:27Z</time>
      </trkpt>
      <trkpt lat="41.544025000" lon="1.897861000">
        <ele>111.70</ele>
        <time>2013-12-23T14:44:32Z</time>
      </trkpt>
      <trkpt lat="41.544010000" lon="1.897356000">
        <ele>109.20</ele>
        <time>2013-12-23T14:44:36Z</time>
      </trkpt>
      <trkpt lat="41.543999000" lon="1.896869000">
        <ele>107.30</ele>
        <time>2013-12-23T14:44:41Z</time>
      </trkpt>
      <trkpt lat="41.544094000" lon="1.896419000">
        <ele>106.80</ele>
        <time>2013-12-23T14:44:44Z</time>
      </trkpt>
      <trkpt lat="41.544201000" lon="1.896148000">
        <ele>105.90</ele>
        <time>2013-12-23T14:44:48Z</time>
      </trkpt>
      <trkpt lat="41.544289000" lon="1.896030000">
        <ele>105.40</ele>
        <time>2013-12-23T14:44:50Z</time>
      </trkpt>
      <trkpt lat="41.544338000" lon="1.895977000">
        <ele>105.40</ele>
        <time>2013-12-23T14:44:51Z</time>
      </trkpt>
      <trkpt lat="41.544380000" lon="1.895871000">
        <ele>104.40</ele>
        <time>2013-12-23T14:44:57Z</time>
      </trkpt>
      <trkpt lat="41.544373000" lon="1.895710000">
        <ele>103.00</ele>
        <time>2013-12-23T14:45:00Z</time>
      </trkpt>
      <trkpt lat="41.544384000" lon="1.895594000">
        <ele>102.00</ele>
        <time>2013-12-23T14:45:02Z</time>
      </trkpt>
      <trkpt lat="41.544411000" lon="1.895227000">
        <ele>103.50</ele>
        <time>2013-12-23T14:45:07Z</time>
      </trkpt>
      <trkpt lat="41.544537000" lon="1.894762000">
        <ele>105.90</ele>
        <time>2013-12-23T14:45:16Z</time>
      </trkpt>
      <trkpt lat="41.544853000" lon="1.894263000">
        <ele>108.30</ele>
        <time>2013-12-23T14:45:30Z</time>
      </trkpt>
      <trkpt lat="41.544933000" lon="1.894100000">
        <ele>108.30</ele>
        <time>2013-12-23T14:45:35Z</time>
      </trkpt>
      <trkpt lat="41.544922000" lon="1.893937000">
        <ele>108.30</ele>
        <time>2013-12-23T14:45:40Z</time>
      </trkpt>
      <trkpt lat="41.544952000" lon="1.893675000">
        <ele>107.80</ele>
        <time>2013-12-23T14:45:44Z</time>
      </trkpt>
      <trkpt lat="41.545040000" lon="1.893368000">
        <ele>108.30</ele>
        <time>2013-12-23T14:45:49Z</time>
      </trkpt>
      <trkpt lat="41.545212000" lon="1.892937000">
        <ele>107.30</ele>
        <time>2013-12-23T14:45:56Z</time>
      </trkpt>
      <trkpt lat="41.545269000" lon="1.892691000">
        <ele>106.80</ele>
        <time>2013-12-23T14:45:59Z</time>
      </trkpt>
      <trkpt lat="41.545284000" lon="1.892498000">
        <ele>106.80</ele>
        <time>2013-12-23T14:46:03Z</time>
      </trkpt>
      <trkpt lat="41.545250000" lon="1.892306000">
        <ele>109.20</ele>
        <time>2013-12-23T14:46:06Z</time>
      </trkpt>
      <trkpt lat="41.545128000" lon="1.891815000">
        <ele>104.40</ele>
        <time>2013-12-23T14:46:12Z</time>
      </trkpt>
      <trkpt lat="41.545155000" lon="1.891496000">
        <ele>104.00</ele>
        <time>2013-12-23T14:46:15Z</time>
      </trkpt>
      <trkpt lat="41.545132000" lon="1.891375000">
        <ele>104.00</ele>
        <time>2013-12-23T14:46:17Z</time>
      </trkpt>
      <trkpt lat="41.544971000" lon="1.891210000">
        <ele>102.50</ele>
        <time>2013-12-23T14:46:22Z</time>
      </trkpt>
      <trkpt lat="41.544685000" lon="1.890792000">
        <ele>98.70</ele>
        <time>2013-12-23T14:46:31Z</time>
      </trkpt>
      <trkpt lat="41.544670000" lon="1.890768000">
        <ele>98.70</ele>
        <time>2013-12-23T14:46:32Z</time>
      </trkpt>
      <trkpt lat="41.544807000" lon="1.890773000">
        <ele>97.70</ele>
        <time>2013-12-23T14:46:41Z</time>
      </trkpt>
      <trkpt lat="41.544849000" lon="1.890825000">
        <ele>97.70</ele>
        <time>2013-12-23T14:46:43Z</time>
      </trkpt>
      <trkpt lat="41.544910000" lon="1.890889000">
        <ele>98.20</ele>
        <time>2013-12-23T14:46:55Z</time>
      </trkpt>
      <trkpt lat="41.544910000" lon="1.890889000">
        <ele>98.20</ele>
        <time>2013-12-23T14:47:21Z</time>
      </trkpt>
      <trkpt lat="41.544910000" lon="1.890889000">
        <ele>98.20</ele>
        <time>2013-12-23T14:47:23Z</time>
      </trkpt>
      <trkpt lat="41.544918000" lon="1.890875000">
        <ele>97.70</ele>
        <time>2013-12-23T14:47:25Z</time>
      </trkpt>
      <trkpt lat="41.544949000" lon="1.890817000">
        <ele>96.30</ele>
        <time>2013-12-23T14:47:26Z</time>
      </trkpt>
      <trkpt lat="41.544918000" lon="1.890726000">
        <ele>94.80</ele>
        <time>2013-12-23T14:47:30Z</time>
      </trkpt>
      <trkpt lat="41.544827000" lon="1.890676000">
        <ele>93.90</ele>
        <time>2013-12-23T14:47:33Z</time>
      </trkpt>
      <trkpt lat="41.544567000" lon="1.890723000">
        <ele>93.90</ele>
        <time>2013-12-23T14:47:54Z</time>
      </trkpt>
      <trkpt lat="41.544567000" lon="1.890723000">
        <ele>92.90</ele>
        <time>2013-12-23T14:47:59Z</time>
      </trkpt>
    </trkseg>
  </trk>
</gpx>
